<?xml version="1.0" encoding="UTF-8"?>
<gpx version="1.1" creator="https://www.www-youtrack-es.amenigma.com" xsi:schemaLocation="http://www.topografix.com/GPX/1/1 http://www.topografix.com/GPX/1/1/gpx.xsd http://www.garmin.com/xmlschemas/GpxExtensions/v3 http://www.garmin.com/xmlschemas/GpxExtensionsv3.xsd http://www.garmin.com/xmlschemas/TrackPointExtension/v1 http://www.garmin.com/xmlschemas/TrackPointExtensionv1.xsd" xmlns:gpxtpx="http://www.garmin.com/xmlschemas/TrackPointExtension/v1" xmlns:gpxx="http://www.garmin.com/xmlschemas/GpxExtensions/v3" xmlns:xsi="http://www.w3.org/2001/XMLSchema-instance">
  <metadata>
    <author>
      <name>David Segura</name>
      <email id="dseguracheca" domain="gmail.com"/>
    </author>
    <link href="https://www.www-youtrack-es.amenigma.com">
      <text>YouTrack.es</text>
    </link>
    <time>2026-08-31T08:20:38Z</time>
  </metadata>
  <trk>
    <src>https://www.www-youtrack-es.amenigma.com</src>
    <link href="https://www.www-youtrack-es.amenigma.com/ruta/8790-can-tito">
      <text>YouTrack.es</text>
    </link>
    <trkseg>
      <trkpt lat="41.57333415" lon="1.637217951">
        <ele>259.00000</ele>
        <time>2019-10-07T14:50:15Z</time>
      </trkpt>
      <trkpt lat="41.57329299" lon="1.637341417">
        <ele>259.00000</ele>
        <time>2019-10-07T14:50:22Z</time>
      </trkpt>
      <trkpt lat="41.57325200" lon="1.637375112">
        <ele>258.00000</ele>
        <time>2019-10-07T14:50:23Z</time>
      </trkpt>
      <trkpt lat="41.57320112" lon="1.637379135">
        <ele>258.00000</ele>
        <time>2019-10-07T14:50:24Z</time>
      </trkpt>
      <trkpt lat="41.57308956" lon="1.637303614">
        <ele>257.00000</ele>
        <time>2019-10-07T14:50:26Z</time>
      </trkpt>
      <trkpt lat="41.57294422" lon="1.637178724">
        <ele>256.00000</ele>
        <time>2019-10-07T14:50:29Z</time>
      </trkpt>
      <trkpt lat="41.57285353" lon="1.637070849">
        <ele>256.00000</ele>
        <time>2019-10-07T14:50:31Z</time>
      </trkpt>
      <trkpt lat="41.57258430" lon="1.636868426">
        <ele>255.00000</ele>
        <time>2019-10-07T14:50:36Z</time>
      </trkpt>
      <trkpt lat="41.57229303" lon="1.636694753">
        <ele>255.00000</ele>
        <time>2019-10-07T14:50:41Z</time>
      </trkpt>
      <trkpt lat="41.57200804" lon="1.636528372">
        <ele>255.00000</ele>
        <time>2019-10-07T14:50:46Z</time>
      </trkpt>
      <trkpt lat="41.57196530" lon="1.636467101">
        <ele>255.00000</ele>
        <time>2019-10-07T14:50:47Z</time>
      </trkpt>
      <trkpt lat="41.57195867" lon="1.636300720">
        <ele>255.00000</ele>
        <time>2019-10-07T14:50:49Z</time>
      </trkpt>
      <trkpt lat="41.57200159" lon="1.636150851">
        <ele>255.00000</ele>
        <time>2019-10-07T14:50:51Z</time>
      </trkpt>
      <trkpt lat="41.57202674" lon="1.636071810">
        <ele>254.00000</ele>
        <time>2019-10-07T14:50:52Z</time>
      </trkpt>
      <trkpt lat="41.57204836" lon="1.635991930">
        <ele>254.00000</ele>
        <time>2019-10-07T14:50:53Z</time>
      </trkpt>
      <trkpt lat="41.57210770" lon="1.635736702">
        <ele>254.00000</ele>
        <time>2019-10-07T14:50:56Z</time>
      </trkpt>
      <trkpt lat="41.57211659" lon="1.635557496">
        <ele>254.00000</ele>
        <time>2019-10-07T14:50:58Z</time>
      </trkpt>
      <trkpt lat="41.57206152" lon="1.635421374">
        <ele>253.00000</ele>
        <time>2019-10-07T14:51:00Z</time>
      </trkpt>
      <trkpt lat="41.57202187" lon="1.635373849">
        <ele>253.00000</ele>
        <time>2019-10-07T14:51:01Z</time>
      </trkpt>
      <trkpt lat="41.57186396" lon="1.635367982">
        <ele>253.00000</ele>
        <time>2019-10-07T14:51:04Z</time>
      </trkpt>
      <trkpt lat="41.57172624" lon="1.635406790">
        <ele>253.00000</ele>
        <time>2019-10-07T14:51:06Z</time>
      </trkpt>
      <trkpt lat="41.57167528" lon="1.635440234">
        <ele>253.00000</ele>
        <time>2019-10-07T14:51:07Z</time>
      </trkpt>
      <trkpt lat="41.57152449" lon="1.635470576">
        <ele>253.00000</ele>
        <time>2019-10-07T14:51:09Z</time>
      </trkpt>
      <trkpt lat="41.57116399" lon="1.635444341">
        <ele>252.00000</ele>
        <time>2019-10-07T14:51:14Z</time>
      </trkpt>
      <trkpt lat="41.57108746" lon="1.635487843">
        <ele>251.00000</ele>
        <time>2019-10-07T14:51:15Z</time>
      </trkpt>
      <trkpt lat="41.57101311" lon="1.635555988">
        <ele>250.00000</ele>
        <time>2019-10-07T14:51:16Z</time>
      </trkpt>
      <trkpt lat="41.57095243" lon="1.635640058">
        <ele>250.00000</ele>
        <time>2019-10-07T14:51:17Z</time>
      </trkpt>
      <trkpt lat="41.57072335" lon="1.635855222">
        <ele>249.00000</ele>
        <time>2019-10-07T14:51:20Z</time>
      </trkpt>
      <trkpt lat="41.57054171" lon="1.635974999">
        <ele>248.00000</ele>
        <time>2019-10-07T14:51:22Z</time>
      </trkpt>
      <trkpt lat="41.57034650" lon="1.636054627">
        <ele>246.00000</ele>
        <time>2019-10-07T14:51:24Z</time>
      </trkpt>
      <trkpt lat="41.57013586" lon="1.636082455">
        <ele>245.00000</ele>
        <time>2019-10-07T14:51:26Z</time>
      </trkpt>
      <trkpt lat="41.57003335" lon="1.636090502">
        <ele>244.00000</ele>
        <time>2019-10-07T14:51:27Z</time>
      </trkpt>
      <trkpt lat="41.56993059" lon="1.636085473">
        <ele>243.00000</ele>
        <time>2019-10-07T14:51:28Z</time>
      </trkpt>
      <trkpt lat="41.56972783" lon="1.636081617">
        <ele>242.00000</ele>
        <time>2019-10-07T14:51:30Z</time>
      </trkpt>
      <trkpt lat="41.56954100" lon="1.636071726">
        <ele>241.00000</ele>
        <time>2019-10-07T14:51:32Z</time>
      </trkpt>
      <trkpt lat="41.56928233" lon="1.636014813">
        <ele>241.00000</ele>
        <time>2019-10-07T14:51:35Z</time>
      </trkpt>
      <trkpt lat="41.56914780" lon="1.635925294">
        <ele>242.00000</ele>
        <time>2019-10-07T14:51:37Z</time>
      </trkpt>
      <trkpt lat="41.56903892" lon="1.635834015">
        <ele>243.00000</ele>
        <time>2019-10-07T14:51:39Z</time>
      </trkpt>
      <trkpt lat="41.56887128" lon="1.635694624">
        <ele>243.00000</ele>
        <time>2019-10-07T14:51:42Z</time>
      </trkpt>
      <trkpt lat="41.56876282" lon="1.635610973">
        <ele>243.00000</ele>
        <time>2019-10-07T14:51:44Z</time>
      </trkpt>
      <trkpt lat="41.56871756" lon="1.635555820">
        <ele>243.00000</ele>
        <time>2019-10-07T14:51:45Z</time>
      </trkpt>
      <trkpt lat="41.56868588" lon="1.635488932">
        <ele>243.00000</ele>
        <time>2019-10-07T14:51:46Z</time>
      </trkpt>
      <trkpt lat="41.56866484" lon="1.635410729">
        <ele>243.00000</ele>
        <time>2019-10-07T14:51:47Z</time>
      </trkpt>
      <trkpt lat="41.56851271" lon="1.634934134">
        <ele>243.00000</ele>
        <time>2019-10-07T14:51:53Z</time>
      </trkpt>
      <trkpt lat="41.56843719" lon="1.634626351">
        <ele>243.00000</ele>
        <time>2019-10-07T14:51:57Z</time>
      </trkpt>
      <trkpt lat="41.56843232" lon="1.634551584">
        <ele>243.00000</ele>
        <time>2019-10-07T14:51:58Z</time>
      </trkpt>
      <trkpt lat="41.56841447" lon="1.634414289">
        <ele>244.00000</ele>
        <time>2019-10-07T14:52:00Z</time>
      </trkpt>
      <trkpt lat="41.56839377" lon="1.634282274">
        <ele>244.00000</ele>
        <time>2019-10-07T14:52:02Z</time>
      </trkpt>
      <trkpt lat="41.56837692" lon="1.634218655">
        <ele>244.00000</ele>
        <time>2019-10-07T14:52:03Z</time>
      </trkpt>
      <trkpt lat="41.56821473" lon="1.633744155">
        <ele>245.00000</ele>
        <time>2019-10-07T14:52:11Z</time>
      </trkpt>
      <trkpt lat="41.56818070" lon="1.633702581">
        <ele>246.00000</ele>
        <time>2019-10-07T14:52:12Z</time>
      </trkpt>
      <trkpt lat="41.56808615" lon="1.633569560">
        <ele>247.00000</ele>
        <time>2019-10-07T14:52:15Z</time>
      </trkpt>
      <trkpt lat="41.56805824" lon="1.633522957">
        <ele>247.00000</ele>
        <time>2019-10-07T14:52:16Z</time>
      </trkpt>
      <trkpt lat="41.56798926" lon="1.633452717">
        <ele>248.00000</ele>
        <time>2019-10-07T14:52:18Z</time>
      </trkpt>
      <trkpt lat="41.56795204" lon="1.633422374">
        <ele>248.00000</ele>
        <time>2019-10-07T14:52:19Z</time>
      </trkpt>
      <trkpt lat="41.56787929" lon="1.633359426">
        <ele>248.00000</ele>
        <time>2019-10-07T14:52:21Z</time>
      </trkpt>
      <trkpt lat="41.56778952" lon="1.633347440">
        <ele>249.00000</ele>
        <time>2019-10-07T14:52:23Z</time>
      </trkpt>
      <trkpt lat="41.56770109" lon="1.633332939">
        <ele>249.00000</ele>
        <time>2019-10-07T14:52:25Z</time>
      </trkpt>
      <trkpt lat="41.56757636" lon="1.633297819">
        <ele>250.00000</ele>
        <time>2019-10-07T14:52:28Z</time>
      </trkpt>
      <trkpt lat="41.56749615" lon="1.633274015">
        <ele>250.00000</ele>
        <time>2019-10-07T14:52:30Z</time>
      </trkpt>
      <trkpt lat="41.56745877" lon="1.633261693">
        <ele>250.00000</ele>
        <time>2019-10-07T14:52:31Z</time>
      </trkpt>
      <trkpt lat="41.56739138" lon="1.633220873">
        <ele>251.00000</ele>
        <time>2019-10-07T14:52:33Z</time>
      </trkpt>
      <trkpt lat="41.56729809" lon="1.633134037">
        <ele>252.00000</ele>
        <time>2019-10-07T14:52:36Z</time>
      </trkpt>
      <trkpt lat="41.56726255" lon="1.633109226">
        <ele>253.00000</ele>
        <time>2019-10-07T14:52:37Z</time>
      </trkpt>
      <trkpt lat="41.56719977" lon="1.633041836">
        <ele>253.00000</ele>
        <time>2019-10-07T14:52:39Z</time>
      </trkpt>
      <trkpt lat="41.56718082" lon="1.632995987">
        <ele>253.00000</ele>
        <time>2019-10-07T14:52:40Z</time>
      </trkpt>
      <trkpt lat="41.56714210" lon="1.632919041">
        <ele>254.00000</ele>
        <time>2019-10-07T14:52:42Z</time>
      </trkpt>
      <trkpt lat="41.56709315" lon="1.632828181">
        <ele>254.00000</ele>
        <time>2019-10-07T14:52:44Z</time>
      </trkpt>
      <trkpt lat="41.56703188" lon="1.632745284">
        <ele>255.00000</ele>
        <time>2019-10-07T14:52:46Z</time>
      </trkpt>
      <trkpt lat="41.56700279" lon="1.632702369">
        <ele>255.00000</ele>
        <time>2019-10-07T14:52:47Z</time>
      </trkpt>
      <trkpt lat="41.56696910" lon="1.632665321">
        <ele>255.00000</ele>
        <time>2019-10-07T14:52:48Z</time>
      </trkpt>
      <trkpt lat="41.56687589" lon="1.632551662">
        <ele>255.00000</ele>
        <time>2019-10-07T14:52:51Z</time>
      </trkpt>
      <trkpt lat="41.56680213" lon="1.632490977">
        <ele>255.00000</ele>
        <time>2019-10-07T14:52:53Z</time>
      </trkpt>
      <trkpt lat="41.56661504" lon="1.632424844">
        <ele>256.00000</ele>
        <time>2019-10-07T14:52:58Z</time>
      </trkpt>
      <trkpt lat="41.56650206" lon="1.632475974">
        <ele>257.00000</ele>
        <time>2019-10-07T14:53:01Z</time>
      </trkpt>
      <trkpt lat="41.56645973" lon="1.632493659">
        <ele>258.00000</ele>
        <time>2019-10-07T14:53:02Z</time>
      </trkpt>
      <trkpt lat="41.56637289" lon="1.632508076">
        <ele>258.00000</ele>
        <time>2019-10-07T14:53:04Z</time>
      </trkpt>
      <trkpt lat="41.56628547" lon="1.632525930">
        <ele>258.00000</ele>
        <time>2019-10-07T14:53:06Z</time>
      </trkpt>
      <trkpt lat="41.56619318" lon="1.632533641">
        <ele>259.00000</ele>
        <time>2019-10-07T14:53:08Z</time>
      </trkpt>
      <trkpt lat="41.56600727" lon="1.632598768">
        <ele>259.00000</ele>
        <time>2019-10-07T14:53:12Z</time>
      </trkpt>
      <trkpt lat="41.56592689" lon="1.632657609">
        <ele>259.00000</ele>
        <time>2019-10-07T14:53:14Z</time>
      </trkpt>
      <trkpt lat="41.56576981" lon="1.632792809">
        <ele>259.00000</ele>
        <time>2019-10-07T14:53:18Z</time>
      </trkpt>
      <trkpt lat="41.56572489" lon="1.632817955">
        <ele>259.00000</ele>
        <time>2019-10-07T14:53:19Z</time>
      </trkpt>
      <trkpt lat="41.56563604" lon="1.632861625">
        <ele>260.00000</ele>
        <time>2019-10-07T14:53:21Z</time>
      </trkpt>
      <trkpt lat="41.56550528" lon="1.632908144">
        <ele>260.00000</ele>
        <time>2019-10-07T14:53:24Z</time>
      </trkpt>
      <trkpt lat="41.56541702" lon="1.632929434">
        <ele>260.00000</ele>
        <time>2019-10-07T14:53:26Z</time>
      </trkpt>
      <trkpt lat="41.56523681" lon="1.632976457">
        <ele>260.00000</ele>
        <time>2019-10-07T14:53:30Z</time>
      </trkpt>
      <trkpt lat="41.56506196" lon="1.633032783">
        <ele>260.00000</ele>
        <time>2019-10-07T14:53:34Z</time>
      </trkpt>
      <trkpt lat="41.56497227" lon="1.633049966">
        <ele>261.00000</ele>
        <time>2019-10-07T14:53:36Z</time>
      </trkpt>
      <trkpt lat="41.56492911" lon="1.633054492">
        <ele>261.00000</ele>
        <time>2019-10-07T14:53:37Z</time>
      </trkpt>
      <trkpt lat="41.56465167" lon="1.633049966">
        <ele>261.00000</ele>
        <time>2019-10-07T14:53:43Z</time>
      </trkpt>
      <trkpt lat="41.56456106" lon="1.633029682">
        <ele>261.00000</ele>
        <time>2019-10-07T14:53:45Z</time>
      </trkpt>
      <trkpt lat="41.56424087" lon="1.632977211">
        <ele>262.00000</ele>
        <time>2019-10-07T14:53:52Z</time>
      </trkpt>
      <trkpt lat="41.56410064" lon="1.632955837">
        <ele>262.00000</ele>
        <time>2019-10-07T14:53:55Z</time>
      </trkpt>
      <trkpt lat="41.56377995" lon="1.632935134">
        <ele>263.00000</ele>
        <time>2019-10-07T14:54:02Z</time>
      </trkpt>
      <trkpt lat="41.56373502" lon="1.632948797">
        <ele>263.00000</ele>
        <time>2019-10-07T14:54:03Z</time>
      </trkpt>
      <trkpt lat="41.56369311" lon="1.632974026">
        <ele>263.00000</ele>
        <time>2019-10-07T14:54:04Z</time>
      </trkpt>
      <trkpt lat="41.56365950" lon="1.633010655">
        <ele>264.00000</ele>
        <time>2019-10-07T14:54:05Z</time>
      </trkpt>
      <trkpt lat="41.56359085" lon="1.633086847">
        <ele>264.00000</ele>
        <time>2019-10-07T14:54:07Z</time>
      </trkpt>
      <trkpt lat="41.56356118" lon="1.633134540">
        <ele>264.00000</ele>
        <time>2019-10-07T14:54:08Z</time>
      </trkpt>
      <trkpt lat="41.56350318" lon="1.633213162">
        <ele>265.00000</ele>
        <time>2019-10-07T14:54:10Z</time>
      </trkpt>
      <trkpt lat="41.56341743" lon="1.633324474">
        <ele>266.00000</ele>
        <time>2019-10-07T14:54:13Z</time>
      </trkpt>
      <trkpt lat="41.56336261" lon="1.633396139">
        <ele>267.00000</ele>
        <time>2019-10-07T14:54:15Z</time>
      </trkpt>
      <trkpt lat="41.56330704" lon="1.633470319">
        <ele>267.00000</ele>
        <time>2019-10-07T14:54:17Z</time>
      </trkpt>
      <trkpt lat="41.56323177" lon="1.633589677">
        <ele>268.00000</ele>
        <time>2019-10-07T14:54:20Z</time>
      </trkpt>
      <trkpt lat="41.56313714" lon="1.633768128">
        <ele>270.00000</ele>
        <time>2019-10-07T14:54:24Z</time>
      </trkpt>
      <trkpt lat="41.56307612" lon="1.633978765">
        <ele>271.00000</ele>
        <time>2019-10-07T14:54:28Z</time>
      </trkpt>
      <trkpt lat="41.56305039" lon="1.634083958">
        <ele>271.00000</ele>
        <time>2019-10-07T14:54:30Z</time>
      </trkpt>
      <trkpt lat="41.56304611" lon="1.634141458">
        <ele>272.00000</ele>
        <time>2019-10-07T14:54:31Z</time>
      </trkpt>
      <trkpt lat="41.56303698" lon="1.634196862">
        <ele>272.00000</ele>
        <time>2019-10-07T14:54:32Z</time>
      </trkpt>
      <trkpt lat="41.56301820" lon="1.634246986">
        <ele>272.00000</ele>
        <time>2019-10-07T14:54:33Z</time>
      </trkpt>
      <trkpt lat="41.56297612" lon="1.634339774">
        <ele>273.00000</ele>
        <time>2019-10-07T14:54:35Z</time>
      </trkpt>
      <trkpt lat="41.56294092" lon="1.634375648">
        <ele>273.00000</ele>
        <time>2019-10-07T14:54:36Z</time>
      </trkpt>
      <trkpt lat="41.56285542" lon="1.634405320">
        <ele>274.00000</ele>
        <time>2019-10-07T14:54:38Z</time>
      </trkpt>
      <trkpt lat="41.56277370" lon="1.634378163">
        <ele>274.00000</ele>
        <time>2019-10-07T14:54:40Z</time>
      </trkpt>
      <trkpt lat="41.56270405" lon="1.634309263">
        <ele>275.00000</ele>
        <time>2019-10-07T14:54:42Z</time>
      </trkpt>
      <trkpt lat="41.56263951" lon="1.634233742">
        <ele>275.00000</ele>
        <time>2019-10-07T14:54:44Z</time>
      </trkpt>
      <trkpt lat="41.56248578" lon="1.634047329">
        <ele>275.00000</ele>
        <time>2019-10-07T14:54:49Z</time>
      </trkpt>
      <trkpt lat="41.56239274" lon="1.633929060">
        <ele>275.00000</ele>
        <time>2019-10-07T14:54:52Z</time>
      </trkpt>
      <trkpt lat="41.56228529" lon="1.633725212">
        <ele>274.00000</ele>
        <time>2019-10-07T14:54:55Z</time>
      </trkpt>
      <trkpt lat="41.56225034" lon="1.633635945">
        <ele>273.00000</ele>
        <time>2019-10-07T14:54:56Z</time>
      </trkpt>
      <trkpt lat="41.56218253" lon="1.633447688">
        <ele>271.00000</ele>
        <time>2019-10-07T14:54:58Z</time>
      </trkpt>
      <trkpt lat="41.56214196" lon="1.633376358">
        <ele>271.00000</ele>
        <time>2019-10-07T14:54:59Z</time>
      </trkpt>
      <trkpt lat="41.56209418" lon="1.633325312">
        <ele>270.00000</ele>
        <time>2019-10-07T14:55:00Z</time>
      </trkpt>
      <trkpt lat="41.56198723" lon="1.633283738">
        <ele>270.00000</ele>
        <time>2019-10-07T14:55:02Z</time>
      </trkpt>
      <trkpt lat="41.56183275" lon="1.633290024">
        <ele>271.00000</ele>
        <time>2019-10-07T14:55:05Z</time>
      </trkpt>
      <trkpt lat="41.56178346" lon="1.633289940">
        <ele>271.00000</ele>
        <time>2019-10-07T14:55:06Z</time>
      </trkpt>
      <trkpt lat="41.56163586" lon="1.633309805">
        <ele>272.00000</ele>
        <time>2019-10-07T14:55:09Z</time>
      </trkpt>
      <trkpt lat="41.56158934" lon="1.633328329">
        <ele>272.00000</ele>
        <time>2019-10-07T14:55:10Z</time>
      </trkpt>
      <trkpt lat="41.56149588" lon="1.633375519">
        <ele>272.00000</ele>
        <time>2019-10-07T14:55:12Z</time>
      </trkpt>
      <trkpt lat="41.56140804" lon="1.633427152">
        <ele>272.00000</ele>
        <time>2019-10-07T14:55:14Z</time>
      </trkpt>
      <trkpt lat="41.56124258" lon="1.633370490">
        <ele>273.00000</ele>
        <time>2019-10-07T14:55:18Z</time>
      </trkpt>
      <trkpt lat="41.56118365" lon="1.633275188">
        <ele>273.00000</ele>
        <time>2019-10-07T14:55:20Z</time>
      </trkpt>
      <trkpt lat="41.56117075" lon="1.633148370">
        <ele>273.00000</ele>
        <time>2019-10-07T14:55:22Z</time>
      </trkpt>
      <trkpt lat="41.56115692" lon="1.633091624">
        <ele>274.00000</ele>
        <time>2019-10-07T14:55:23Z</time>
      </trkpt>
      <trkpt lat="41.56114166" lon="1.633038651">
        <ele>274.00000</ele>
        <time>2019-10-07T14:55:24Z</time>
      </trkpt>
      <trkpt lat="41.56112205" lon="1.632921891">
        <ele>275.00000</ele>
        <time>2019-10-07T14:55:26Z</time>
      </trkpt>
      <trkpt lat="41.56111048" lon="1.632859278">
        <ele>275.00000</ele>
        <time>2019-10-07T14:55:27Z</time>
      </trkpt>
      <trkpt lat="41.56106295" lon="1.632681498">
        <ele>276.00000</ele>
        <time>2019-10-07T14:55:30Z</time>
      </trkpt>
      <trkpt lat="41.56098769" lon="1.632529534">
        <ele>275.00000</ele>
        <time>2019-10-07T14:55:33Z</time>
      </trkpt>
      <trkpt lat="41.56095139" lon="1.632424928">
        <ele>276.00000</ele>
        <time>2019-10-07T14:55:35Z</time>
      </trkpt>
      <trkpt lat="41.56093664" lon="1.632239436">
        <ele>276.00000</ele>
        <time>2019-10-07T14:55:38Z</time>
      </trkpt>
      <trkpt lat="41.56084838" lon="1.631937688">
        <ele>276.00000</ele>
        <time>2019-10-07T14:55:42Z</time>
      </trkpt>
      <trkpt lat="41.56075324" lon="1.631702827">
        <ele>275.00000</ele>
        <time>2019-10-07T14:55:45Z</time>
      </trkpt>
      <trkpt lat="41.56060849" lon="1.631427649">
        <ele>275.00000</ele>
        <time>2019-10-07T14:55:49Z</time>
      </trkpt>
      <trkpt lat="41.56041311" lon="1.631171749">
        <ele>276.00000</ele>
        <time>2019-10-07T14:55:54Z</time>
      </trkpt>
      <trkpt lat="41.56037363" lon="1.631128331">
        <ele>276.00000</ele>
        <time>2019-10-07T14:55:55Z</time>
      </trkpt>
      <trkpt lat="41.56027003" lon="1.630996735">
        <ele>275.00000</ele>
        <time>2019-10-07T14:55:58Z</time>
      </trkpt>
      <trkpt lat="41.56019115" lon="1.630860529">
        <ele>277.00000</ele>
        <time>2019-10-07T14:56:01Z</time>
      </trkpt>
      <trkpt lat="41.56016509" lon="1.630814932">
        <ele>277.00000</ele>
        <time>2019-10-07T14:56:02Z</time>
      </trkpt>
      <trkpt lat="41.56014505" lon="1.630764640">
        <ele>277.00000</ele>
        <time>2019-10-07T14:56:03Z</time>
      </trkpt>
      <trkpt lat="41.56013282" lon="1.630580238">
        <ele>278.00000</ele>
        <time>2019-10-07T14:56:06Z</time>
      </trkpt>
      <trkpt lat="41.56020021" lon="1.630466161">
        <ele>279.00000</ele>
        <time>2019-10-07T14:56:08Z</time>
      </trkpt>
      <trkpt lat="41.56024304" lon="1.630422575">
        <ele>279.00000</ele>
        <time>2019-10-07T14:56:09Z</time>
      </trkpt>
      <trkpt lat="41.56029081" lon="1.630388628">
        <ele>280.00000</ele>
        <time>2019-10-07T14:56:10Z</time>
      </trkpt>
      <trkpt lat="41.56033767" lon="1.630356693">
        <ele>280.00000</ele>
        <time>2019-10-07T14:56:11Z</time>
      </trkpt>
      <trkpt lat="41.56048016" lon="1.630254182">
        <ele>281.00000</ele>
        <time>2019-10-07T14:56:14Z</time>
      </trkpt>
      <trkpt lat="41.56052735" lon="1.630220236">
        <ele>280.00000</ele>
        <time>2019-10-07T14:56:15Z</time>
      </trkpt>
      <trkpt lat="41.56067127" lon="1.630119821">
        <ele>281.00000</ele>
        <time>2019-10-07T14:56:18Z</time>
      </trkpt>
      <trkpt lat="41.56091409" lon="1.629885798">
        <ele>281.00000</ele>
        <time>2019-10-07T14:56:24Z</time>
      </trkpt>
      <trkpt lat="41.56094293" lon="1.629840703">
        <ele>282.00000</ele>
        <time>2019-10-07T14:56:25Z</time>
      </trkpt>
      <trkpt lat="41.56102775" lon="1.629547672">
        <ele>282.00000</ele>
        <time>2019-10-07T14:56:30Z</time>
      </trkpt>
      <trkpt lat="41.56103102" lon="1.629478270">
        <ele>282.00000</ele>
        <time>2019-10-07T14:56:31Z</time>
      </trkpt>
      <trkpt lat="41.56104695" lon="1.629258245">
        <ele>281.00000</ele>
        <time>2019-10-07T14:56:34Z</time>
      </trkpt>
      <trkpt lat="41.56106262" lon="1.629113238">
        <ele>281.00000</ele>
        <time>2019-10-07T14:56:36Z</time>
      </trkpt>
      <trkpt lat="41.56105625" lon="1.629042159">
        <ele>280.00000</ele>
        <time>2019-10-07T14:56:37Z</time>
      </trkpt>
      <trkpt lat="41.56103102" lon="1.628898074">
        <ele>280.00000</ele>
        <time>2019-10-07T14:56:39Z</time>
      </trkpt>
      <trkpt lat="41.56098534" lon="1.628751810">
        <ele>279.00000</ele>
        <time>2019-10-07T14:56:41Z</time>
      </trkpt>
      <trkpt lat="41.56094821" lon="1.628593225">
        <ele>278.00000</ele>
        <time>2019-10-07T14:56:43Z</time>
      </trkpt>
      <trkpt lat="41.56093354" lon="1.628512842">
        <ele>279.00000</ele>
        <time>2019-10-07T14:56:44Z</time>
      </trkpt>
      <trkpt lat="41.56089507" lon="1.628270773">
        <ele>279.00000</ele>
        <time>2019-10-07T14:56:47Z</time>
      </trkpt>
      <trkpt lat="41.56077671" lon="1.627984531">
        <ele>279.00000</ele>
        <time>2019-10-07T14:56:51Z</time>
      </trkpt>
      <trkpt lat="41.56062047" lon="1.627729218">
        <ele>278.00000</ele>
        <time>2019-10-07T14:56:55Z</time>
      </trkpt>
      <trkpt lat="41.56058703" lon="1.627659061">
        <ele>278.00000</ele>
        <time>2019-10-07T14:56:56Z</time>
      </trkpt>
      <trkpt lat="41.56055023" lon="1.627592341">
        <ele>278.00000</ele>
        <time>2019-10-07T14:56:57Z</time>
      </trkpt>
      <trkpt lat="41.56034940" lon="1.627286402">
        <ele>279.00000</ele>
        <time>2019-10-07T14:57:02Z</time>
      </trkpt>
      <trkpt lat="41.56016173" lon="1.627003345">
        <ele>280.00000</ele>
        <time>2019-10-07T14:57:07Z</time>
      </trkpt>
      <trkpt lat="41.56012477" lon="1.626945678">
        <ele>280.00000</ele>
        <time>2019-10-07T14:57:08Z</time>
      </trkpt>
      <trkpt lat="41.55988295" lon="1.626571677">
        <ele>281.00000</ele>
        <time>2019-10-07T14:57:15Z</time>
      </trkpt>
      <trkpt lat="41.55984900" lon="1.626520212">
        <ele>281.00000</ele>
        <time>2019-10-07T14:57:16Z</time>
      </trkpt>
      <trkpt lat="41.55977759" lon="1.626424491">
        <ele>281.00000</ele>
        <time>2019-10-07T14:57:18Z</time>
      </trkpt>
      <trkpt lat="41.55969637" lon="1.626344528">
        <ele>282.00000</ele>
        <time>2019-10-07T14:57:20Z</time>
      </trkpt>
      <trkpt lat="41.55964918" lon="1.626316783">
        <ele>282.00000</ele>
        <time>2019-10-07T14:57:21Z</time>
      </trkpt>
      <trkpt lat="41.55950266" lon="1.626274455">
        <ele>282.00000</ele>
        <time>2019-10-07T14:57:24Z</time>
      </trkpt>
      <trkpt lat="41.55945606" lon="1.626251656">
        <ele>283.00000</ele>
        <time>2019-10-07T14:57:25Z</time>
      </trkpt>
      <trkpt lat="41.55935003" lon="1.626144787">
        <ele>283.00000</ele>
        <time>2019-10-07T14:57:28Z</time>
      </trkpt>
      <trkpt lat="41.55932874" lon="1.626089466">
        <ele>283.00000</ele>
        <time>2019-10-07T14:57:29Z</time>
      </trkpt>
      <trkpt lat="41.55930577" lon="1.625941693">
        <ele>282.00000</ele>
        <time>2019-10-07T14:57:31Z</time>
      </trkpt>
      <trkpt lat="41.55930066" lon="1.625870699">
        <ele>282.00000</ele>
        <time>2019-10-07T14:57:32Z</time>
      </trkpt>
      <trkpt lat="41.55930175" lon="1.625803224">
        <ele>282.00000</ele>
        <time>2019-10-07T14:57:33Z</time>
      </trkpt>
      <trkpt lat="41.55928029" lon="1.625612452">
        <ele>283.00000</ele>
        <time>2019-10-07T14:57:36Z</time>
      </trkpt>
      <trkpt lat="41.55926898" lon="1.625552773">
        <ele>283.00000</ele>
        <time>2019-10-07T14:57:37Z</time>
      </trkpt>
      <trkpt lat="41.55923788" lon="1.625438025">
        <ele>284.00000</ele>
        <time>2019-10-07T14:57:39Z</time>
      </trkpt>
      <trkpt lat="41.55921449" lon="1.625323444">
        <ele>284.00000</ele>
        <time>2019-10-07T14:57:41Z</time>
      </trkpt>
      <trkpt lat="41.55919731" lon="1.625203918">
        <ele>284.00000</ele>
        <time>2019-10-07T14:57:43Z</time>
      </trkpt>
      <trkpt lat="41.55913202" lon="1.624866295">
        <ele>284.00000</ele>
        <time>2019-10-07T14:57:49Z</time>
      </trkpt>
      <trkpt lat="41.55911374" lon="1.624811477">
        <ele>285.00000</ele>
        <time>2019-10-07T14:57:50Z</time>
      </trkpt>
      <trkpt lat="41.55906748" lon="1.624707039">
        <ele>285.00000</ele>
        <time>2019-10-07T14:57:52Z</time>
      </trkpt>
      <trkpt lat="41.55904535" lon="1.624651970">
        <ele>285.00000</ele>
        <time>2019-10-07T14:57:53Z</time>
      </trkpt>
      <trkpt lat="41.55900260" lon="1.624540574">
        <ele>286.00000</ele>
        <time>2019-10-07T14:57:55Z</time>
      </trkpt>
      <trkpt lat="41.55891601" lon="1.624323735">
        <ele>286.00000</ele>
        <time>2019-10-07T14:57:59Z</time>
      </trkpt>
      <trkpt lat="41.55889171" lon="1.624270593">
        <ele>287.00000</ele>
        <time>2019-10-07T14:58:00Z</time>
      </trkpt>
      <trkpt lat="41.55883681" lon="1.624157773">
        <ele>287.00000</ele>
        <time>2019-10-07T14:58:02Z</time>
      </trkpt>
      <trkpt lat="41.55875240" lon="1.623968090">
        <ele>286.00000</ele>
        <time>2019-10-07T14:58:05Z</time>
      </trkpt>
      <trkpt lat="41.55869666" lon="1.623768182">
        <ele>286.00000</ele>
        <time>2019-10-07T14:58:08Z</time>
      </trkpt>
      <trkpt lat="41.55865123" lon="1.623647231">
        <ele>286.00000</ele>
        <time>2019-10-07T14:58:10Z</time>
      </trkpt>
      <trkpt lat="41.55856255" lon="1.623471044">
        <ele>287.00000</ele>
        <time>2019-10-07T14:58:13Z</time>
      </trkpt>
      <trkpt lat="41.55849415" lon="1.623384794">
        <ele>288.00000</ele>
        <time>2019-10-07T14:58:15Z</time>
      </trkpt>
      <trkpt lat="41.55843213" lon="1.623307513">
        <ele>289.00000</ele>
        <time>2019-10-07T14:58:17Z</time>
      </trkpt>
      <trkpt lat="41.55841226" lon="1.623262334">
        <ele>289.00000</ele>
        <time>2019-10-07T14:58:18Z</time>
      </trkpt>
      <trkpt lat="41.55839022" lon="1.623166194">
        <ele>290.00000</ele>
        <time>2019-10-07T14:58:20Z</time>
      </trkpt>
      <trkpt lat="41.55836155" lon="1.623041471">
        <ele>291.00000</ele>
        <time>2019-10-07T14:58:23Z</time>
      </trkpt>
      <trkpt lat="41.55833431" lon="1.622948432">
        <ele>292.00000</ele>
        <time>2019-10-07T14:58:25Z</time>
      </trkpt>
      <trkpt lat="41.55829005" lon="1.622837539">
        <ele>292.00000</ele>
        <time>2019-10-07T14:58:27Z</time>
      </trkpt>
      <trkpt lat="41.55823892" lon="1.622643833">
        <ele>292.00000</ele>
        <time>2019-10-07T14:58:30Z</time>
      </trkpt>
      <trkpt lat="41.55821244" lon="1.622511064">
        <ele>292.00000</ele>
        <time>2019-10-07T14:58:32Z</time>
      </trkpt>
      <trkpt lat="41.55806693" lon="1.622072942">
        <ele>292.00000</ele>
        <time>2019-10-07T14:58:39Z</time>
      </trkpt>
      <trkpt lat="41.55802150" lon="1.621958864">
        <ele>292.00000</ele>
        <time>2019-10-07T14:58:41Z</time>
      </trkpt>
      <trkpt lat="41.55794195" lon="1.621753089">
        <ele>293.00000</ele>
        <time>2019-10-07T14:58:45Z</time>
      </trkpt>
      <trkpt lat="41.55792376" lon="1.621702965">
        <ele>294.00000</ele>
        <time>2019-10-07T14:58:46Z</time>
      </trkpt>
      <trkpt lat="41.55786157" lon="1.621528118">
        <ele>295.00000</ele>
        <time>2019-10-07T14:58:50Z</time>
      </trkpt>
      <trkpt lat="41.55784565" lon="1.621484532">
        <ele>296.00000</ele>
        <time>2019-10-07T14:58:51Z</time>
      </trkpt>
      <trkpt lat="41.55783290" lon="1.621437761">
        <ele>296.00000</ele>
        <time>2019-10-07T14:58:52Z</time>
      </trkpt>
      <trkpt lat="41.55780918" lon="1.621336676">
        <ele>296.00000</ele>
        <time>2019-10-07T14:58:54Z</time>
      </trkpt>
      <trkpt lat="41.55774590" lon="1.621138527">
        <ele>297.00000</ele>
        <time>2019-10-07T14:58:58Z</time>
      </trkpt>
      <trkpt lat="41.55768429" lon="1.621009027">
        <ele>297.00000</ele>
        <time>2019-10-07T14:59:01Z</time>
      </trkpt>
      <trkpt lat="41.55762688" lon="1.620943564">
        <ele>298.00000</ele>
        <time>2019-10-07T14:59:03Z</time>
      </trkpt>
      <trkpt lat="41.55756753" lon="1.620888663">
        <ele>298.00000</ele>
        <time>2019-10-07T14:59:05Z</time>
      </trkpt>
      <trkpt lat="41.55746879" lon="1.620849100">
        <ele>299.00000</ele>
        <time>2019-10-07T14:59:08Z</time>
      </trkpt>
      <trkpt lat="41.55743728" lon="1.620850525">
        <ele>299.00000</ele>
        <time>2019-10-07T14:59:09Z</time>
      </trkpt>
      <trkpt lat="41.55730577" lon="1.620851112">
        <ele>301.00000</ele>
        <time>2019-10-07T14:59:13Z</time>
      </trkpt>
      <trkpt lat="41.55722589" lon="1.620826805">
        <ele>302.00000</ele>
        <time>2019-10-07T14:59:16Z</time>
      </trkpt>
      <trkpt lat="41.55716554" lon="1.620812304">
        <ele>302.00000</ele>
        <time>2019-10-07T14:59:18Z</time>
      </trkpt>
      <trkpt lat="41.55701919" lon="1.620709626">
        <ele>303.00000</ele>
        <time>2019-10-07T14:59:23Z</time>
      </trkpt>
      <trkpt lat="41.55695867" lon="1.620606025">
        <ele>304.00000</ele>
        <time>2019-10-07T14:59:26Z</time>
      </trkpt>
      <trkpt lat="41.55691450" lon="1.620496893">
        <ele>305.00000</ele>
        <time>2019-10-07T14:59:29Z</time>
      </trkpt>
      <trkpt lat="41.55690561" lon="1.620459929">
        <ele>305.00000</ele>
        <time>2019-10-07T14:59:30Z</time>
      </trkpt>
      <trkpt lat="41.55683294" lon="1.620323555">
        <ele>306.00000</ele>
        <time>2019-10-07T14:59:34Z</time>
      </trkpt>
      <trkpt lat="41.55680696" lon="1.620295727">
        <ele>307.00000</ele>
        <time>2019-10-07T14:59:35Z</time>
      </trkpt>
      <trkpt lat="41.55664435" lon="1.620202604">
        <ele>306.00000</ele>
        <time>2019-10-07T14:59:40Z</time>
      </trkpt>
      <trkpt lat="41.55641628" lon="1.620267396">
        <ele>306.00000</ele>
        <time>2019-10-07T14:59:46Z</time>
      </trkpt>
      <trkpt lat="41.55623305" lon="1.620305534">
        <ele>308.00000</ele>
        <time>2019-10-07T14:59:51Z</time>
      </trkpt>
      <trkpt lat="41.55617413" lon="1.620292542">
        <ele>308.00000</ele>
        <time>2019-10-07T14:59:53Z</time>
      </trkpt>
      <trkpt lat="41.55612249" lon="1.620282400">
        <ele>309.00000</ele>
        <time>2019-10-07T14:59:55Z</time>
      </trkpt>
      <trkpt lat="41.55609534" lon="1.620294051">
        <ele>309.00000</ele>
        <time>2019-10-07T14:59:56Z</time>
      </trkpt>
      <trkpt lat="41.55607178" lon="1.620323220">
        <ele>310.00000</ele>
        <time>2019-10-07T14:59:57Z</time>
      </trkpt>
      <trkpt lat="41.55605209" lon="1.620361609">
        <ele>310.00000</ele>
        <time>2019-10-07T14:59:58Z</time>
      </trkpt>
      <trkpt lat="41.55602090" lon="1.620448278">
        <ele>310.00000</ele>
        <time>2019-10-07T15:00:00Z</time>
      </trkpt>
      <trkpt lat="41.55599953" lon="1.620540563">
        <ele>311.00000</ele>
        <time>2019-10-07T15:00:02Z</time>
      </trkpt>
      <trkpt lat="41.55600079" lon="1.620586998">
        <ele>311.00000</ele>
        <time>2019-10-07T15:00:03Z</time>
      </trkpt>
      <trkpt lat="41.55602166" lon="1.620690347">
        <ele>311.00000</ele>
        <time>2019-10-07T15:00:05Z</time>
      </trkpt>
      <trkpt lat="41.55604429" lon="1.620750781">
        <ele>311.00000</ele>
        <time>2019-10-07T15:00:06Z</time>
      </trkpt>
      <trkpt lat="41.55616356" lon="1.621023360">
        <ele>310.00000</ele>
        <time>2019-10-07T15:00:10Z</time>
      </trkpt>
      <trkpt lat="41.55623146" lon="1.621165014">
        <ele>309.00000</ele>
        <time>2019-10-07T15:00:12Z</time>
      </trkpt>
      <trkpt lat="41.55626130" lon="1.621242882">
        <ele>309.00000</ele>
        <time>2019-10-07T15:00:13Z</time>
      </trkpt>
      <trkpt lat="41.55628602" lon="1.621415466">
        <ele>309.00000</ele>
        <time>2019-10-07T15:00:15Z</time>
      </trkpt>
      <trkpt lat="41.55626297" lon="1.621606908">
        <ele>308.00000</ele>
        <time>2019-10-07T15:00:17Z</time>
      </trkpt>
      <trkpt lat="41.55624780" lon="1.621711011">
        <ele>307.00000</ele>
        <time>2019-10-07T15:00:18Z</time>
      </trkpt>
      <trkpt lat="41.55623498" lon="1.621817294">
        <ele>307.00000</ele>
        <time>2019-10-07T15:00:19Z</time>
      </trkpt>
      <trkpt lat="41.55623087" lon="1.621923912">
        <ele>307.00000</ele>
        <time>2019-10-07T15:00:20Z</time>
      </trkpt>
      <trkpt lat="41.55623909" lon="1.622028853">
        <ele>306.00000</ele>
        <time>2019-10-07T15:00:21Z</time>
      </trkpt>
      <trkpt lat="41.55625996" lon="1.622241334">
        <ele>305.00000</ele>
        <time>2019-10-07T15:00:23Z</time>
      </trkpt>
      <trkpt lat="41.55627848" lon="1.622454905">
        <ele>305.00000</ele>
        <time>2019-10-07T15:00:25Z</time>
      </trkpt>
      <trkpt lat="41.55630631" lon="1.622770400">
        <ele>304.00000</ele>
        <time>2019-10-07T15:00:28Z</time>
      </trkpt>
      <trkpt lat="41.55626046" lon="1.622931165">
        <ele>303.00000</ele>
        <time>2019-10-07T15:00:30Z</time>
      </trkpt>
      <trkpt lat="41.55622308" lon="1.622996544">
        <ele>302.00000</ele>
        <time>2019-10-07T15:00:31Z</time>
      </trkpt>
      <trkpt lat="41.55607815" lon="1.623138198">
        <ele>302.00000</ele>
        <time>2019-10-07T15:00:34Z</time>
      </trkpt>
      <trkpt lat="41.55603474" lon="1.623179689">
        <ele>303.00000</ele>
        <time>2019-10-07T15:00:35Z</time>
      </trkpt>
      <trkpt lat="41.55599710" lon="1.623224951">
        <ele>303.00000</ele>
        <time>2019-10-07T15:00:36Z</time>
      </trkpt>
      <trkpt lat="41.55596483" lon="1.623267866">
        <ele>304.00000</ele>
        <time>2019-10-07T15:00:37Z</time>
      </trkpt>
      <trkpt lat="41.55591320" lon="1.623343974">
        <ele>305.00000</ele>
        <time>2019-10-07T15:00:39Z</time>
      </trkpt>
      <trkpt lat="41.55586869" lon="1.623397283">
        <ele>307.00000</ele>
        <time>2019-10-07T15:00:41Z</time>
      </trkpt>
      <trkpt lat="41.55580884" lon="1.623419076">
        <ele>308.00000</ele>
        <time>2019-10-07T15:00:43Z</time>
      </trkpt>
      <trkpt lat="41.55574606" lon="1.623422931">
        <ele>309.00000</ele>
        <time>2019-10-07T15:00:45Z</time>
      </trkpt>
      <trkpt lat="41.55565319" lon="1.623435672">
        <ele>311.00000</ele>
        <time>2019-10-07T15:00:48Z</time>
      </trkpt>
      <trkpt lat="41.55554800" lon="1.623496441">
        <ele>312.00000</ele>
        <time>2019-10-07T15:00:52Z</time>
      </trkpt>
      <trkpt lat="41.55552176" lon="1.623511863">
        <ele>312.00000</ele>
        <time>2019-10-07T15:00:53Z</time>
      </trkpt>
      <trkpt lat="41.55544683" lon="1.623559053">
        <ele>313.00000</ele>
        <time>2019-10-07T15:00:56Z</time>
      </trkpt>
      <trkpt lat="41.55535052" lon="1.623616218">
        <ele>315.00000</ele>
        <time>2019-10-07T15:01:00Z</time>
      </trkpt>
      <trkpt lat="41.55527651" lon="1.623654356">
        <ele>316.00000</ele>
        <time>2019-10-07T15:01:03Z</time>
      </trkpt>
      <trkpt lat="41.55523426" lon="1.623688219">
        <ele>316.00000</ele>
        <time>2019-10-07T15:01:05Z</time>
      </trkpt>
      <trkpt lat="41.55521884" lon="1.623720573">
        <ele>317.00000</ele>
        <time>2019-10-07T15:01:06Z</time>
      </trkpt>
      <trkpt lat="41.55521356" lon="1.623759213">
        <ele>317.00000</ele>
        <time>2019-10-07T15:01:07Z</time>
      </trkpt>
      <trkpt lat="41.55522236" lon="1.623821407">
        <ele>317.00000</ele>
        <time>2019-10-07T15:01:09Z</time>
      </trkpt>
      <trkpt lat="41.55526201" lon="1.623900113">
        <ele>317.00000</ele>
        <time>2019-10-07T15:01:11Z</time>
      </trkpt>
      <trkpt lat="41.55530484" lon="1.623997930">
        <ele>317.00000</ele>
        <time>2019-10-07T15:01:13Z</time>
      </trkpt>
      <trkpt lat="41.55532915" lon="1.624045120">
        <ele>317.00000</ele>
        <time>2019-10-07T15:01:14Z</time>
      </trkpt>
      <trkpt lat="41.55538832" lon="1.624183338">
        <ele>318.00000</ele>
        <time>2019-10-07T15:01:17Z</time>
      </trkpt>
      <trkpt lat="41.55539997" lon="1.624229187">
        <ele>318.00000</ele>
        <time>2019-10-07T15:01:18Z</time>
      </trkpt>
      <trkpt lat="41.55539654" lon="1.624371428">
        <ele>319.00000</ele>
        <time>2019-10-07T15:01:21Z</time>
      </trkpt>
      <trkpt lat="41.55538170" lon="1.624485338">
        <ele>321.00000</ele>
        <time>2019-10-07T15:01:24Z</time>
      </trkpt>
      <trkpt lat="41.55538556" lon="1.624553399">
        <ele>321.00000</ele>
        <time>2019-10-07T15:01:26Z</time>
      </trkpt>
      <trkpt lat="41.55538732" lon="1.624590111">
        <ele>322.00000</ele>
        <time>2019-10-07T15:01:27Z</time>
      </trkpt>
      <trkpt lat="41.55543099" lon="1.624716259">
        <ele>322.00000</ele>
        <time>2019-10-07T15:01:30Z</time>
      </trkpt>
      <trkpt lat="41.55546158" lon="1.624764623">
        <ele>322.00000</ele>
        <time>2019-10-07T15:01:31Z</time>
      </trkpt>
      <trkpt lat="41.55549201" lon="1.624819608">
        <ele>322.00000</ele>
        <time>2019-10-07T15:01:32Z</time>
      </trkpt>
      <trkpt lat="41.55554791" lon="1.625024545">
        <ele>321.00000</ele>
        <time>2019-10-07T15:01:35Z</time>
      </trkpt>
      <trkpt lat="41.55558999" lon="1.625394774">
        <ele>322.00000</ele>
        <time>2019-10-07T15:01:41Z</time>
      </trkpt>
      <trkpt lat="41.55558127" lon="1.625459399">
        <ele>323.00000</ele>
        <time>2019-10-07T15:01:42Z</time>
      </trkpt>
      <trkpt lat="41.55553224" lon="1.625769948">
        <ele>322.00000</ele>
        <time>2019-10-07T15:01:46Z</time>
      </trkpt>
      <trkpt lat="41.55551145" lon="1.625891737">
        <ele>322.00000</ele>
        <time>2019-10-07T15:01:48Z</time>
      </trkpt>
      <trkpt lat="41.55551933" lon="1.625992907">
        <ele>323.00000</ele>
        <time>2019-10-07T15:01:50Z</time>
      </trkpt>
      <trkpt lat="41.55557105" lon="1.626133471">
        <ele>324.00000</ele>
        <time>2019-10-07T15:01:53Z</time>
      </trkpt>
      <trkpt lat="41.55559695" lon="1.626184014">
        <ele>324.00000</ele>
        <time>2019-10-07T15:01:54Z</time>
      </trkpt>
      <trkpt lat="41.55572393" lon="1.626464724">
        <ele>324.00000</ele>
        <time>2019-10-07T15:01:59Z</time>
      </trkpt>
      <trkpt lat="41.55573584" lon="1.626523816">
        <ele>324.00000</ele>
        <time>2019-10-07T15:02:00Z</time>
      </trkpt>
      <trkpt lat="41.55574179" lon="1.626656921">
        <ele>325.00000</ele>
        <time>2019-10-07T15:02:03Z</time>
      </trkpt>
      <trkpt lat="41.55574833" lon="1.626690784">
        <ele>326.00000</ele>
        <time>2019-10-07T15:02:04Z</time>
      </trkpt>
      <trkpt lat="41.55575771" lon="1.626761779">
        <ele>327.00000</ele>
        <time>2019-10-07T15:02:06Z</time>
      </trkpt>
      <trkpt lat="41.55576316" lon="1.626830594">
        <ele>328.00000</ele>
        <time>2019-10-07T15:02:08Z</time>
      </trkpt>
      <trkpt lat="41.55576534" lon="1.626898823">
        <ele>329.00000</ele>
        <time>2019-10-07T15:02:10Z</time>
      </trkpt>
      <trkpt lat="41.55576811" lon="1.626940481">
        <ele>330.00000</ele>
        <time>2019-10-07T15:02:11Z</time>
      </trkpt>
      <trkpt lat="41.55578051" lon="1.627105772">
        <ele>331.00000</ele>
        <time>2019-10-07T15:02:15Z</time>
      </trkpt>
      <trkpt lat="41.55577196" lon="1.627215072">
        <ele>332.00000</ele>
        <time>2019-10-07T15:02:18Z</time>
      </trkpt>
      <trkpt lat="41.55574279" lon="1.627370221">
        <ele>333.00000</ele>
        <time>2019-10-07T15:02:22Z</time>
      </trkpt>
      <trkpt lat="41.55569032" lon="1.627641711">
        <ele>332.00000</ele>
        <time>2019-10-07T15:02:27Z</time>
      </trkpt>
      <trkpt lat="41.55568236" lon="1.627753945">
        <ele>332.00000</ele>
        <time>2019-10-07T15:02:29Z</time>
      </trkpt>
      <trkpt lat="41.55572268" lon="1.627828963">
        <ele>332.00000</ele>
        <time>2019-10-07T15:02:31Z</time>
      </trkpt>
      <trkpt lat="41.55574246" lon="1.627846229">
        <ele>333.00000</ele>
        <time>2019-10-07T15:02:32Z</time>
      </trkpt>
      <trkpt lat="41.55578185" lon="1.627882020">
        <ele>334.00000</ele>
        <time>2019-10-07T15:02:34Z</time>
      </trkpt>
      <trkpt lat="41.55582066" lon="1.627938095">
        <ele>335.00000</ele>
        <time>2019-10-07T15:02:36Z</time>
      </trkpt>
      <trkpt lat="41.55585788" lon="1.628105985">
        <ele>336.00000</ele>
        <time>2019-10-07T15:02:40Z</time>
      </trkpt>
      <trkpt lat="41.55585980" lon="1.628139344">
        <ele>336.00000</ele>
        <time>2019-10-07T15:02:41Z</time>
      </trkpt>
      <trkpt lat="41.55586919" lon="1.628249650">
        <ele>338.00000</ele>
        <time>2019-10-07T15:02:44Z</time>
      </trkpt>
      <trkpt lat="41.55585855" lon="1.628361130">
        <ele>339.00000</ele>
        <time>2019-10-07T15:02:47Z</time>
      </trkpt>
      <trkpt lat="41.55585209" lon="1.628400860">
        <ele>339.00000</ele>
        <time>2019-10-07T15:02:48Z</time>
      </trkpt>
      <trkpt lat="41.55584019" lon="1.628474788">
        <ele>339.00000</ele>
        <time>2019-10-07T15:02:50Z</time>
      </trkpt>
      <trkpt lat="41.55581706" lon="1.628543101">
        <ele>340.00000</ele>
        <time>2019-10-07T15:02:52Z</time>
      </trkpt>
      <trkpt lat="41.55579476" lon="1.628612754">
        <ele>340.00000</ele>
        <time>2019-10-07T15:02:54Z</time>
      </trkpt>
      <trkpt lat="41.55579476" lon="1.628782823">
        <ele>340.00000</ele>
        <time>2019-10-07T15:02:58Z</time>
      </trkpt>
      <trkpt lat="41.55587355" lon="1.628975355">
        <ele>340.00000</ele>
        <time>2019-10-07T15:03:02Z</time>
      </trkpt>
      <trkpt lat="41.55589442" lon="1.629133857">
        <ele>339.00000</ele>
        <time>2019-10-07T15:03:04Z</time>
      </trkpt>
      <trkpt lat="41.55590155" lon="1.629235194">
        <ele>338.00000</ele>
        <time>2019-10-07T15:03:05Z</time>
      </trkpt>
      <trkpt lat="41.55591320" lon="1.629340387">
        <ele>337.00000</ele>
        <time>2019-10-07T15:03:06Z</time>
      </trkpt>
      <trkpt lat="41.55593164" lon="1.629446418">
        <ele>336.00000</ele>
        <time>2019-10-07T15:03:07Z</time>
      </trkpt>
      <trkpt lat="41.55596064" lon="1.629545912">
        <ele>336.00000</ele>
        <time>2019-10-07T15:03:08Z</time>
      </trkpt>
      <trkpt lat="41.55602753" lon="1.629705084">
        <ele>336.00000</ele>
        <time>2019-10-07T15:03:10Z</time>
      </trkpt>
      <trkpt lat="41.55611352" lon="1.629824694">
        <ele>338.00000</ele>
        <time>2019-10-07T15:03:13Z</time>
      </trkpt>
      <trkpt lat="41.55613850" lon="1.629882697">
        <ele>339.00000</ele>
        <time>2019-10-07T15:03:15Z</time>
      </trkpt>
      <trkpt lat="41.55616390" lon="1.629984034">
        <ele>340.00000</ele>
        <time>2019-10-07T15:03:17Z</time>
      </trkpt>
      <trkpt lat="41.55623917" lon="1.630189642">
        <ele>339.00000</ele>
        <time>2019-10-07T15:03:21Z</time>
      </trkpt>
      <trkpt lat="41.55618846" lon="1.630275305">
        <ele>338.00000</ele>
        <time>2019-10-07T15:03:23Z</time>
      </trkpt>
      <trkpt lat="41.55613943" lon="1.630307072">
        <ele>337.00000</ele>
        <time>2019-10-07T15:03:24Z</time>
      </trkpt>
      <trkpt lat="41.55608721" lon="1.630338085">
        <ele>337.00000</ele>
        <time>2019-10-07T15:03:25Z</time>
      </trkpt>
      <trkpt lat="41.55604127" lon="1.630377229">
        <ele>336.00000</ele>
        <time>2019-10-07T15:03:26Z</time>
      </trkpt>
      <trkpt lat="41.55597715" lon="1.630489043">
        <ele>337.00000</ele>
        <time>2019-10-07T15:03:28Z</time>
      </trkpt>
      <trkpt lat="41.55600800" lon="1.630681324">
        <ele>337.00000</ele>
        <time>2019-10-07T15:03:31Z</time>
      </trkpt>
      <trkpt lat="41.55615292" lon="1.630802443">
        <ele>337.00000</ele>
        <time>2019-10-07T15:03:34Z</time>
      </trkpt>
      <trkpt lat="41.55620371" lon="1.630839072">
        <ele>337.00000</ele>
        <time>2019-10-07T15:03:35Z</time>
      </trkpt>
      <trkpt lat="41.55624873" lon="1.630881819">
        <ele>338.00000</ele>
        <time>2019-10-07T15:03:36Z</time>
      </trkpt>
      <trkpt lat="41.55628795" lon="1.631003776">
        <ele>338.00000</ele>
        <time>2019-10-07T15:03:38Z</time>
      </trkpt>
      <trkpt lat="41.55618988" lon="1.631172001">
        <ele>337.00000</ele>
        <time>2019-10-07T15:03:41Z</time>
      </trkpt>
      <trkpt lat="41.55613247" lon="1.631223382">
        <ele>337.00000</ele>
        <time>2019-10-07T15:03:42Z</time>
      </trkpt>
      <trkpt lat="41.55607664" lon="1.631279624">
        <ele>337.00000</ele>
        <time>2019-10-07T15:03:43Z</time>
      </trkpt>
      <trkpt lat="41.55591445" lon="1.631451873">
        <ele>337.00000</ele>
        <time>2019-10-07T15:03:46Z</time>
      </trkpt>
      <trkpt lat="41.55581806" lon="1.631543235">
        <ele>338.00000</ele>
        <time>2019-10-07T15:03:48Z</time>
      </trkpt>
      <trkpt lat="41.55572653" lon="1.631635436">
        <ele>338.00000</ele>
        <time>2019-10-07T15:03:50Z</time>
      </trkpt>
      <trkpt lat="41.55559896" lon="1.631848169">
        <ele>336.00000</ele>
        <time>2019-10-07T15:03:53Z</time>
      </trkpt>
      <trkpt lat="41.55556744" lon="1.631929306">
        <ele>336.00000</ele>
        <time>2019-10-07T15:03:54Z</time>
      </trkpt>
      <trkpt lat="41.55555915" lon="1.632062159">
        <ele>337.00000</ele>
        <time>2019-10-07T15:03:56Z</time>
      </trkpt>
      <trkpt lat="41.55562478" lon="1.632117228">
        <ele>338.00000</ele>
        <time>2019-10-07T15:03:59Z</time>
      </trkpt>
      <trkpt lat="41.55573558" lon="1.632073055">
        <ele>339.00000</ele>
        <time>2019-10-07T15:04:02Z</time>
      </trkpt>
      <trkpt lat="41.55577615" lon="1.632057549">
        <ele>339.00000</ele>
        <time>2019-10-07T15:04:03Z</time>
      </trkpt>
      <trkpt lat="41.55586249" lon="1.632028799">
        <ele>340.00000</ele>
        <time>2019-10-07T15:04:05Z</time>
      </trkpt>
      <trkpt lat="41.55597992" lon="1.632007341">
        <ele>339.00000</ele>
        <time>2019-10-07T15:04:07Z</time>
      </trkpt>
      <trkpt lat="41.55611495" lon="1.632007760">
        <ele>338.00000</ele>
        <time>2019-10-07T15:04:09Z</time>
      </trkpt>
      <trkpt lat="41.55624638" lon="1.632036007">
        <ele>337.00000</ele>
        <time>2019-10-07T15:04:11Z</time>
      </trkpt>
      <trkpt lat="41.55640035" lon="1.632106164">
        <ele>337.00000</ele>
        <time>2019-10-07T15:04:14Z</time>
      </trkpt>
      <trkpt lat="41.55643388" lon="1.632147487">
        <ele>338.00000</ele>
        <time>2019-10-07T15:04:15Z</time>
      </trkpt>
      <trkpt lat="41.55649482" lon="1.632350245">
        <ele>338.00000</ele>
        <time>2019-10-07T15:04:18Z</time>
      </trkpt>
      <trkpt lat="41.55652466" lon="1.632427945">
        <ele>337.00000</ele>
        <time>2019-10-07T15:04:19Z</time>
      </trkpt>
      <trkpt lat="41.55658978" lon="1.632592231">
        <ele>335.00000</ele>
        <time>2019-10-07T15:04:21Z</time>
      </trkpt>
      <trkpt lat="41.55662599" lon="1.632678564">
        <ele>335.00000</ele>
        <time>2019-10-07T15:04:22Z</time>
      </trkpt>
      <trkpt lat="41.55672021" lon="1.632848549">
        <ele>334.00000</ele>
        <time>2019-10-07T15:04:24Z</time>
      </trkpt>
      <trkpt lat="41.55676488" lon="1.632942091">
        <ele>334.00000</ele>
        <time>2019-10-07T15:04:25Z</time>
      </trkpt>
      <trkpt lat="41.55686454" lon="1.633099252">
        <ele>332.00000</ele>
        <time>2019-10-07T15:04:27Z</time>
      </trkpt>
      <trkpt lat="41.55692548" lon="1.633157422">
        <ele>331.00000</ele>
        <time>2019-10-07T15:04:28Z</time>
      </trkpt>
      <trkpt lat="41.55703880" lon="1.633250713">
        <ele>330.00000</ele>
        <time>2019-10-07T15:04:30Z</time>
      </trkpt>
      <trkpt lat="41.55708733" lon="1.633355068">
        <ele>328.00000</ele>
        <time>2019-10-07T15:04:32Z</time>
      </trkpt>
      <trkpt lat="41.55708583" lon="1.633482808">
        <ele>327.00000</ele>
        <time>2019-10-07T15:04:34Z</time>
      </trkpt>
      <trkpt lat="41.55707526" lon="1.633612476">
        <ele>327.00000</ele>
        <time>2019-10-07T15:04:36Z</time>
      </trkpt>
      <trkpt lat="41.55698558" lon="1.633767625">
        <ele>328.00000</ele>
        <time>2019-10-07T15:04:39Z</time>
      </trkpt>
      <trkpt lat="41.55687904" lon="1.633900394">
        <ele>327.00000</ele>
        <time>2019-10-07T15:04:41Z</time>
      </trkpt>
      <trkpt lat="41.55682297" lon="1.633967366">
        <ele>326.00000</ele>
        <time>2019-10-07T15:04:42Z</time>
      </trkpt>
      <trkpt lat="41.55676413" lon="1.634027883">
        <ele>325.00000</ele>
        <time>2019-10-07T15:04:43Z</time>
      </trkpt>
      <trkpt lat="41.55671250" lon="1.634078091">
        <ele>324.00000</ele>
        <time>2019-10-07T15:04:44Z</time>
      </trkpt>
      <trkpt lat="41.55667922" lon="1.634123856">
        <ele>323.00000</ele>
        <time>2019-10-07T15:04:45Z</time>
      </trkpt>
      <trkpt lat="41.55667117" lon="1.634176662">
        <ele>323.00000</ele>
        <time>2019-10-07T15:04:46Z</time>
      </trkpt>
      <trkpt lat="41.55668014" lon="1.634218487">
        <ele>322.00000</ele>
        <time>2019-10-07T15:04:47Z</time>
      </trkpt>
      <trkpt lat="41.55670587" lon="1.634244220">
        <ele>322.00000</ele>
        <time>2019-10-07T15:04:48Z</time>
      </trkpt>
      <trkpt lat="41.55680704" lon="1.634262995">
        <ele>320.00000</ele>
        <time>2019-10-07T15:04:50Z</time>
      </trkpt>
      <trkpt lat="41.55694325" lon="1.634287554">
        <ele>319.00000</ele>
        <time>2019-10-07T15:04:52Z</time>
      </trkpt>
      <trkpt lat="41.55711055" lon="1.634311107">
        <ele>317.00000</ele>
        <time>2019-10-07T15:04:54Z</time>
      </trkpt>
      <trkpt lat="41.55728833" lon="1.634330218">
        <ele>316.00000</ele>
        <time>2019-10-07T15:04:56Z</time>
      </trkpt>
      <trkpt lat="41.55738640" lon="1.634327284">
        <ele>315.00000</ele>
        <time>2019-10-07T15:04:57Z</time>
      </trkpt>
      <trkpt lat="41.55747827" lon="1.634323932">
        <ele>314.00000</ele>
        <time>2019-10-07T15:04:58Z</time>
      </trkpt>
      <trkpt lat="41.55756368" lon="1.634307419">
        <ele>313.00000</ele>
        <time>2019-10-07T15:04:59Z</time>
      </trkpt>
      <trkpt lat="41.55772235" lon="1.634261570">
        <ele>311.00000</ele>
        <time>2019-10-07T15:05:01Z</time>
      </trkpt>
      <trkpt lat="41.55779116" lon="1.634250422">
        <ele>311.00000</ele>
        <time>2019-10-07T15:05:02Z</time>
      </trkpt>
      <trkpt lat="41.55784556" lon="1.634251680">
        <ele>310.00000</ele>
        <time>2019-10-07T15:05:03Z</time>
      </trkpt>
      <trkpt lat="41.55792728" lon="1.634271042">
        <ele>309.00000</ele>
        <time>2019-10-07T15:05:05Z</time>
      </trkpt>
      <trkpt lat="41.55799174" lon="1.634325692">
        <ele>309.00000</ele>
        <time>2019-10-07T15:05:07Z</time>
      </trkpt>
      <trkpt lat="41.55803541" lon="1.634438177">
        <ele>308.00000</ele>
        <time>2019-10-07T15:05:09Z</time>
      </trkpt>
      <trkpt lat="41.55805561" lon="1.634508837">
        <ele>307.00000</ele>
        <time>2019-10-07T15:05:10Z</time>
      </trkpt>
      <trkpt lat="41.55810708" lon="1.634664908">
        <ele>307.00000</ele>
        <time>2019-10-07T15:05:12Z</time>
      </trkpt>
      <trkpt lat="41.55814463" lon="1.634747302">
        <ele>306.00000</ele>
        <time>2019-10-07T15:05:13Z</time>
      </trkpt>
      <trkpt lat="41.55822476" lon="1.634917957">
        <ele>305.00000</ele>
        <time>2019-10-07T15:05:15Z</time>
      </trkpt>
      <trkpt lat="41.55826885" lon="1.634991466">
        <ele>305.00000</ele>
        <time>2019-10-07T15:05:16Z</time>
      </trkpt>
      <trkpt lat="41.55830950" lon="1.635058019">
        <ele>304.00000</ele>
        <time>2019-10-07T15:05:17Z</time>
      </trkpt>
      <trkpt lat="41.55834009" lon="1.635131780">
        <ele>304.00000</ele>
        <time>2019-10-07T15:05:18Z</time>
      </trkpt>
      <trkpt lat="41.55836272" lon="1.635201014">
        <ele>303.00000</ele>
        <time>2019-10-07T15:05:19Z</time>
      </trkpt>
      <trkpt lat="41.55842995" lon="1.635322133">
        <ele>302.00000</ele>
        <time>2019-10-07T15:05:21Z</time>
      </trkpt>
      <trkpt lat="41.55848116" lon="1.635392373">
        <ele>301.00000</ele>
        <time>2019-10-07T15:05:22Z</time>
      </trkpt>
      <trkpt lat="41.55853782" lon="1.635484825">
        <ele>299.00000</ele>
        <time>2019-10-07T15:05:23Z</time>
      </trkpt>
      <trkpt lat="41.55859256" lon="1.635593287">
        <ele>298.00000</ele>
        <time>2019-10-07T15:05:24Z</time>
      </trkpt>
      <trkpt lat="41.55863455" lon="1.635706610">
        <ele>294.00000</ele>
        <time>2019-10-07T15:05:25Z</time>
      </trkpt>
      <trkpt lat="41.55867923" lon="1.635822029">
        <ele>292.00000</ele>
        <time>2019-10-07T15:05:26Z</time>
      </trkpt>
      <trkpt lat="41.55872616" lon="1.635939544">
        <ele>290.00000</ele>
        <time>2019-10-07T15:05:27Z</time>
      </trkpt>
      <trkpt lat="41.55881199" lon="1.636169794">
        <ele>289.00000</ele>
        <time>2019-10-07T15:05:29Z</time>
      </trkpt>
      <trkpt lat="41.55889204" lon="1.636394094">
        <ele>288.00000</ele>
        <time>2019-10-07T15:05:31Z</time>
      </trkpt>
      <trkpt lat="41.55893060" lon="1.636507669">
        <ele>287.00000</ele>
        <time>2019-10-07T15:05:32Z</time>
      </trkpt>
      <trkpt lat="41.55896664" lon="1.636619148">
        <ele>286.00000</ele>
        <time>2019-10-07T15:05:33Z</time>
      </trkpt>
      <trkpt lat="41.55902288" lon="1.636816291">
        <ele>285.00000</ele>
        <time>2019-10-07T15:05:35Z</time>
      </trkpt>
      <trkpt lat="41.55904719" lon="1.636893320">
        <ele>286.00000</ele>
        <time>2019-10-07T15:05:36Z</time>
      </trkpt>
      <trkpt lat="41.55908172" lon="1.637016618">
        <ele>286.00000</ele>
        <time>2019-10-07T15:05:38Z</time>
      </trkpt>
      <trkpt lat="41.55907426" lon="1.637083757">
        <ele>285.00000</ele>
        <time>2019-10-07T15:05:39Z</time>
      </trkpt>
      <trkpt lat="41.55907024" lon="1.637295484">
        <ele>285.00000</ele>
        <time>2019-10-07T15:05:42Z</time>
      </trkpt>
      <trkpt lat="41.55907846" lon="1.637366646">
        <ele>285.00000</ele>
        <time>2019-10-07T15:05:43Z</time>
      </trkpt>
      <trkpt lat="41.55919790" lon="1.637911386">
        <ele>286.00000</ele>
        <time>2019-10-07T15:05:51Z</time>
      </trkpt>
      <trkpt lat="41.55921952" lon="1.638039126">
        <ele>286.00000</ele>
        <time>2019-10-07T15:05:53Z</time>
      </trkpt>
      <trkpt lat="41.55922547" lon="1.638154210">
        <ele>287.00000</ele>
        <time>2019-10-07T15:05:55Z</time>
      </trkpt>
      <trkpt lat="41.55921843" lon="1.638212967">
        <ele>287.00000</ele>
        <time>2019-10-07T15:05:56Z</time>
      </trkpt>
      <trkpt lat="41.55918809" lon="1.638404326">
        <ele>287.00000</ele>
        <time>2019-10-07T15:05:59Z</time>
      </trkpt>
      <trkpt lat="41.55923117" lon="1.638541286">
        <ele>287.00000</ele>
        <time>2019-10-07T15:06:01Z</time>
      </trkpt>
      <trkpt lat="41.55926319" lon="1.638622507">
        <ele>287.00000</ele>
        <time>2019-10-07T15:06:02Z</time>
      </trkpt>
      <trkpt lat="41.55937610" lon="1.638931715">
        <ele>285.00000</ele>
        <time>2019-10-07T15:06:05Z</time>
      </trkpt>
      <trkpt lat="41.55939965" lon="1.639051409">
        <ele>284.00000</ele>
        <time>2019-10-07T15:06:06Z</time>
      </trkpt>
      <trkpt lat="41.55941130" lon="1.639167247">
        <ele>283.00000</ele>
        <time>2019-10-07T15:06:07Z</time>
      </trkpt>
      <trkpt lat="41.55941180" lon="1.639282498">
        <ele>281.00000</ele>
        <time>2019-10-07T15:06:08Z</time>
      </trkpt>
      <trkpt lat="41.55942630" lon="1.639520879">
        <ele>279.00000</ele>
        <time>2019-10-07T15:06:10Z</time>
      </trkpt>
      <trkpt lat="41.55942739" lon="1.639742329">
        <ele>278.00000</ele>
        <time>2019-10-07T15:06:12Z</time>
      </trkpt>
      <trkpt lat="41.55938507" lon="1.639916002">
        <ele>279.00000</ele>
        <time>2019-10-07T15:06:14Z</time>
      </trkpt>
      <trkpt lat="41.55927107" lon="1.640095794">
        <ele>280.00000</ele>
        <time>2019-10-07T15:06:17Z</time>
      </trkpt>
      <trkpt lat="41.55923595" lon="1.640134602">
        <ele>281.00000</ele>
        <time>2019-10-07T15:06:18Z</time>
      </trkpt>
      <trkpt lat="41.55920645" lon="1.640165196">
        <ele>282.00000</ele>
        <time>2019-10-07T15:06:19Z</time>
      </trkpt>
      <trkpt lat="41.55915783" lon="1.640214063">
        <ele>283.00000</ele>
        <time>2019-10-07T15:06:21Z</time>
      </trkpt>
      <trkpt lat="41.55913654" lon="1.640245160">
        <ele>283.00000</ele>
        <time>2019-10-07T15:06:22Z</time>
      </trkpt>
      <trkpt lat="41.55911073" lon="1.640314310">
        <ele>284.00000</ele>
        <time>2019-10-07T15:06:24Z</time>
      </trkpt>
      <trkpt lat="41.55910880" lon="1.640384299">
        <ele>286.00000</ele>
        <time>2019-10-07T15:06:26Z</time>
      </trkpt>
      <trkpt lat="41.55913009" lon="1.640450600">
        <ele>287.00000</ele>
        <time>2019-10-07T15:06:28Z</time>
      </trkpt>
      <trkpt lat="41.55918122" lon="1.640536934">
        <ele>288.00000</ele>
        <time>2019-10-07T15:06:31Z</time>
      </trkpt>
      <trkpt lat="41.55919496" lon="1.640604827">
        <ele>289.00000</ele>
        <time>2019-10-07T15:06:33Z</time>
      </trkpt>
      <trkpt lat="41.55918616" lon="1.640631398">
        <ele>289.00000</ele>
        <time>2019-10-07T15:06:34Z</time>
      </trkpt>
      <trkpt lat="41.55916982" lon="1.640650508">
        <ele>290.00000</ele>
        <time>2019-10-07T15:06:35Z</time>
      </trkpt>
      <trkpt lat="41.55912950" lon="1.640650592">
        <ele>291.00000</ele>
        <time>2019-10-07T15:06:37Z</time>
      </trkpt>
      <trkpt lat="41.55910888" lon="1.640642713">
        <ele>291.00000</ele>
        <time>2019-10-07T15:06:38Z</time>
      </trkpt>
      <trkpt lat="41.55908667" lon="1.640636008">
        <ele>292.00000</ele>
        <time>2019-10-07T15:06:39Z</time>
      </trkpt>
      <trkpt lat="41.55906437" lon="1.640632823">
        <ele>292.00000</ele>
        <time>2019-10-07T15:06:40Z</time>
      </trkpt>
      <trkpt lat="41.55902372" lon="1.640617819">
        <ele>293.00000</ele>
        <time>2019-10-07T15:06:42Z</time>
      </trkpt>
      <trkpt lat="41.55896413" lon="1.640597619">
        <ele>294.00000</ele>
        <time>2019-10-07T15:06:45Z</time>
      </trkpt>
      <trkpt lat="41.55888852" lon="1.640578089">
        <ele>295.00000</ele>
        <time>2019-10-07T15:06:49Z</time>
      </trkpt>
      <trkpt lat="41.55884770" lon="1.640572892">
        <ele>296.00000</ele>
        <time>2019-10-07T15:06:51Z</time>
      </trkpt>
      <trkpt lat="41.55873631" lon="1.640589404">
        <ele>298.00000</ele>
        <time>2019-10-07T15:06:56Z</time>
      </trkpt>
      <trkpt lat="41.55866908" lon="1.640626788">
        <ele>299.00000</ele>
        <time>2019-10-07T15:06:59Z</time>
      </trkpt>
      <trkpt lat="41.55859490" lon="1.640660986">
        <ele>299.00000</ele>
        <time>2019-10-07T15:07:02Z</time>
      </trkpt>
      <trkpt lat="41.55845409" lon="1.640684120">
        <ele>300.00000</ele>
        <time>2019-10-07T15:07:07Z</time>
      </trkpt>
      <trkpt lat="41.55844160" lon="1.640683365">
        <ele>300.00000</ele>
        <time>2019-10-07T15:07:09Z</time>
      </trkpt>
      <trkpt lat="41.55836943" lon="1.640687640">
        <ele>301.00000</ele>
        <time>2019-10-07T15:08:52Z</time>
      </trkpt>
      <trkpt lat="41.55833138" lon="1.640686383">
        <ele>301.00000</ele>
        <time>2019-10-07T15:08:53Z</time>
      </trkpt>
      <trkpt lat="41.55828796" lon="1.640676073">
        <ele>301.00000</ele>
        <time>2019-10-07T15:08:54Z</time>
      </trkpt>
      <trkpt lat="41.55818084" lon="1.640635756">
        <ele>302.00000</ele>
        <time>2019-10-07T15:08:57Z</time>
      </trkpt>
      <trkpt lat="41.55811470" lon="1.640623938">
        <ele>303.00000</ele>
        <time>2019-10-07T15:08:59Z</time>
      </trkpt>
      <trkpt lat="41.55794522" lon="1.640621507">
        <ele>304.00000</ele>
        <time>2019-10-07T15:09:03Z</time>
      </trkpt>
      <trkpt lat="41.55789879" lon="1.640623854">
        <ele>305.00000</ele>
        <time>2019-10-07T15:09:04Z</time>
      </trkpt>
      <trkpt lat="41.55764364" lon="1.640602564">
        <ele>306.00000</ele>
        <time>2019-10-07T15:09:10Z</time>
      </trkpt>
      <trkpt lat="41.55757986" lon="1.640642294">
        <ele>306.00000</ele>
        <time>2019-10-07T15:09:12Z</time>
      </trkpt>
      <trkpt lat="41.55756108" lon="1.640687892">
        <ele>306.00000</ele>
        <time>2019-10-07T15:09:13Z</time>
      </trkpt>
      <trkpt lat="41.55755915" lon="1.640782356">
        <ele>307.00000</ele>
        <time>2019-10-07T15:09:15Z</time>
      </trkpt>
      <trkpt lat="41.55757843" lon="1.640827031">
        <ele>307.00000</ele>
        <time>2019-10-07T15:09:16Z</time>
      </trkpt>
      <trkpt lat="41.55760022" lon="1.640867684">
        <ele>307.00000</ele>
        <time>2019-10-07T15:09:17Z</time>
      </trkpt>
      <trkpt lat="41.55766937" lon="1.640931637">
        <ele>307.00000</ele>
        <time>2019-10-07T15:09:19Z</time>
      </trkpt>
      <trkpt lat="41.55771464" lon="1.640962818">
        <ele>307.00000</ele>
        <time>2019-10-07T15:09:20Z</time>
      </trkpt>
      <trkpt lat="41.55775194" lon="1.641005398">
        <ele>306.00000</ele>
        <time>2019-10-07T15:09:21Z</time>
      </trkpt>
      <trkpt lat="41.55780382" lon="1.641124673">
        <ele>306.00000</ele>
        <time>2019-10-07T15:09:23Z</time>
      </trkpt>
      <trkpt lat="41.55784690" lon="1.641278229">
        <ele>305.00000</ele>
        <time>2019-10-07T15:09:25Z</time>
      </trkpt>
      <trkpt lat="41.55785436" lon="1.641359953">
        <ele>305.00000</ele>
        <time>2019-10-07T15:09:26Z</time>
      </trkpt>
      <trkpt lat="41.55785562" lon="1.641441425">
        <ele>304.00000</ele>
        <time>2019-10-07T15:09:27Z</time>
      </trkpt>
      <trkpt lat="41.55787255" lon="1.641694055">
        <ele>304.00000</ele>
        <time>2019-10-07T15:09:30Z</time>
      </trkpt>
      <trkpt lat="41.55788102" lon="1.641775779">
        <ele>304.00000</ele>
        <time>2019-10-07T15:09:31Z</time>
      </trkpt>
      <trkpt lat="41.55791966" lon="1.642092866">
        <ele>303.00000</ele>
        <time>2019-10-07T15:09:35Z</time>
      </trkpt>
      <trkpt lat="41.55793659" lon="1.642174255">
        <ele>303.00000</ele>
        <time>2019-10-07T15:09:36Z</time>
      </trkpt>
      <trkpt lat="41.55795520" lon="1.642253044">
        <ele>303.00000</ele>
        <time>2019-10-07T15:09:37Z</time>
      </trkpt>
      <trkpt lat="41.55798705" lon="1.642409199">
        <ele>302.00000</ele>
        <time>2019-10-07T15:09:39Z</time>
      </trkpt>
      <trkpt lat="41.55797137" lon="1.642618579">
        <ele>302.00000</ele>
        <time>2019-10-07T15:09:42Z</time>
      </trkpt>
      <trkpt lat="41.55795352" lon="1.642825948">
        <ele>302.00000</ele>
        <time>2019-10-07T15:09:45Z</time>
      </trkpt>
      <trkpt lat="41.55795268" lon="1.642897110">
        <ele>302.00000</ele>
        <time>2019-10-07T15:09:46Z</time>
      </trkpt>
      <trkpt lat="41.55795587" lon="1.643035830">
        <ele>303.00000</ele>
        <time>2019-10-07T15:09:48Z</time>
      </trkpt>
      <trkpt lat="41.55795738" lon="1.643107915">
        <ele>303.00000</ele>
        <time>2019-10-07T15:09:49Z</time>
      </trkpt>
      <trkpt lat="41.55795520" lon="1.643342860">
        <ele>303.00000</ele>
        <time>2019-10-07T15:09:52Z</time>
      </trkpt>
      <trkpt lat="41.55792242" lon="1.643801853">
        <ele>303.00000</ele>
        <time>2019-10-07T15:09:58Z</time>
      </trkpt>
      <trkpt lat="41.55791429" lon="1.643875278">
        <ele>303.00000</ele>
        <time>2019-10-07T15:09:59Z</time>
      </trkpt>
      <trkpt lat="41.55787155" lon="1.644235281">
        <ele>304.00000</ele>
        <time>2019-10-07T15:10:04Z</time>
      </trkpt>
      <trkpt lat="41.55786559" lon="1.644464526">
        <ele>304.00000</ele>
        <time>2019-10-07T15:10:07Z</time>
      </trkpt>
      <trkpt lat="41.55786744" lon="1.644613808">
        <ele>305.00000</ele>
        <time>2019-10-07T15:10:09Z</time>
      </trkpt>
      <trkpt lat="41.55786392" lon="1.644678516">
        <ele>305.00000</ele>
        <time>2019-10-07T15:10:10Z</time>
      </trkpt>
      <trkpt lat="41.55786149" lon="1.644739620">
        <ele>306.00000</ele>
        <time>2019-10-07T15:10:11Z</time>
      </trkpt>
      <trkpt lat="41.55785311" lon="1.644923016">
        <ele>307.00000</ele>
        <time>2019-10-07T15:10:14Z</time>
      </trkpt>
      <trkpt lat="41.55784062" lon="1.644980851">
        <ele>307.00000</ele>
        <time>2019-10-07T15:10:15Z</time>
      </trkpt>
      <trkpt lat="41.55779100" lon="1.645082188">
        <ele>308.00000</ele>
        <time>2019-10-07T15:10:17Z</time>
      </trkpt>
      <trkpt lat="41.55776090" lon="1.645129881">
        <ele>308.00000</ele>
        <time>2019-10-07T15:10:18Z</time>
      </trkpt>
      <trkpt lat="41.55770173" lon="1.645221160">
        <ele>309.00000</ele>
        <time>2019-10-07T15:10:20Z</time>
      </trkpt>
      <trkpt lat="41.55767264" lon="1.645270781">
        <ele>309.00000</ele>
        <time>2019-10-07T15:10:21Z</time>
      </trkpt>
      <trkpt lat="41.55760861" lon="1.645360970">
        <ele>310.00000</ele>
        <time>2019-10-07T15:10:23Z</time>
      </trkpt>
      <trkpt lat="41.55754842" lon="1.645440179">
        <ele>311.00000</ele>
        <time>2019-10-07T15:10:25Z</time>
      </trkpt>
      <trkpt lat="41.55744549" lon="1.645529279">
        <ele>311.00000</ele>
        <time>2019-10-07T15:10:28Z</time>
      </trkpt>
      <trkpt lat="41.55740761" lon="1.645556101">
        <ele>311.00000</ele>
        <time>2019-10-07T15:10:29Z</time>
      </trkpt>
      <trkpt lat="41.55732530" lon="1.645701443">
        <ele>311.00000</ele>
        <time>2019-10-07T15:10:32Z</time>
      </trkpt>
      <trkpt lat="41.55728506" lon="1.645932868">
        <ele>310.00000</ele>
        <time>2019-10-07T15:10:35Z</time>
      </trkpt>
      <trkpt lat="41.55727584" lon="1.646014591">
        <ele>310.00000</ele>
        <time>2019-10-07T15:10:36Z</time>
      </trkpt>
      <trkpt lat="41.55726972" lon="1.646092543">
        <ele>309.00000</ele>
        <time>2019-10-07T15:10:37Z</time>
      </trkpt>
      <trkpt lat="41.55726201" lon="1.646243166">
        <ele>310.00000</ele>
        <time>2019-10-07T15:10:39Z</time>
      </trkpt>
      <trkpt lat="41.55729252" lon="1.646372582">
        <ele>310.00000</ele>
        <time>2019-10-07T15:10:41Z</time>
      </trkpt>
      <trkpt lat="41.55732681" lon="1.646476434">
        <ele>311.00000</ele>
        <time>2019-10-07T15:10:43Z</time>
      </trkpt>
      <trkpt lat="41.55733846" lon="1.646582800">
        <ele>312.00000</ele>
        <time>2019-10-07T15:10:45Z</time>
      </trkpt>
      <trkpt lat="41.55727836" lon="1.646708948">
        <ele>313.00000</ele>
        <time>2019-10-07T15:10:48Z</time>
      </trkpt>
      <trkpt lat="41.55722773" lon="1.646773824">
        <ele>313.00000</ele>
        <time>2019-10-07T15:10:50Z</time>
      </trkpt>
      <trkpt lat="41.55714416" lon="1.646846579">
        <ele>314.00000</ele>
        <time>2019-10-07T15:10:53Z</time>
      </trkpt>
      <trkpt lat="41.55704031" lon="1.646972810">
        <ele>315.00000</ele>
        <time>2019-10-07T15:10:57Z</time>
      </trkpt>
      <trkpt lat="41.55701433" lon="1.646997286">
        <ele>316.00000</ele>
        <time>2019-10-07T15:10:58Z</time>
      </trkpt>
      <trkpt lat="41.55686136" lon="1.647153021">
        <ele>317.00000</ele>
        <time>2019-10-07T15:11:03Z</time>
      </trkpt>
      <trkpt lat="41.55675449" lon="1.647309428">
        <ele>318.00000</ele>
        <time>2019-10-07T15:11:07Z</time>
      </trkpt>
      <trkpt lat="41.55672431" lon="1.647394085">
        <ele>318.00000</ele>
        <time>2019-10-07T15:11:09Z</time>
      </trkpt>
      <trkpt lat="41.55669498" lon="1.647472456">
        <ele>319.00000</ele>
        <time>2019-10-07T15:11:11Z</time>
      </trkpt>
      <trkpt lat="41.55662474" lon="1.647581504">
        <ele>320.00000</ele>
        <time>2019-10-07T15:11:14Z</time>
      </trkpt>
      <trkpt lat="41.55649901" lon="1.647657360">
        <ele>321.00000</ele>
        <time>2019-10-07T15:11:18Z</time>
      </trkpt>
      <trkpt lat="41.55641578" lon="1.647710921">
        <ele>322.00000</ele>
        <time>2019-10-07T15:11:21Z</time>
      </trkpt>
      <trkpt lat="41.55634822" lon="1.647795662">
        <ele>323.00000</ele>
        <time>2019-10-07T15:11:24Z</time>
      </trkpt>
      <trkpt lat="41.55626172" lon="1.647904962">
        <ele>324.00000</ele>
        <time>2019-10-07T15:11:28Z</time>
      </trkpt>
      <trkpt lat="41.55623892" lon="1.647932119">
        <ele>325.00000</ele>
        <time>2019-10-07T15:11:29Z</time>
      </trkpt>
      <trkpt lat="41.55613305" lon="1.648041084">
        <ele>325.00000</ele>
        <time>2019-10-07T15:11:33Z</time>
      </trkpt>
      <trkpt lat="41.55605435" lon="1.648119539">
        <ele>326.00000</ele>
        <time>2019-10-07T15:11:36Z</time>
      </trkpt>
      <trkpt lat="41.55600422" lon="1.648160694">
        <ele>326.00000</ele>
        <time>2019-10-07T15:11:38Z</time>
      </trkpt>
      <trkpt lat="41.55590373" lon="1.648252895">
        <ele>327.00000</ele>
        <time>2019-10-07T15:11:42Z</time>
      </trkpt>
      <trkpt lat="41.55587967" lon="1.648274185">
        <ele>328.00000</ele>
        <time>2019-10-07T15:11:43Z</time>
      </trkpt>
      <trkpt lat="41.55575838" lon="1.648400416">
        <ele>328.00000</ele>
        <time>2019-10-07T15:11:48Z</time>
      </trkpt>
      <trkpt lat="41.55573290" lon="1.648426987">
        <ele>329.00000</ele>
        <time>2019-10-07T15:11:49Z</time>
      </trkpt>
      <trkpt lat="41.55565059" lon="1.648540394">
        <ele>330.00000</ele>
        <time>2019-10-07T15:11:53Z</time>
      </trkpt>
      <trkpt lat="41.55563450" lon="1.648570820">
        <ele>330.00000</ele>
        <time>2019-10-07T15:11:54Z</time>
      </trkpt>
      <trkpt lat="41.55556468" lon="1.648681880">
        <ele>331.00000</ele>
        <time>2019-10-07T15:11:58Z</time>
      </trkpt>
      <trkpt lat="41.55553719" lon="1.648809285">
        <ele>333.00000</ele>
        <time>2019-10-07T15:12:02Z</time>
      </trkpt>
      <trkpt lat="41.55552897" lon="1.648841220">
        <ele>333.00000</ele>
        <time>2019-10-07T15:12:03Z</time>
      </trkpt>
      <trkpt lat="41.55550349" lon="1.648902995">
        <ele>334.00000</ele>
        <time>2019-10-07T15:12:05Z</time>
      </trkpt>
      <trkpt lat="41.55547072" lon="1.649000309">
        <ele>335.00000</ele>
        <time>2019-10-07T15:12:08Z</time>
      </trkpt>
      <trkpt lat="41.55546250" lon="1.649029478">
        <ele>335.00000</ele>
        <time>2019-10-07T15:12:09Z</time>
      </trkpt>
      <trkpt lat="41.55545722" lon="1.649055713">
        <ele>336.00000</ele>
        <time>2019-10-07T15:12:10Z</time>
      </trkpt>
      <trkpt lat="41.55543937" lon="1.649102400">
        <ele>337.00000</ele>
        <time>2019-10-07T15:12:12Z</time>
      </trkpt>
      <trkpt lat="41.55540668" lon="1.649181526">
        <ele>338.00000</ele>
        <time>2019-10-07T15:12:15Z</time>
      </trkpt>
      <trkpt lat="41.55538941" lon="1.649211114">
        <ele>338.00000</ele>
        <time>2019-10-07T15:12:16Z</time>
      </trkpt>
      <trkpt lat="41.55531389" lon="1.649315301">
        <ele>339.00000</ele>
        <time>2019-10-07T15:12:20Z</time>
      </trkpt>
      <trkpt lat="41.55529654" lon="1.649339022">
        <ele>339.00000</ele>
        <time>2019-10-07T15:12:21Z</time>
      </trkpt>
      <trkpt lat="41.55523301" lon="1.649394510">
        <ele>340.00000</ele>
        <time>2019-10-07T15:12:24Z</time>
      </trkpt>
      <trkpt lat="41.55521071" lon="1.649415967">
        <ele>341.00000</ele>
        <time>2019-10-07T15:12:25Z</time>
      </trkpt>
      <trkpt lat="41.55517215" lon="1.649449914">
        <ele>342.00000</ele>
        <time>2019-10-07T15:12:27Z</time>
      </trkpt>
      <trkpt lat="41.55512547" lon="1.649511354">
        <ele>343.00000</ele>
        <time>2019-10-07T15:12:30Z</time>
      </trkpt>
      <trkpt lat="41.55510853" lon="1.649529626">
        <ele>343.00000</ele>
        <time>2019-10-07T15:12:31Z</time>
      </trkpt>
      <trkpt lat="41.55507618" lon="1.649564411">
        <ele>344.00000</ele>
        <time>2019-10-07T15:12:33Z</time>
      </trkpt>
      <trkpt lat="41.55501139" lon="1.649643788">
        <ele>346.00000</ele>
        <time>2019-10-07T15:12:37Z</time>
      </trkpt>
      <trkpt lat="41.55497811" lon="1.649689301">
        <ele>346.00000</ele>
        <time>2019-10-07T15:12:39Z</time>
      </trkpt>
      <trkpt lat="41.55496336" lon="1.649711094">
        <ele>347.00000</ele>
        <time>2019-10-07T15:12:40Z</time>
      </trkpt>
      <trkpt lat="41.55490150" lon="1.649849731">
        <ele>348.00000</ele>
        <time>2019-10-07T15:12:45Z</time>
      </trkpt>
      <trkpt lat="41.55485473" lon="1.649952074">
        <ele>349.00000</ele>
        <time>2019-10-07T15:12:49Z</time>
      </trkpt>
      <trkpt lat="41.55482120" lon="1.650035474">
        <ele>350.00000</ele>
        <time>2019-10-07T15:12:52Z</time>
      </trkpt>
      <trkpt lat="41.55478189" lon="1.650115689">
        <ele>350.00000</ele>
        <time>2019-10-07T15:12:55Z</time>
      </trkpt>
      <trkpt lat="41.55472967" lon="1.650214260">
        <ele>351.00000</ele>
        <time>2019-10-07T15:12:59Z</time>
      </trkpt>
      <trkpt lat="41.55471970" lon="1.650269664">
        <ele>353.00000</ele>
        <time>2019-10-07T15:13:01Z</time>
      </trkpt>
      <trkpt lat="41.55473018" lon="1.650333534">
        <ele>354.00000</ele>
        <time>2019-10-07T15:13:03Z</time>
      </trkpt>
      <trkpt lat="41.55474141" lon="1.650364547">
        <ele>354.00000</ele>
        <time>2019-10-07T15:13:04Z</time>
      </trkpt>
      <trkpt lat="41.55476756" lon="1.650444595">
        <ele>355.00000</ele>
        <time>2019-10-07T15:13:07Z</time>
      </trkpt>
      <trkpt lat="41.55480218" lon="1.650543669">
        <ele>356.00000</ele>
        <time>2019-10-07T15:13:11Z</time>
      </trkpt>
      <trkpt lat="41.55483235" lon="1.650597900">
        <ele>356.00000</ele>
        <time>2019-10-07T15:13:13Z</time>
      </trkpt>
      <trkpt lat="41.55484509" lon="1.650676019">
        <ele>357.00000</ele>
        <time>2019-10-07T15:13:16Z</time>
      </trkpt>
      <trkpt lat="41.55484450" lon="1.650730250">
        <ele>357.00000</ele>
        <time>2019-10-07T15:13:18Z</time>
      </trkpt>
      <trkpt lat="41.55481584" lon="1.650840723">
        <ele>358.00000</ele>
        <time>2019-10-07T15:13:22Z</time>
      </trkpt>
      <trkpt lat="41.55474325" lon="1.650954550">
        <ele>359.00000</ele>
        <time>2019-10-07T15:13:27Z</time>
      </trkpt>
      <trkpt lat="41.55472716" lon="1.650981791">
        <ele>359.00000</ele>
        <time>2019-10-07T15:13:28Z</time>
      </trkpt>
      <trkpt lat="41.55468843" lon="1.651056222">
        <ele>360.00000</ele>
        <time>2019-10-07T15:13:31Z</time>
      </trkpt>
      <trkpt lat="41.55468114" lon="1.651085140">
        <ele>361.00000</ele>
        <time>2019-10-07T15:13:32Z</time>
      </trkpt>
      <trkpt lat="41.55467511" lon="1.651120260">
        <ele>361.00000</ele>
        <time>2019-10-07T15:13:33Z</time>
      </trkpt>
      <trkpt lat="41.55466128" lon="1.651146663">
        <ele>361.00000</ele>
        <time>2019-10-07T15:13:34Z</time>
      </trkpt>
      <trkpt lat="41.55462783" lon="1.651195194">
        <ele>362.00000</ele>
        <time>2019-10-07T15:13:36Z</time>
      </trkpt>
      <trkpt lat="41.55461191" lon="1.651223022">
        <ele>362.00000</ele>
        <time>2019-10-07T15:13:37Z</time>
      </trkpt>
      <trkpt lat="41.55455315" lon="1.651310697">
        <ele>363.00000</ele>
        <time>2019-10-07T15:13:41Z</time>
      </trkpt>
      <trkpt lat="41.55451786" lon="1.651350175">
        <ele>363.00000</ele>
        <time>2019-10-07T15:13:43Z</time>
      </trkpt>
      <trkpt lat="41.55448677" lon="1.651388816">
        <ele>364.00000</ele>
        <time>2019-10-07T15:13:45Z</time>
      </trkpt>
      <trkpt lat="41.55444125" lon="1.651465427">
        <ele>365.00000</ele>
        <time>2019-10-07T15:13:49Z</time>
      </trkpt>
      <trkpt lat="41.55442935" lon="1.651487136">
        <ele>365.00000</ele>
        <time>2019-10-07T15:13:50Z</time>
      </trkpt>
      <trkpt lat="41.55439280" lon="1.651548827">
        <ele>366.00000</ele>
        <time>2019-10-07T15:13:53Z</time>
      </trkpt>
      <trkpt lat="41.55437319" lon="1.651581265">
        <ele>367.00000</ele>
        <time>2019-10-07T15:13:55Z</time>
      </trkpt>
      <trkpt lat="41.55435659" lon="1.651594173">
        <ele>367.00000</ele>
        <time>2019-10-07T15:13:56Z</time>
      </trkpt>
      <trkpt lat="41.55434536" lon="1.651642117">
        <ele>367.00000</ele>
        <time>2019-10-07T15:13:58Z</time>
      </trkpt>
      <trkpt lat="41.55433153" lon="1.651681177">
        <ele>368.00000</ele>
        <time>2019-10-07T15:14:00Z</time>
      </trkpt>
      <trkpt lat="41.55427604" lon="1.651851749">
        <ele>368.00000</ele>
        <time>2019-10-07T15:14:06Z</time>
      </trkpt>
      <trkpt lat="41.55425853" lon="1.652037408">
        <ele>367.00000</ele>
        <time>2019-10-07T15:14:12Z</time>
      </trkpt>
      <trkpt lat="41.55424864" lon="1.652053501">
        <ele>367.00000</ele>
        <time>2019-10-07T15:14:13Z</time>
      </trkpt>
      <trkpt lat="41.55421494" lon="1.652109157">
        <ele>365.00000</ele>
        <time>2019-10-07T15:14:15Z</time>
      </trkpt>
      <trkpt lat="41.55420430" lon="1.652148216">
        <ele>365.00000</ele>
        <time>2019-10-07T15:14:16Z</time>
      </trkpt>
      <trkpt lat="41.55418929" lon="1.652191970">
        <ele>364.00000</ele>
        <time>2019-10-07T15:14:17Z</time>
      </trkpt>
      <trkpt lat="41.55416297" lon="1.652312669">
        <ele>364.00000</ele>
        <time>2019-10-07T15:14:19Z</time>
      </trkpt>
      <trkpt lat="41.55414101" lon="1.652379389">
        <ele>363.00000</ele>
        <time>2019-10-07T15:14:20Z</time>
      </trkpt>
      <trkpt lat="41.55410078" lon="1.652433536">
        <ele>363.00000</ele>
        <time>2019-10-07T15:14:21Z</time>
      </trkpt>
      <trkpt lat="41.55401092" lon="1.652514087">
        <ele>363.00000</ele>
        <time>2019-10-07T15:14:23Z</time>
      </trkpt>
      <trkpt lat="41.55393482" lon="1.652657333">
        <ele>364.00000</ele>
        <time>2019-10-07T15:14:26Z</time>
      </trkpt>
      <trkpt lat="41.55391789" lon="1.652703518">
        <ele>364.00000</ele>
        <time>2019-10-07T15:14:27Z</time>
      </trkpt>
      <trkpt lat="41.55388679" lon="1.652784487">
        <ele>366.00000</ele>
        <time>2019-10-07T15:14:29Z</time>
      </trkpt>
      <trkpt lat="41.55385066" lon="1.652880040">
        <ele>366.00000</ele>
        <time>2019-10-07T15:14:31Z</time>
      </trkpt>
      <trkpt lat="41.55381110" lon="1.653001997">
        <ele>366.00000</ele>
        <time>2019-10-07T15:14:33Z</time>
      </trkpt>
      <trkpt lat="41.55377481" lon="1.653147507">
        <ele>365.00000</ele>
        <time>2019-10-07T15:14:35Z</time>
      </trkpt>
      <trkpt lat="41.55374421" lon="1.653308020">
        <ele>364.00000</ele>
        <time>2019-10-07T15:14:37Z</time>
      </trkpt>
      <trkpt lat="41.55373860" lon="1.653393767">
        <ele>364.00000</ele>
        <time>2019-10-07T15:14:38Z</time>
      </trkpt>
      <trkpt lat="41.55373658" lon="1.653483370">
        <ele>363.00000</ele>
        <time>2019-10-07T15:14:39Z</time>
      </trkpt>
      <trkpt lat="41.55373650" lon="1.653577415">
        <ele>362.00000</ele>
        <time>2019-10-07T15:14:40Z</time>
      </trkpt>
      <trkpt lat="41.55373223" lon="1.653675064">
        <ele>361.00000</ele>
        <time>2019-10-07T15:14:41Z</time>
      </trkpt>
      <trkpt lat="41.55371345" lon="1.653990140">
        <ele>360.00000</ele>
        <time>2019-10-07T15:14:44Z</time>
      </trkpt>
      <trkpt lat="41.55368906" lon="1.654217373">
        <ele>359.00000</ele>
        <time>2019-10-07T15:14:46Z</time>
      </trkpt>
      <trkpt lat="41.55365562" lon="1.654438991">
        <ele>358.00000</ele>
        <time>2019-10-07T15:14:48Z</time>
      </trkpt>
      <trkpt lat="41.55362125" lon="1.654618028">
        <ele>357.00000</ele>
        <time>2019-10-07T15:14:50Z</time>
      </trkpt>
      <trkpt lat="41.55360742" lon="1.654672091">
        <ele>357.00000</ele>
        <time>2019-10-07T15:14:51Z</time>
      </trkpt>
      <trkpt lat="41.55357456" lon="1.654697488">
        <ele>357.00000</ele>
        <time>2019-10-07T15:14:52Z</time>
      </trkpt>
      <trkpt lat="41.55348714" lon="1.654747948">
        <ele>356.00000</ele>
        <time>2019-10-07T15:14:54Z</time>
      </trkpt>
      <trkpt lat="41.55344171" lon="1.654796395">
        <ele>355.00000</ele>
        <time>2019-10-07T15:14:55Z</time>
      </trkpt>
      <trkpt lat="41.55339787" lon="1.654866300">
        <ele>355.00000</ele>
        <time>2019-10-07T15:14:56Z</time>
      </trkpt>
      <trkpt lat="41.55334976" lon="1.654944838">
        <ele>353.00000</ele>
        <time>2019-10-07T15:14:57Z</time>
      </trkpt>
      <trkpt lat="41.55329662" lon="1.655023712">
        <ele>352.00000</ele>
        <time>2019-10-07T15:14:58Z</time>
      </trkpt>
      <trkpt lat="41.55318346" lon="1.655188584">
        <ele>351.00000</ele>
        <time>2019-10-07T15:15:00Z</time>
      </trkpt>
      <trkpt lat="41.55311959" lon="1.655265782">
        <ele>350.00000</ele>
        <time>2019-10-07T15:15:01Z</time>
      </trkpt>
      <trkpt lat="41.55305472" lon="1.655328394">
        <ele>349.00000</ele>
        <time>2019-10-07T15:15:02Z</time>
      </trkpt>
      <trkpt lat="41.55299294" lon="1.655400395">
        <ele>348.00000</ele>
        <time>2019-10-07T15:15:03Z</time>
      </trkpt>
      <trkpt lat="41.55288389" lon="1.655565267">
        <ele>347.00000</ele>
        <time>2019-10-07T15:15:05Z</time>
      </trkpt>
      <trkpt lat="41.55282715" lon="1.655638609">
        <ele>346.00000</ele>
        <time>2019-10-07T15:15:06Z</time>
      </trkpt>
      <trkpt lat="41.55276512" lon="1.655715303">
        <ele>346.00000</ele>
        <time>2019-10-07T15:15:07Z</time>
      </trkpt>
      <trkpt lat="41.55271173" lon="1.655802894">
        <ele>346.00000</ele>
        <time>2019-10-07T15:15:08Z</time>
      </trkpt>
      <trkpt lat="41.55264702" lon="1.655976651">
        <ele>344.00000</ele>
        <time>2019-10-07T15:15:10Z</time>
      </trkpt>
      <trkpt lat="41.55257636" lon="1.656147558">
        <ele>344.00000</ele>
        <time>2019-10-07T15:15:12Z</time>
      </trkpt>
      <trkpt lat="41.55248927" lon="1.656298013">
        <ele>343.00000</ele>
        <time>2019-10-07T15:15:14Z</time>
      </trkpt>
      <trkpt lat="41.55235047" lon="1.656642006">
        <ele>343.00000</ele>
        <time>2019-10-07T15:15:18Z</time>
      </trkpt>
      <trkpt lat="41.55230169" lon="1.656828587">
        <ele>342.00000</ele>
        <time>2019-10-07T15:15:20Z</time>
      </trkpt>
      <trkpt lat="41.55225609" lon="1.656893966">
        <ele>341.00000</ele>
        <time>2019-10-07T15:15:21Z</time>
      </trkpt>
      <trkpt lat="41.55220706" lon="1.656960938">
        <ele>341.00000</ele>
        <time>2019-10-07T15:15:22Z</time>
      </trkpt>
      <trkpt lat="41.55210169" lon="1.657121870">
        <ele>339.00000</ele>
        <time>2019-10-07T15:15:24Z</time>
      </trkpt>
      <trkpt lat="41.55206020" lon="1.657213652">
        <ele>338.00000</ele>
        <time>2019-10-07T15:15:25Z</time>
      </trkpt>
      <trkpt lat="41.55203405" lon="1.657317923">
        <ele>337.00000</ele>
        <time>2019-10-07T15:15:26Z</time>
      </trkpt>
      <trkpt lat="41.55201503" lon="1.657424708">
        <ele>336.00000</ele>
        <time>2019-10-07T15:15:27Z</time>
      </trkpt>
      <trkpt lat="41.55200597" lon="1.657534260">
        <ele>335.00000</ele>
        <time>2019-10-07T15:15:28Z</time>
      </trkpt>
      <trkpt lat="41.55202198" lon="1.657757302">
        <ele>335.00000</ele>
        <time>2019-10-07T15:15:30Z</time>
      </trkpt>
      <trkpt lat="41.55201637" lon="1.657862830">
        <ele>334.00000</ele>
        <time>2019-10-07T15:15:31Z</time>
      </trkpt>
      <trkpt lat="41.55198418" lon="1.657958133">
        <ele>334.00000</ele>
        <time>2019-10-07T15:15:32Z</time>
      </trkpt>
      <trkpt lat="41.55178385" lon="1.658266168">
        <ele>334.00000</ele>
        <time>2019-10-07T15:15:36Z</time>
      </trkpt>
      <trkpt lat="41.55172660" lon="1.658335067">
        <ele>333.00000</ele>
        <time>2019-10-07T15:15:37Z</time>
      </trkpt>
      <trkpt lat="41.55162728" lon="1.658487953">
        <ele>333.00000</ele>
        <time>2019-10-07T15:15:39Z</time>
      </trkpt>
      <trkpt lat="41.55156433" lon="1.658676378">
        <ele>332.00000</ele>
        <time>2019-10-07T15:15:41Z</time>
      </trkpt>
      <trkpt lat="41.55147925" lon="1.658988604">
        <ele>331.00000</ele>
        <time>2019-10-07T15:15:44Z</time>
      </trkpt>
      <trkpt lat="41.55141027" lon="1.659210808">
        <ele>330.00000</ele>
        <time>2019-10-07T15:15:46Z</time>
      </trkpt>
      <trkpt lat="41.55137012" lon="1.659328322">
        <ele>329.00000</ele>
        <time>2019-10-07T15:15:47Z</time>
      </trkpt>
      <trkpt lat="41.55133249" lon="1.659442149">
        <ele>328.00000</ele>
        <time>2019-10-07T15:15:48Z</time>
      </trkpt>
      <trkpt lat="41.55125454" lon="1.659626970">
        <ele>327.00000</ele>
        <time>2019-10-07T15:15:50Z</time>
      </trkpt>
      <trkpt lat="41.55121481" lon="1.659677680">
        <ele>326.00000</ele>
        <time>2019-10-07T15:15:51Z</time>
      </trkpt>
      <trkpt lat="41.55113166" lon="1.659676842">
        <ele>326.00000</ele>
        <time>2019-10-07T15:15:53Z</time>
      </trkpt>
      <trkpt lat="41.55105966" lon="1.659579696">
        <ele>325.00000</ele>
        <time>2019-10-07T15:15:55Z</time>
      </trkpt>
      <trkpt lat="41.55101607" lon="1.659534852">
        <ele>324.00000</ele>
        <time>2019-10-07T15:15:56Z</time>
      </trkpt>
      <trkpt lat="41.55097517" lon="1.659387499">
        <ele>323.00000</ele>
        <time>2019-10-07T15:15:58Z</time>
      </trkpt>
      <trkpt lat="41.55097927" lon="1.659300075">
        <ele>323.00000</ele>
        <time>2019-10-07T15:15:59Z</time>
      </trkpt>
      <trkpt lat="41.55099864" lon="1.659119613">
        <ele>322.00000</ele>
        <time>2019-10-07T15:16:01Z</time>
      </trkpt>
      <trkpt lat="41.55100878" lon="1.658822391">
        <ele>321.00000</ele>
        <time>2019-10-07T15:16:04Z</time>
      </trkpt>
      <trkpt lat="41.55101481" lon="1.658720802">
        <ele>321.00000</ele>
        <time>2019-10-07T15:16:05Z</time>
      </trkpt>
      <trkpt lat="41.55104692" lon="1.658317968">
        <ele>320.00000</ele>
        <time>2019-10-07T15:16:09Z</time>
      </trkpt>
      <trkpt lat="41.55103996" lon="1.657861908">
        <ele>320.00000</ele>
        <time>2019-10-07T15:16:14Z</time>
      </trkpt>
      <trkpt lat="41.55102672" lon="1.657701311">
        <ele>321.00000</ele>
        <time>2019-10-07T15:16:16Z</time>
      </trkpt>
      <trkpt lat="41.55097701" lon="1.657488159">
        <ele>322.00000</ele>
        <time>2019-10-07T15:16:19Z</time>
      </trkpt>
      <trkpt lat="41.55082840" lon="1.656980635">
        <ele>322.00000</ele>
        <time>2019-10-07T15:16:26Z</time>
      </trkpt>
      <trkpt lat="41.55076738" lon="1.656664554">
        <ele>322.00000</ele>
        <time>2019-10-07T15:16:30Z</time>
      </trkpt>
      <trkpt lat="41.55075724" lon="1.656494820">
        <ele>321.00000</ele>
        <time>2019-10-07T15:16:32Z</time>
      </trkpt>
      <trkpt lat="41.55073259" lon="1.656175386">
        <ele>321.00000</ele>
        <time>2019-10-07T15:16:36Z</time>
      </trkpt>
      <trkpt lat="41.55071072" lon="1.656092572">
        <ele>321.00000</ele>
        <time>2019-10-07T15:16:37Z</time>
      </trkpt>
      <trkpt lat="41.55068566" lon="1.656009089">
        <ele>321.00000</ele>
        <time>2019-10-07T15:16:38Z</time>
      </trkpt>
      <trkpt lat="41.55063922" lon="1.655834242">
        <ele>320.00000</ele>
        <time>2019-10-07T15:16:40Z</time>
      </trkpt>
      <trkpt lat="41.55062816" lon="1.655743299">
        <ele>319.00000</ele>
        <time>2019-10-07T15:16:41Z</time>
      </trkpt>
      <trkpt lat="41.55062388" lon="1.655654702">
        <ele>319.00000</ele>
        <time>2019-10-07T15:16:42Z</time>
      </trkpt>
      <trkpt lat="41.55065221" lon="1.655447082">
        <ele>320.00000</ele>
        <time>2019-10-07T15:16:45Z</time>
      </trkpt>
      <trkpt lat="41.55065556" lon="1.655378518">
        <ele>320.00000</ele>
        <time>2019-10-07T15:16:46Z</time>
      </trkpt>
      <trkpt lat="41.55063914" lon="1.655145082">
        <ele>319.00000</ele>
        <time>2019-10-07T15:16:49Z</time>
      </trkpt>
      <trkpt lat="41.55062782" lon="1.655061431">
        <ele>319.00000</ele>
        <time>2019-10-07T15:16:50Z</time>
      </trkpt>
      <trkpt lat="41.55062187" lon="1.654974175">
        <ele>319.00000</ele>
        <time>2019-10-07T15:16:51Z</time>
      </trkpt>
      <trkpt lat="41.55062858" lon="1.654884740">
        <ele>319.00000</ele>
        <time>2019-10-07T15:16:52Z</time>
      </trkpt>
      <trkpt lat="41.55064349" lon="1.654797904">
        <ele>318.00000</ele>
        <time>2019-10-07T15:16:53Z</time>
      </trkpt>
      <trkpt lat="41.55071759" lon="1.654573101">
        <ele>318.00000</ele>
        <time>2019-10-07T15:16:56Z</time>
      </trkpt>
      <trkpt lat="41.55074483" lon="1.654502023">
        <ele>318.00000</ele>
        <time>2019-10-07T15:16:57Z</time>
      </trkpt>
      <trkpt lat="41.55086369" lon="1.654144451">
        <ele>318.00000</ele>
        <time>2019-10-07T15:17:02Z</time>
      </trkpt>
      <trkpt lat="41.55088531" lon="1.654076473">
        <ele>318.00000</ele>
        <time>2019-10-07T15:17:03Z</time>
      </trkpt>
      <trkpt lat="41.55097190" lon="1.653742119">
        <ele>319.00000</ele>
        <time>2019-10-07T15:17:08Z</time>
      </trkpt>
      <trkpt lat="41.55098246" lon="1.653674645">
        <ele>319.00000</ele>
        <time>2019-10-07T15:17:09Z</time>
      </trkpt>
      <trkpt lat="41.55101649" lon="1.653476329">
        <ele>320.00000</ele>
        <time>2019-10-07T15:17:12Z</time>
      </trkpt>
      <trkpt lat="41.55107131" lon="1.653150776">
        <ele>320.00000</ele>
        <time>2019-10-07T15:17:17Z</time>
      </trkpt>
      <trkpt lat="41.55118136" lon="1.652721203">
        <ele>321.00000</ele>
        <time>2019-10-07T15:17:24Z</time>
      </trkpt>
      <trkpt lat="41.55120726" lon="1.652669319">
        <ele>321.00000</ele>
        <time>2019-10-07T15:17:25Z</time>
      </trkpt>
      <trkpt lat="41.55128798" lon="1.652490282">
        <ele>319.00000</ele>
        <time>2019-10-07T15:17:28Z</time>
      </trkpt>
      <trkpt lat="41.55131061" lon="1.652376120">
        <ele>320.00000</ele>
        <time>2019-10-07T15:17:30Z</time>
      </trkpt>
      <trkpt lat="41.55130625" lon="1.652175541">
        <ele>319.00000</ele>
        <time>2019-10-07T15:17:33Z</time>
      </trkpt>
      <trkpt lat="41.55130357" lon="1.652106223">
        <ele>319.00000</ele>
        <time>2019-10-07T15:17:34Z</time>
      </trkpt>
      <trkpt lat="41.55130097" lon="1.651985775">
        <ele>320.00000</ele>
        <time>2019-10-07T15:17:36Z</time>
      </trkpt>
      <trkpt lat="41.55129770" lon="1.651883181">
        <ele>321.00000</ele>
        <time>2019-10-07T15:17:38Z</time>
      </trkpt>
      <trkpt lat="41.55129125" lon="1.651830039">
        <ele>321.00000</ele>
        <time>2019-10-07T15:17:39Z</time>
      </trkpt>
      <trkpt lat="41.55128639" lon="1.651780670">
        <ele>322.00000</ele>
        <time>2019-10-07T15:17:40Z</time>
      </trkpt>
      <trkpt lat="41.55128521" lon="1.651731971">
        <ele>322.00000</ele>
        <time>2019-10-07T15:17:41Z</time>
      </trkpt>
      <trkpt lat="41.55130122" lon="1.651650331">
        <ele>323.00000</ele>
        <time>2019-10-07T15:17:43Z</time>
      </trkpt>
      <trkpt lat="41.55131296" lon="1.651614960">
        <ele>324.00000</ele>
        <time>2019-10-07T15:17:44Z</time>
      </trkpt>
      <trkpt lat="41.55132645" lon="1.651583360">
        <ele>324.00000</ele>
        <time>2019-10-07T15:17:45Z</time>
      </trkpt>
      <trkpt lat="41.55139527" lon="1.651414884">
        <ele>325.00000</ele>
        <time>2019-10-07T15:17:49Z</time>
      </trkpt>
      <trkpt lat="41.55140692" lon="1.651367526">
        <ele>326.00000</ele>
        <time>2019-10-07T15:17:50Z</time>
      </trkpt>
      <trkpt lat="41.55143265" lon="1.651164432">
        <ele>327.00000</ele>
        <time>2019-10-07T15:17:54Z</time>
      </trkpt>
      <trkpt lat="41.55143734" lon="1.651115985">
        <ele>327.00000</ele>
        <time>2019-10-07T15:17:55Z</time>
      </trkpt>
      <trkpt lat="41.55148336" lon="1.650793701">
        <ele>327.00000</ele>
        <time>2019-10-07T15:18:01Z</time>
      </trkpt>
      <trkpt lat="41.55147540" lon="1.650735866">
        <ele>328.00000</ele>
        <time>2019-10-07T15:18:02Z</time>
      </trkpt>
      <trkpt lat="41.55145947" lon="1.650681886">
        <ele>328.00000</ele>
        <time>2019-10-07T15:18:03Z</time>
      </trkpt>
      <trkpt lat="41.55143927" lon="1.650627488">
        <ele>328.00000</ele>
        <time>2019-10-07T15:18:04Z</time>
      </trkpt>
      <trkpt lat="41.55132670" lon="1.650480218">
        <ele>328.00000</ele>
        <time>2019-10-07T15:18:07Z</time>
      </trkpt>
      <trkpt lat="41.55128236" lon="1.650431100">
        <ele>328.00000</ele>
        <time>2019-10-07T15:18:08Z</time>
      </trkpt>
      <trkpt lat="41.55104256" lon="1.650159861">
        <ele>327.00000</ele>
        <time>2019-10-07T15:18:13Z</time>
      </trkpt>
      <trkpt lat="41.55100618" lon="1.650092387">
        <ele>326.00000</ele>
        <time>2019-10-07T15:18:14Z</time>
      </trkpt>
      <trkpt lat="41.55090325" lon="1.649805558">
        <ele>326.00000</ele>
        <time>2019-10-07T15:18:18Z</time>
      </trkpt>
      <trkpt lat="41.55088012" lon="1.649741604">
        <ele>326.00000</ele>
        <time>2019-10-07T15:18:19Z</time>
      </trkpt>
      <trkpt lat="41.55079437" lon="1.649480676">
        <ele>326.00000</ele>
        <time>2019-10-07T15:18:23Z</time>
      </trkpt>
      <trkpt lat="41.55076093" lon="1.649348242">
        <ele>327.00000</ele>
        <time>2019-10-07T15:18:25Z</time>
      </trkpt>
      <trkpt lat="41.55072371" lon="1.649087229">
        <ele>328.00000</ele>
        <time>2019-10-07T15:18:29Z</time>
      </trkpt>
      <trkpt lat="41.55067727" lon="1.648723371">
        <ele>329.00000</ele>
        <time>2019-10-07T15:18:35Z</time>
      </trkpt>
      <trkpt lat="41.55064861" lon="1.648546094">
        <ele>330.00000</ele>
        <time>2019-10-07T15:18:38Z</time>
      </trkpt>
      <trkpt lat="41.55062698" lon="1.648351047">
        <ele>330.00000</ele>
        <time>2019-10-07T15:18:41Z</time>
      </trkpt>
      <trkpt lat="41.55059069" lon="1.647986182">
        <ele>330.00000</ele>
        <time>2019-10-07T15:18:46Z</time>
      </trkpt>
      <trkpt lat="41.55058558" lon="1.647924743">
        <ele>330.00000</ele>
        <time>2019-10-07T15:18:47Z</time>
      </trkpt>
      <trkpt lat="41.55056672" lon="1.647593658">
        <ele>331.00000</ele>
        <time>2019-10-07T15:18:52Z</time>
      </trkpt>
      <trkpt lat="41.55062807" lon="1.647354774">
        <ele>331.00000</ele>
        <time>2019-10-07T15:18:56Z</time>
      </trkpt>
      <trkpt lat="41.55065540" lon="1.647303393">
        <ele>331.00000</ele>
        <time>2019-10-07T15:18:57Z</time>
      </trkpt>
      <trkpt lat="41.55077945" lon="1.647217478">
        <ele>331.00000</ele>
        <time>2019-10-07T15:19:00Z</time>
      </trkpt>
      <trkpt lat="41.55095455" lon="1.647026119">
        <ele>330.00000</ele>
        <time>2019-10-07T15:19:04Z</time>
      </trkpt>
      <trkpt lat="41.55097148" lon="1.646945485">
        <ele>330.00000</ele>
        <time>2019-10-07T15:19:05Z</time>
      </trkpt>
      <trkpt lat="41.55096855" lon="1.646793941">
        <ele>329.00000</ele>
        <time>2019-10-07T15:19:07Z</time>
      </trkpt>
      <trkpt lat="41.55091037" lon="1.646537706">
        <ele>330.00000</ele>
        <time>2019-10-07T15:19:11Z</time>
      </trkpt>
      <trkpt lat="41.55090308" lon="1.646476686">
        <ele>330.00000</ele>
        <time>2019-10-07T15:19:12Z</time>
      </trkpt>
      <trkpt lat="41.55088724" lon="1.646291529">
        <ele>331.00000</ele>
        <time>2019-10-07T15:19:15Z</time>
      </trkpt>
      <trkpt lat="41.55088481" lon="1.646224474">
        <ele>331.00000</ele>
        <time>2019-10-07T15:19:16Z</time>
      </trkpt>
      <trkpt lat="41.55087685" lon="1.646043090">
        <ele>332.00000</ele>
        <time>2019-10-07T15:19:19Z</time>
      </trkpt>
      <trkpt lat="41.55086687" lon="1.645931024">
        <ele>332.00000</ele>
        <time>2019-10-07T15:19:21Z</time>
      </trkpt>
      <trkpt lat="41.55086436" lon="1.645881403">
        <ele>333.00000</ele>
        <time>2019-10-07T15:19:22Z</time>
      </trkpt>
      <trkpt lat="41.55088112" lon="1.645730780">
        <ele>334.00000</ele>
        <time>2019-10-07T15:19:25Z</time>
      </trkpt>
      <trkpt lat="41.55090484" lon="1.645687362">
        <ele>334.00000</ele>
        <time>2019-10-07T15:19:26Z</time>
      </trkpt>
      <trkpt lat="41.55106259" lon="1.645594323">
        <ele>335.00000</ele>
        <time>2019-10-07T15:19:30Z</time>
      </trkpt>
      <trkpt lat="41.55120072" lon="1.645575799">
        <ele>335.00000</ele>
        <time>2019-10-07T15:19:33Z</time>
      </trkpt>
      <trkpt lat="41.55138705" lon="1.645564986">
        <ele>336.00000</ele>
        <time>2019-10-07T15:19:37Z</time>
      </trkpt>
      <trkpt lat="41.55147850" lon="1.645554006">
        <ele>336.00000</ele>
        <time>2019-10-07T15:19:39Z</time>
      </trkpt>
      <trkpt lat="41.55169936" lon="1.645526597">
        <ele>337.00000</ele>
        <time>2019-10-07T15:19:44Z</time>
      </trkpt>
      <trkpt lat="41.55174186" lon="1.645518215">
        <ele>338.00000</ele>
        <time>2019-10-07T15:19:45Z</time>
      </trkpt>
      <trkpt lat="41.55194177" lon="1.645469600">
        <ele>339.00000</ele>
        <time>2019-10-07T15:19:50Z</time>
      </trkpt>
      <trkpt lat="41.55198871" lon="1.645425092">
        <ele>340.00000</ele>
        <time>2019-10-07T15:19:52Z</time>
      </trkpt>
      <trkpt lat="41.55202902" lon="1.645236248">
        <ele>340.00000</ele>
        <time>2019-10-07T15:19:56Z</time>
      </trkpt>
      <trkpt lat="41.55200346" lon="1.645079925">
        <ele>340.00000</ele>
        <time>2019-10-07T15:19:59Z</time>
      </trkpt>
      <trkpt lat="41.55199684" lon="1.645027371">
        <ele>341.00000</ele>
        <time>2019-10-07T15:20:00Z</time>
      </trkpt>
      <trkpt lat="41.55198913" lon="1.644974900">
        <ele>341.00000</ele>
        <time>2019-10-07T15:20:01Z</time>
      </trkpt>
      <trkpt lat="41.55194479" lon="1.644733501">
        <ele>342.00000</ele>
        <time>2019-10-07T15:20:06Z</time>
      </trkpt>
      <trkpt lat="41.55192249" lon="1.644625375">
        <ele>342.00000</ele>
        <time>2019-10-07T15:20:08Z</time>
      </trkpt>
      <trkpt lat="41.55188452" lon="1.644403338">
        <ele>343.00000</ele>
        <time>2019-10-07T15:20:12Z</time>
      </trkpt>
      <trkpt lat="41.55185326" lon="1.644047107">
        <ele>344.00000</ele>
        <time>2019-10-07T15:20:19Z</time>
      </trkpt>
      <trkpt lat="41.55181436" lon="1.643908387">
        <ele>346.00000</ele>
        <time>2019-10-07T15:20:22Z</time>
      </trkpt>
      <trkpt lat="41.55174873" lon="1.643740581">
        <ele>347.00000</ele>
        <time>2019-10-07T15:20:26Z</time>
      </trkpt>
      <trkpt lat="41.55165670" lon="1.643557352">
        <ele>348.00000</ele>
        <time>2019-10-07T15:20:31Z</time>
      </trkpt>
      <trkpt lat="41.55161839" lon="1.643481831">
        <ele>348.00000</ele>
        <time>2019-10-07T15:20:33Z</time>
      </trkpt>
      <trkpt lat="41.55155788" lon="1.643367670">
        <ele>349.00000</ele>
        <time>2019-10-07T15:20:36Z</time>
      </trkpt>
      <trkpt lat="41.55148839" lon="1.643216796">
        <ele>350.00000</ele>
        <time>2019-10-07T15:20:40Z</time>
      </trkpt>
      <trkpt lat="41.55147255" lon="1.643177568">
        <ele>350.00000</ele>
        <time>2019-10-07T15:20:41Z</time>
      </trkpt>
      <trkpt lat="41.55142368" lon="1.643065083">
        <ele>351.00000</ele>
        <time>2019-10-07T15:20:44Z</time>
      </trkpt>
      <trkpt lat="41.55135537" lon="1.642884705">
        <ele>351.00000</ele>
        <time>2019-10-07T15:20:48Z</time>
      </trkpt>
      <trkpt lat="41.55131631" lon="1.642676666">
        <ele>351.00000</ele>
        <time>2019-10-07T15:20:52Z</time>
      </trkpt>
      <trkpt lat="41.55131589" lon="1.642567282">
        <ele>351.00000</ele>
        <time>2019-10-07T15:20:54Z</time>
      </trkpt>
      <trkpt lat="41.55130701" lon="1.642512800">
        <ele>351.00000</ele>
        <time>2019-10-07T15:20:55Z</time>
      </trkpt>
      <trkpt lat="41.55125085" lon="1.642308365">
        <ele>351.00000</ele>
        <time>2019-10-07T15:20:59Z</time>
      </trkpt>
      <trkpt lat="41.55124397" lon="1.642129998">
        <ele>352.00000</ele>
        <time>2019-10-07T15:21:03Z</time>
      </trkpt>
      <trkpt lat="41.55124548" lon="1.642092363">
        <ele>353.00000</ele>
        <time>2019-10-07T15:21:04Z</time>
      </trkpt>
      <trkpt lat="41.55125454" lon="1.642021285">
        <ele>353.00000</ele>
        <time>2019-10-07T15:21:06Z</time>
      </trkpt>
      <trkpt lat="41.55126476" lon="1.641910728">
        <ele>355.00000</ele>
        <time>2019-10-07T15:21:09Z</time>
      </trkpt>
      <trkpt lat="41.55126392" lon="1.641882481">
        <ele>355.00000</ele>
        <time>2019-10-07T15:21:10Z</time>
      </trkpt>
      <trkpt lat="41.55126971" lon="1.641848366">
        <ele>356.00000</ele>
        <time>2019-10-07T15:21:11Z</time>
      </trkpt>
      <trkpt lat="41.55128940" lon="1.641709478">
        <ele>356.00000</ele>
        <time>2019-10-07T15:21:15Z</time>
      </trkpt>
      <trkpt lat="41.55128974" lon="1.641673436">
        <ele>357.00000</ele>
        <time>2019-10-07T15:21:16Z</time>
      </trkpt>
      <trkpt lat="41.55130860" lon="1.641482328">
        <ele>358.00000</ele>
        <time>2019-10-07T15:21:21Z</time>
      </trkpt>
      <trkpt lat="41.55131069" lon="1.641444191">
        <ele>358.00000</ele>
        <time>2019-10-07T15:21:22Z</time>
      </trkpt>
      <trkpt lat="41.55134171" lon="1.641250988">
        <ele>359.00000</ele>
        <time>2019-10-07T15:21:27Z</time>
      </trkpt>
      <trkpt lat="41.55133341" lon="1.641179909">
        <ele>360.00000</ele>
        <time>2019-10-07T15:21:29Z</time>
      </trkpt>
      <trkpt lat="41.55132779" lon="1.641146801">
        <ele>360.00000</ele>
        <time>2019-10-07T15:21:30Z</time>
      </trkpt>
      <trkpt lat="41.55130005" lon="1.640972625">
        <ele>361.00000</ele>
        <time>2019-10-07T15:21:35Z</time>
      </trkpt>
      <trkpt lat="41.55129577" lon="1.640937924">
        <ele>361.00000</ele>
        <time>2019-10-07T15:21:36Z</time>
      </trkpt>
      <trkpt lat="41.55127524" lon="1.640830636">
        <ele>362.00000</ele>
        <time>2019-10-07T15:21:39Z</time>
      </trkpt>
      <trkpt lat="41.55125764" lon="1.640706835">
        <ele>364.00000</ele>
        <time>2019-10-07T15:21:43Z</time>
      </trkpt>
      <trkpt lat="41.55125462" lon="1.640681270">
        <ele>364.00000</ele>
        <time>2019-10-07T15:21:44Z</time>
      </trkpt>
      <trkpt lat="41.55124724" lon="1.640486223">
        <ele>365.00000</ele>
        <time>2019-10-07T15:21:49Z</time>
      </trkpt>
      <trkpt lat="41.55125219" lon="1.640331577">
        <ele>366.00000</ele>
        <time>2019-10-07T15:21:53Z</time>
      </trkpt>
      <trkpt lat="41.55127717" lon="1.640195539">
        <ele>366.00000</ele>
        <time>2019-10-07T15:21:57Z</time>
      </trkpt>
      <trkpt lat="41.55129158" lon="1.640098728">
        <ele>367.00000</ele>
        <time>2019-10-07T15:22:00Z</time>
      </trkpt>
      <trkpt lat="41.55132100" lon="1.639964785">
        <ele>368.00000</ele>
        <time>2019-10-07T15:22:04Z</time>
      </trkpt>
      <trkpt lat="41.55138387" lon="1.639856407">
        <ele>369.00000</ele>
        <time>2019-10-07T15:22:08Z</time>
      </trkpt>
      <trkpt lat="41.55143458" lon="1.639800081">
        <ele>371.00000</ele>
        <time>2019-10-07T15:22:11Z</time>
      </trkpt>
      <trkpt lat="41.55148738" lon="1.639764290">
        <ele>372.00000</ele>
        <time>2019-10-07T15:22:14Z</time>
      </trkpt>
      <trkpt lat="41.55153910" lon="1.639708885">
        <ele>373.00000</ele>
        <time>2019-10-07T15:22:17Z</time>
      </trkpt>
      <trkpt lat="41.55156634" lon="1.639640992">
        <ele>374.00000</ele>
        <time>2019-10-07T15:22:20Z</time>
      </trkpt>
      <trkpt lat="41.55156802" lon="1.639577290">
        <ele>374.00000</ele>
        <time>2019-10-07T15:22:22Z</time>
      </trkpt>
      <trkpt lat="41.55154371" lon="1.639446699">
        <ele>374.00000</ele>
        <time>2019-10-07T15:22:26Z</time>
      </trkpt>
      <trkpt lat="41.55143232" lon="1.639248384">
        <ele>374.00000</ele>
        <time>2019-10-07T15:22:31Z</time>
      </trkpt>
      <trkpt lat="41.55139493" lon="1.639210665">
        <ele>374.00000</ele>
        <time>2019-10-07T15:22:32Z</time>
      </trkpt>
      <trkpt lat="41.55125537" lon="1.639059539">
        <ele>373.00000</ele>
        <time>2019-10-07T15:22:35Z</time>
      </trkpt>
      <trkpt lat="41.55121254" lon="1.638983180">
        <ele>373.00000</ele>
        <time>2019-10-07T15:22:36Z</time>
      </trkpt>
      <trkpt lat="41.55116259" lon="1.638799617">
        <ele>371.00000</ele>
        <time>2019-10-07T15:22:38Z</time>
      </trkpt>
      <trkpt lat="41.55117130" lon="1.638586968">
        <ele>370.00000</ele>
        <time>2019-10-07T15:22:40Z</time>
      </trkpt>
      <trkpt lat="41.55118421" lon="1.638485966">
        <ele>369.00000</ele>
        <time>2019-10-07T15:22:41Z</time>
      </trkpt>
      <trkpt lat="41.55119544" lon="1.638396698">
        <ele>369.00000</ele>
        <time>2019-10-07T15:22:42Z</time>
      </trkpt>
      <trkpt lat="41.55119611" lon="1.638327296">
        <ele>370.00000</ele>
        <time>2019-10-07T15:22:43Z</time>
      </trkpt>
      <trkpt lat="41.55119469" lon="1.638269880">
        <ele>370.00000</ele>
        <time>2019-10-07T15:22:44Z</time>
      </trkpt>
      <trkpt lat="41.55118371" lon="1.638221601">
        <ele>371.00000</ele>
        <time>2019-10-07T15:22:45Z</time>
      </trkpt>
      <trkpt lat="41.55113358" lon="1.638081623">
        <ele>372.00000</ele>
        <time>2019-10-07T15:22:48Z</time>
      </trkpt>
      <trkpt lat="41.55111171" lon="1.638043485">
        <ele>372.00000</ele>
        <time>2019-10-07T15:22:49Z</time>
      </trkpt>
      <trkpt lat="41.55104029" lon="1.637940052">
        <ele>373.00000</ele>
        <time>2019-10-07T15:22:52Z</time>
      </trkpt>
      <trkpt lat="41.55099612" lon="1.637858664">
        <ele>374.00000</ele>
        <time>2019-10-07T15:22:54Z</time>
      </trkpt>
      <trkpt lat="41.55097399" lon="1.637761434">
        <ele>374.00000</ele>
        <time>2019-10-07T15:22:56Z</time>
      </trkpt>
      <trkpt lat="41.55096754" lon="1.637620283">
        <ele>375.00000</ele>
        <time>2019-10-07T15:22:59Z</time>
      </trkpt>
      <trkpt lat="41.55098346" lon="1.637547360">
        <ele>376.00000</ele>
        <time>2019-10-07T15:23:01Z</time>
      </trkpt>
      <trkpt lat="41.55099319" lon="1.637429846">
        <ele>377.00000</ele>
        <time>2019-10-07T15:23:04Z</time>
      </trkpt>
      <trkpt lat="41.55100023" lon="1.637353068">
        <ele>377.00000</ele>
        <time>2019-10-07T15:23:06Z</time>
      </trkpt>
      <trkpt lat="41.55101574" lon="1.637236224">
        <ele>378.00000</ele>
        <time>2019-10-07T15:23:09Z</time>
      </trkpt>
      <trkpt lat="41.55101674" lon="1.637193979">
        <ele>378.00000</ele>
        <time>2019-10-07T15:23:10Z</time>
      </trkpt>
      <trkpt lat="41.55096779" lon="1.636927602">
        <ele>378.00000</ele>
        <time>2019-10-07T15:23:15Z</time>
      </trkpt>
      <trkpt lat="41.55095715" lon="1.636866079">
        <ele>378.00000</ele>
        <time>2019-10-07T15:23:16Z</time>
      </trkpt>
      <trkpt lat="41.55090375" lon="1.636636415">
        <ele>379.00000</ele>
        <time>2019-10-07T15:23:20Z</time>
      </trkpt>
      <trkpt lat="41.55087366" lon="1.636530971">
        <ele>380.00000</ele>
        <time>2019-10-07T15:23:22Z</time>
      </trkpt>
      <trkpt lat="41.55083611" lon="1.636434411">
        <ele>380.00000</ele>
        <time>2019-10-07T15:23:24Z</time>
      </trkpt>
      <trkpt lat="41.55080904" lon="1.636324776">
        <ele>380.00000</ele>
        <time>2019-10-07T15:23:26Z</time>
      </trkpt>
      <trkpt lat="41.55078289" lon="1.636196617">
        <ele>380.00000</ele>
        <time>2019-10-07T15:23:28Z</time>
      </trkpt>
      <trkpt lat="41.55077777" lon="1.636133249">
        <ele>380.00000</ele>
        <time>2019-10-07T15:23:29Z</time>
      </trkpt>
      <trkpt lat="41.55076084" lon="1.635890174">
        <ele>381.00000</ele>
        <time>2019-10-07T15:23:33Z</time>
      </trkpt>
      <trkpt lat="41.55073218" lon="1.635718429">
        <ele>381.00000</ele>
        <time>2019-10-07T15:23:36Z</time>
      </trkpt>
      <trkpt lat="41.55071466" lon="1.635656990">
        <ele>381.00000</ele>
        <time>2019-10-07T15:23:37Z</time>
      </trkpt>
      <trkpt lat="41.55067484" lon="1.635534446">
        <ele>381.00000</ele>
        <time>2019-10-07T15:23:39Z</time>
      </trkpt>
      <trkpt lat="41.55054886" lon="1.635134043">
        <ele>382.00000</ele>
        <time>2019-10-07T15:23:46Z</time>
      </trkpt>
      <trkpt lat="41.55053461" lon="1.635075453">
        <ele>382.00000</ele>
        <time>2019-10-07T15:23:47Z</time>
      </trkpt>
      <trkpt lat="41.55047611" lon="1.634796252">
        <ele>383.00000</ele>
        <time>2019-10-07T15:23:52Z</time>
      </trkpt>
      <trkpt lat="41.55047083" lon="1.634737579">
        <ele>383.00000</ele>
        <time>2019-10-07T15:23:53Z</time>
      </trkpt>
      <trkpt lat="41.55044510" lon="1.634564325">
        <ele>384.00000</ele>
        <time>2019-10-07T15:23:56Z</time>
      </trkpt>
      <trkpt lat="41.55043344" lon="1.634456701">
        <ele>385.00000</ele>
        <time>2019-10-07T15:23:58Z</time>
      </trkpt>
      <trkpt lat="41.55042691" lon="1.634407751">
        <ele>386.00000</ele>
        <time>2019-10-07T15:23:59Z</time>
      </trkpt>
      <trkpt lat="41.55041668" lon="1.634317561">
        <ele>387.00000</ele>
        <time>2019-10-07T15:24:01Z</time>
      </trkpt>
      <trkpt lat="41.55038382" lon="1.634111702">
        <ele>387.00000</ele>
        <time>2019-10-07T15:24:05Z</time>
      </trkpt>
      <trkpt lat="41.55033940" lon="1.633878098">
        <ele>387.00000</ele>
        <time>2019-10-07T15:24:09Z</time>
      </trkpt>
      <trkpt lat="41.55032523" lon="1.633710376">
        <ele>386.00000</ele>
        <time>2019-10-07T15:24:12Z</time>
      </trkpt>
      <trkpt lat="41.55032129" lon="1.633502505">
        <ele>387.00000</ele>
        <time>2019-10-07T15:24:16Z</time>
      </trkpt>
      <trkpt lat="41.55031451" lon="1.633388344">
        <ele>386.00000</ele>
        <time>2019-10-07T15:24:18Z</time>
      </trkpt>
      <trkpt lat="41.55024485" lon="1.633141161">
        <ele>387.00000</ele>
        <time>2019-10-07T15:24:23Z</time>
      </trkpt>
      <trkpt lat="41.55021937" lon="1.632995987">
        <ele>388.00000</ele>
        <time>2019-10-07T15:24:26Z</time>
      </trkpt>
      <trkpt lat="41.55021099" lon="1.632950808">
        <ele>388.00000</ele>
        <time>2019-10-07T15:24:27Z</time>
      </trkpt>
      <trkpt lat="41.55016992" lon="1.632808065">
        <ele>389.00000</ele>
        <time>2019-10-07T15:24:30Z</time>
      </trkpt>
      <trkpt lat="41.55012013" lon="1.632618298">
        <ele>390.00000</ele>
        <time>2019-10-07T15:24:34Z</time>
      </trkpt>
      <trkpt lat="41.55001368" lon="1.632252261">
        <ele>391.00000</ele>
        <time>2019-10-07T15:24:41Z</time>
      </trkpt>
      <trkpt lat="41.54999138" lon="1.632141536">
        <ele>391.00000</ele>
        <time>2019-10-07T15:24:43Z</time>
      </trkpt>
      <trkpt lat="41.54997713" lon="1.632089735">
        <ele>392.00000</ele>
        <time>2019-10-07T15:24:44Z</time>
      </trkpt>
      <trkpt lat="41.54996557" lon="1.632038354">
        <ele>393.00000</ele>
        <time>2019-10-07T15:24:45Z</time>
      </trkpt>
      <trkpt lat="41.54994713" lon="1.631991080">
        <ele>393.00000</ele>
        <time>2019-10-07T15:24:46Z</time>
      </trkpt>
      <trkpt lat="41.54993715" lon="1.631943974">
        <ele>393.00000</ele>
        <time>2019-10-07T15:24:47Z</time>
      </trkpt>
      <trkpt lat="41.54989457" lon="1.631682626">
        <ele>394.00000</ele>
        <time>2019-10-07T15:24:52Z</time>
      </trkpt>
      <trkpt lat="41.54986624" lon="1.631570979">
        <ele>395.00000</ele>
        <time>2019-10-07T15:24:54Z</time>
      </trkpt>
      <trkpt lat="41.54983573" lon="1.631459752">
        <ele>395.00000</ele>
        <time>2019-10-07T15:24:56Z</time>
      </trkpt>
      <trkpt lat="41.54979960" lon="1.631237966">
        <ele>396.00000</ele>
        <time>2019-10-07T15:25:00Z</time>
      </trkpt>
      <trkpt lat="41.54979089" lon="1.631179964">
        <ele>396.00000</ele>
        <time>2019-10-07T15:25:01Z</time>
      </trkpt>
      <trkpt lat="41.54974881" lon="1.630895482">
        <ele>398.00000</ele>
        <time>2019-10-07T15:25:06Z</time>
      </trkpt>
      <trkpt lat="41.54974822" lon="1.630842760">
        <ele>398.00000</ele>
        <time>2019-10-07T15:25:07Z</time>
      </trkpt>
      <trkpt lat="41.54976784" lon="1.630743267">
        <ele>399.00000</ele>
        <time>2019-10-07T15:25:09Z</time>
      </trkpt>
      <trkpt lat="41.54978343" lon="1.630605468">
        <ele>400.00000</ele>
        <time>2019-10-07T15:25:12Z</time>
      </trkpt>
      <trkpt lat="41.54979399" lon="1.630513519">
        <ele>400.00000</ele>
        <time>2019-10-07T15:25:14Z</time>
      </trkpt>
      <trkpt lat="41.54986163" lon="1.630493989">
        <ele>401.00000</ele>
        <time>2019-10-07T15:25:16Z</time>
      </trkpt>
      <trkpt lat="41.54988217" lon="1.630535395">
        <ele>401.00000</ele>
        <time>2019-10-07T15:25:17Z</time>
      </trkpt>
      <trkpt lat="41.54989281" lon="1.630586441">
        <ele>401.00000</ele>
        <time>2019-10-07T15:25:18Z</time>
      </trkpt>
      <trkpt lat="41.54988460" lon="1.630772016">
        <ele>402.00000</ele>
        <time>2019-10-07T15:25:21Z</time>
      </trkpt>
      <trkpt lat="41.54989834" lon="1.630833372">
        <ele>402.00000</ele>
        <time>2019-10-07T15:25:22Z</time>
      </trkpt>
      <trkpt lat="41.54990849" lon="1.630897577">
        <ele>402.00000</ele>
        <time>2019-10-07T15:25:23Z</time>
      </trkpt>
      <trkpt lat="41.54993053" lon="1.631013080">
        <ele>402.00000</ele>
        <time>2019-10-07T15:25:25Z</time>
      </trkpt>
      <trkpt lat="41.54994595" lon="1.631067646">
        <ele>402.00000</ele>
        <time>2019-10-07T15:25:26Z</time>
      </trkpt>
      <trkpt lat="41.55002709" lon="1.631272835">
        <ele>403.00000</ele>
        <time>2019-10-07T15:25:30Z</time>
      </trkpt>
      <trkpt lat="41.55004763" lon="1.631312062">
        <ele>404.00000</ele>
        <time>2019-10-07T15:25:31Z</time>
      </trkpt>
      <trkpt lat="41.55013044" lon="1.631407449">
        <ele>404.00000</ele>
        <time>2019-10-07T15:25:34Z</time>
      </trkpt>
      <trkpt lat="41.55018811" lon="1.631440389">
        <ele>405.00000</ele>
        <time>2019-10-07T15:25:36Z</time>
      </trkpt>
      <trkpt lat="41.55022197" lon="1.631435109">
        <ele>405.00000</ele>
        <time>2019-10-07T15:25:37Z</time>
      </trkpt>
      <trkpt lat="41.55025441" lon="1.631421698">
        <ele>406.00000</ele>
        <time>2019-10-07T15:25:38Z</time>
      </trkpt>
      <trkpt lat="41.55030269" lon="1.631379034">
        <ele>406.00000</ele>
        <time>2019-10-07T15:25:40Z</time>
      </trkpt>
      <trkpt lat="41.55033479" lon="1.631322205">
        <ele>407.00000</ele>
        <time>2019-10-07T15:25:42Z</time>
      </trkpt>
      <trkpt lat="41.55034870" lon="1.631292533">
        <ele>407.00000</ele>
        <time>2019-10-07T15:25:43Z</time>
      </trkpt>
      <trkpt lat="41.55038215" lon="1.631236122">
        <ele>408.00000</ele>
        <time>2019-10-07T15:25:45Z</time>
      </trkpt>
      <trkpt lat="41.55039950" lon="1.631209887">
        <ele>409.00000</ele>
        <time>2019-10-07T15:25:46Z</time>
      </trkpt>
      <trkpt lat="41.55043411" lon="1.631164541">
        <ele>410.00000</ele>
        <time>2019-10-07T15:25:48Z</time>
      </trkpt>
      <trkpt lat="41.55051500" lon="1.631110645">
        <ele>411.00000</ele>
        <time>2019-10-07T15:25:52Z</time>
      </trkpt>
      <trkpt lat="41.55060661" lon="1.631098743">
        <ele>412.00000</ele>
        <time>2019-10-07T15:25:56Z</time>
      </trkpt>
      <trkpt lat="41.55062765" lon="1.631087930">
        <ele>413.00000</ele>
        <time>2019-10-07T15:25:57Z</time>
      </trkpt>
      <trkpt lat="41.55064551" lon="1.631068065">
        <ele>413.00000</ele>
        <time>2019-10-07T15:25:58Z</time>
      </trkpt>
      <trkpt lat="41.55066152" lon="1.630974942">
        <ele>415.00000</ele>
        <time>2019-10-07T15:26:01Z</time>
      </trkpt>
      <trkpt lat="41.55064584" lon="1.630886765">
        <ele>416.00000</ele>
        <time>2019-10-07T15:26:04Z</time>
      </trkpt>
      <trkpt lat="41.55064869" lon="1.630825661">
        <ele>416.00000</ele>
        <time>2019-10-07T15:26:06Z</time>
      </trkpt>
      <trkpt lat="41.55071591" lon="1.630708482">
        <ele>417.00000</ele>
        <time>2019-10-07T15:26:11Z</time>
      </trkpt>
      <trkpt lat="41.55073519" lon="1.630695909">
        <ele>417.00000</ele>
        <time>2019-10-07T15:26:12Z</time>
      </trkpt>
      <trkpt lat="41.55077618" lon="1.630625920">
        <ele>418.00000</ele>
        <time>2019-10-07T15:26:15Z</time>
      </trkpt>
      <trkpt lat="41.55076453" lon="1.630560792">
        <ele>419.00000</ele>
        <time>2019-10-07T15:26:17Z</time>
      </trkpt>
      <trkpt lat="41.55068348" lon="1.630496755">
        <ele>420.00000</ele>
        <time>2019-10-07T15:26:21Z</time>
      </trkpt>
      <trkpt lat="41.55066118" lon="1.630487283">
        <ele>420.00000</ele>
        <time>2019-10-07T15:26:22Z</time>
      </trkpt>
      <trkpt lat="41.55060033" lon="1.630405727">
        <ele>422.00000</ele>
        <time>2019-10-07T15:26:26Z</time>
      </trkpt>
      <trkpt lat="41.55059614" lon="1.630374630">
        <ele>422.00000</ele>
        <time>2019-10-07T15:26:27Z</time>
      </trkpt>
      <trkpt lat="41.55060192" lon="1.630310760">
        <ele>423.00000</ele>
        <time>2019-10-07T15:26:29Z</time>
      </trkpt>
      <trkpt lat="41.55063469" lon="1.630260637">
        <ele>424.00000</ele>
        <time>2019-10-07T15:26:31Z</time>
      </trkpt>
      <trkpt lat="41.55069982" lon="1.630222583">
        <ele>424.00000</ele>
        <time>2019-10-07T15:26:34Z</time>
      </trkpt>
      <trkpt lat="41.55076109" lon="1.630181847">
        <ele>425.00000</ele>
        <time>2019-10-07T15:26:37Z</time>
      </trkpt>
      <trkpt lat="41.55087903" lon="1.630156114">
        <ele>426.00000</ele>
        <time>2019-10-07T15:26:42Z</time>
      </trkpt>
      <trkpt lat="41.55090300" lon="1.630153013">
        <ele>426.00000</ele>
        <time>2019-10-07T15:26:43Z</time>
      </trkpt>
      <trkpt lat="41.55107198" lon="1.630144799">
        <ele>427.00000</ele>
        <time>2019-10-07T15:26:49Z</time>
      </trkpt>
      <trkpt lat="41.55120860" lon="1.630151756">
        <ele>427.00000</ele>
        <time>2019-10-07T15:26:53Z</time>
      </trkpt>
      <trkpt lat="41.55128345" lon="1.630167933">
        <ele>429.00000</ele>
        <time>2019-10-07T15:26:56Z</time>
      </trkpt>
      <trkpt lat="41.55135562" lon="1.630198024">
        <ele>430.00000</ele>
        <time>2019-10-07T15:26:59Z</time>
      </trkpt>
      <trkpt lat="41.55142377" lon="1.630226187">
        <ele>431.00000</ele>
        <time>2019-10-07T15:27:02Z</time>
      </trkpt>
      <trkpt lat="41.55144489" lon="1.630240017">
        <ele>431.00000</ele>
        <time>2019-10-07T15:27:03Z</time>
      </trkpt>
      <trkpt lat="41.55150122" lon="1.630287123">
        <ele>432.00000</ele>
        <time>2019-10-07T15:27:06Z</time>
      </trkpt>
      <trkpt lat="41.55154279" lon="1.630309754">
        <ele>433.00000</ele>
        <time>2019-10-07T15:27:08Z</time>
      </trkpt>
      <trkpt lat="41.55156567" lon="1.630314365">
        <ele>433.00000</ele>
        <time>2019-10-07T15:27:09Z</time>
      </trkpt>
      <trkpt lat="41.55166039" lon="1.630249740">
        <ele>433.00000</ele>
        <time>2019-10-07T15:27:13Z</time>
      </trkpt>
      <trkpt lat="41.55169568" lon="1.630097106">
        <ele>432.00000</ele>
        <time>2019-10-07T15:27:16Z</time>
      </trkpt>
      <trkpt lat="41.55169953" lon="1.629985878">
        <ele>432.00000</ele>
        <time>2019-10-07T15:27:18Z</time>
      </trkpt>
      <trkpt lat="41.55169609" lon="1.629828466">
        <ele>432.00000</ele>
        <time>2019-10-07T15:27:21Z</time>
      </trkpt>
      <trkpt lat="41.55168587" lon="1.629554964">
        <ele>432.00000</ele>
        <time>2019-10-07T15:27:26Z</time>
      </trkpt>
      <trkpt lat="41.55168578" lon="1.629499224">
        <ele>432.00000</ele>
        <time>2019-10-07T15:27:27Z</time>
      </trkpt>
      <trkpt lat="41.55169132" lon="1.629122877">
        <ele>432.00000</ele>
        <time>2019-10-07T15:27:33Z</time>
      </trkpt>
      <trkpt lat="41.55170833" lon="1.628806795">
        <ele>433.00000</ele>
        <time>2019-10-07T15:27:38Z</time>
      </trkpt>
      <trkpt lat="41.55173163" lon="1.628757761">
        <ele>433.00000</ele>
        <time>2019-10-07T15:27:39Z</time>
      </trkpt>
      <trkpt lat="41.55177589" lon="1.628727167">
        <ele>433.00000</ele>
        <time>2019-10-07T15:27:40Z</time>
      </trkpt>
      <trkpt lat="41.55188745" lon="1.628734795">
        <ele>432.00000</ele>
        <time>2019-10-07T15:27:42Z</time>
      </trkpt>
      <trkpt lat="41.55194613" lon="1.628768658">
        <ele>432.00000</ele>
        <time>2019-10-07T15:27:43Z</time>
      </trkpt>
      <trkpt lat="41.55206297" lon="1.628840742">
        <ele>430.00000</ele>
        <time>2019-10-07T15:27:45Z</time>
      </trkpt>
      <trkpt lat="41.55212877" lon="1.628869492">
        <ele>429.00000</ele>
        <time>2019-10-07T15:27:46Z</time>
      </trkpt>
      <trkpt lat="41.55218568" lon="1.628877623">
        <ele>428.00000</ele>
        <time>2019-10-07T15:27:47Z</time>
      </trkpt>
      <trkpt lat="41.55226816" lon="1.628806712">
        <ele>426.00000</ele>
        <time>2019-10-07T15:27:49Z</time>
      </trkpt>
      <trkpt lat="41.55242951" lon="1.628729682">
        <ele>426.00000</ele>
        <time>2019-10-07T15:27:53Z</time>
      </trkpt>
      <trkpt lat="41.55251559" lon="1.628789277">
        <ele>425.00000</ele>
        <time>2019-10-07T15:27:55Z</time>
      </trkpt>
      <trkpt lat="41.55256689" lon="1.628831187">
        <ele>425.00000</ele>
        <time>2019-10-07T15:27:56Z</time>
      </trkpt>
      <trkpt lat="41.55262540" lon="1.628874605">
        <ele>425.00000</ele>
        <time>2019-10-07T15:27:57Z</time>
      </trkpt>
      <trkpt lat="41.55274249" lon="1.628958340">
        <ele>424.00000</ele>
        <time>2019-10-07T15:27:59Z</time>
      </trkpt>
      <trkpt lat="41.55280385" lon="1.628971248">
        <ele>423.00000</ele>
        <time>2019-10-07T15:28:00Z</time>
      </trkpt>
      <trkpt lat="41.55287308" lon="1.628970997">
        <ele>423.00000</ele>
        <time>2019-10-07T15:28:01Z</time>
      </trkpt>
      <trkpt lat="41.55293812" lon="1.628989940">
        <ele>423.00000</ele>
        <time>2019-10-07T15:28:02Z</time>
      </trkpt>
      <trkpt lat="41.55305958" lon="1.629113154">
        <ele>422.00000</ele>
        <time>2019-10-07T15:28:04Z</time>
      </trkpt>
      <trkpt lat="41.55311423" lon="1.629192279">
        <ele>421.00000</ele>
        <time>2019-10-07T15:28:05Z</time>
      </trkpt>
      <trkpt lat="41.55321171" lon="1.629360085">
        <ele>420.00000</ele>
        <time>2019-10-07T15:28:07Z</time>
      </trkpt>
      <trkpt lat="41.55327256" lon="1.629438707">
        <ele>419.00000</ele>
        <time>2019-10-07T15:28:08Z</time>
      </trkpt>
      <trkpt lat="41.55332218" lon="1.629511797">
        <ele>418.00000</ele>
        <time>2019-10-07T15:28:09Z</time>
      </trkpt>
      <trkpt lat="41.55343584" lon="1.629669209">
        <ele>416.00000</ele>
        <time>2019-10-07T15:28:11Z</time>
      </trkpt>
      <trkpt lat="41.55349611" lon="1.629749508">
        <ele>415.00000</ele>
        <time>2019-10-07T15:28:12Z</time>
      </trkpt>
      <trkpt lat="41.55355361" lon="1.629832237">
        <ele>414.00000</ele>
        <time>2019-10-07T15:28:13Z</time>
      </trkpt>
      <trkpt lat="41.55360767" lon="1.629922259">
        <ele>413.00000</ele>
        <time>2019-10-07T15:28:14Z</time>
      </trkpt>
      <trkpt lat="41.55365637" lon="1.630019992">
        <ele>412.00000</ele>
        <time>2019-10-07T15:28:15Z</time>
      </trkpt>
      <trkpt lat="41.55369803" lon="1.630123425">
        <ele>409.00000</ele>
        <time>2019-10-07T15:28:16Z</time>
      </trkpt>
      <trkpt lat="41.55373449" lon="1.630209255">
        <ele>408.00000</ele>
        <time>2019-10-07T15:28:17Z</time>
      </trkpt>
      <trkpt lat="41.55380498" lon="1.630353424">
        <ele>406.00000</ele>
        <time>2019-10-07T15:28:19Z</time>
      </trkpt>
      <trkpt lat="41.55387162" lon="1.630446715">
        <ele>404.00000</ele>
        <time>2019-10-07T15:28:21Z</time>
      </trkpt>
      <trkpt lat="41.55393021" lon="1.630402375">
        <ele>403.00000</ele>
        <time>2019-10-07T15:28:23Z</time>
      </trkpt>
      <trkpt lat="41.55394303" lon="1.630252674">
        <ele>402.00000</ele>
        <time>2019-10-07T15:28:26Z</time>
      </trkpt>
      <trkpt lat="41.55391118" lon="1.630080845">
        <ele>402.00000</ele>
        <time>2019-10-07T15:28:29Z</time>
      </trkpt>
      <trkpt lat="41.55390070" lon="1.630019238">
        <ele>403.00000</ele>
        <time>2019-10-07T15:28:30Z</time>
      </trkpt>
      <trkpt lat="41.55389534" lon="1.629955451">
        <ele>403.00000</ele>
        <time>2019-10-07T15:28:31Z</time>
      </trkpt>
      <trkpt lat="41.55388654" lon="1.629824191">
        <ele>403.00000</ele>
        <time>2019-10-07T15:28:33Z</time>
      </trkpt>
      <trkpt lat="41.55388092" lon="1.629760572">
        <ele>404.00000</ele>
        <time>2019-10-07T15:28:34Z</time>
      </trkpt>
      <trkpt lat="41.55387128" lon="1.629701564">
        <ele>404.00000</ele>
        <time>2019-10-07T15:28:35Z</time>
      </trkpt>
      <trkpt lat="41.55386131" lon="1.629655547">
        <ele>405.00000</ele>
        <time>2019-10-07T15:28:36Z</time>
      </trkpt>
      <trkpt lat="41.55383021" lon="1.629565022">
        <ele>407.00000</ele>
        <time>2019-10-07T15:28:38Z</time>
      </trkpt>
      <trkpt lat="41.55381663" lon="1.629517748">
        <ele>407.00000</ele>
        <time>2019-10-07T15:28:39Z</time>
      </trkpt>
      <trkpt lat="41.55378168" lon="1.629406102">
        <ele>408.00000</ele>
        <time>2019-10-07T15:28:42Z</time>
      </trkpt>
      <trkpt lat="41.55375787" lon="1.629375927">
        <ele>409.00000</ele>
        <time>2019-10-07T15:28:43Z</time>
      </trkpt>
      <trkpt lat="41.55373868" lon="1.629345668">
        <ele>409.00000</ele>
        <time>2019-10-07T15:28:44Z</time>
      </trkpt>
      <trkpt lat="41.55367934" lon="1.629261933">
        <ele>411.00000</ele>
        <time>2019-10-07T15:28:47Z</time>
      </trkpt>
      <trkpt lat="41.55364044" lon="1.629205355">
        <ele>411.00000</ele>
        <time>2019-10-07T15:28:49Z</time>
      </trkpt>
      <trkpt lat="41.55355260" lon="1.629058085">
        <ele>412.00000</ele>
        <time>2019-10-07T15:28:53Z</time>
      </trkpt>
      <trkpt lat="41.55353919" lon="1.629012152">
        <ele>412.00000</ele>
        <time>2019-10-07T15:28:54Z</time>
      </trkpt>
      <trkpt lat="41.55351983" lon="1.628849459">
        <ele>412.00000</ele>
        <time>2019-10-07T15:28:57Z</time>
      </trkpt>
      <trkpt lat="41.55352318" lon="1.628726329">
        <ele>411.00000</ele>
        <time>2019-10-07T15:28:59Z</time>
      </trkpt>
      <trkpt lat="41.55352092" lon="1.628537988">
        <ele>413.00000</ele>
        <time>2019-10-07T15:29:03Z</time>
      </trkpt>
      <trkpt lat="41.55350415" lon="1.628498341">
        <ele>414.00000</ele>
        <time>2019-10-07T15:29:04Z</time>
      </trkpt>
      <trkpt lat="41.55349988" lon="1.628451319">
        <ele>414.00000</ele>
        <time>2019-10-07T15:29:05Z</time>
      </trkpt>
      <trkpt lat="41.55347566" lon="1.628272868">
        <ele>415.00000</ele>
        <time>2019-10-07T15:29:09Z</time>
      </trkpt>
      <trkpt lat="41.55341480" lon="1.627983022">
        <ele>413.00000</ele>
        <time>2019-10-07T15:29:13Z</time>
      </trkpt>
      <trkpt lat="41.55342922" lon="1.627829382">
        <ele>411.00000</ele>
        <time>2019-10-07T15:29:15Z</time>
      </trkpt>
      <trkpt lat="41.55346065" lon="1.627761237">
        <ele>411.00000</ele>
        <time>2019-10-07T15:29:16Z</time>
      </trkpt>
      <trkpt lat="41.55349703" lon="1.627706000">
        <ele>410.00000</ele>
        <time>2019-10-07T15:29:17Z</time>
      </trkpt>
      <trkpt lat="41.55355202" lon="1.627584714">
        <ele>409.00000</ele>
        <time>2019-10-07T15:29:19Z</time>
      </trkpt>
      <trkpt lat="41.55354724" lon="1.627511959">
        <ele>408.00000</ele>
        <time>2019-10-07T15:29:20Z</time>
      </trkpt>
      <trkpt lat="41.55352829" lon="1.627457393">
        <ele>407.00000</ele>
        <time>2019-10-07T15:29:21Z</time>
      </trkpt>
      <trkpt lat="41.55348672" lon="1.627364270">
        <ele>408.00000</ele>
        <time>2019-10-07T15:29:23Z</time>
      </trkpt>
      <trkpt lat="41.55344414" lon="1.627288414">
        <ele>408.00000</ele>
        <time>2019-10-07T15:29:25Z</time>
      </trkpt>
      <trkpt lat="41.55343551" lon="1.627176683">
        <ele>409.00000</ele>
        <time>2019-10-07T15:29:27Z</time>
      </trkpt>
      <trkpt lat="41.55351765" lon="1.626932937">
        <ele>408.00000</ele>
        <time>2019-10-07T15:29:31Z</time>
      </trkpt>
      <trkpt lat="41.55354682" lon="1.626872504">
        <ele>408.00000</ele>
        <time>2019-10-07T15:29:32Z</time>
      </trkpt>
      <trkpt lat="41.55356677" lon="1.626807209">
        <ele>408.00000</ele>
        <time>2019-10-07T15:29:33Z</time>
      </trkpt>
      <trkpt lat="41.55356870" lon="1.626738812">
        <ele>407.00000</ele>
        <time>2019-10-07T15:29:34Z</time>
      </trkpt>
      <trkpt lat="41.55356124" lon="1.626671757">
        <ele>407.00000</ele>
        <time>2019-10-07T15:29:35Z</time>
      </trkpt>
      <trkpt lat="41.55346333" lon="1.626470591">
        <ele>407.00000</ele>
        <time>2019-10-07T15:29:39Z</time>
      </trkpt>
      <trkpt lat="41.55329888" lon="1.626428682">
        <ele>407.00000</ele>
        <time>2019-10-07T15:29:43Z</time>
      </trkpt>
      <trkpt lat="41.55321523" lon="1.626285603">
        <ele>408.00000</ele>
        <time>2019-10-07T15:29:46Z</time>
      </trkpt>
      <trkpt lat="41.55309428" lon="1.626119138">
        <ele>408.00000</ele>
        <time>2019-10-07T15:29:50Z</time>
      </trkpt>
      <trkpt lat="41.55306402" lon="1.626074463">
        <ele>409.00000</ele>
        <time>2019-10-07T15:29:51Z</time>
      </trkpt>
      <trkpt lat="41.55294600" lon="1.625885870">
        <ele>407.00000</ele>
        <time>2019-10-07T15:29:55Z</time>
      </trkpt>
      <trkpt lat="41.55289454" lon="1.625803057">
        <ele>406.00000</ele>
        <time>2019-10-07T15:29:57Z</time>
      </trkpt>
      <trkpt lat="41.55285699" lon="1.625761399">
        <ele>405.00000</ele>
        <time>2019-10-07T15:29:58Z</time>
      </trkpt>
      <trkpt lat="41.55276697" lon="1.625659475">
        <ele>403.00000</ele>
        <time>2019-10-07T15:30:00Z</time>
      </trkpt>
      <trkpt lat="41.55270586" lon="1.625622678">
        <ele>403.00000</ele>
        <time>2019-10-07T15:30:01Z</time>
      </trkpt>
      <trkpt lat="41.55255289" lon="1.625517904">
        <ele>405.00000</ele>
        <time>2019-10-07T15:30:04Z</time>
      </trkpt>
      <trkpt lat="41.55246907" lon="1.625462165">
        <ele>406.00000</ele>
        <time>2019-10-07T15:30:06Z</time>
      </trkpt>
      <trkpt lat="41.55240520" lon="1.625414639">
        <ele>407.00000</ele>
        <time>2019-10-07T15:30:08Z</time>
      </trkpt>
      <trkpt lat="41.55237629" lon="1.625390248">
        <ele>408.00000</ele>
        <time>2019-10-07T15:30:09Z</time>
      </trkpt>
      <trkpt lat="41.55234293" lon="1.625370047">
        <ele>409.00000</ele>
        <time>2019-10-07T15:30:10Z</time>
      </trkpt>
      <trkpt lat="41.55228978" lon="1.625331575">
        <ele>410.00000</ele>
        <time>2019-10-07T15:30:12Z</time>
      </trkpt>
      <trkpt lat="41.55224880" lon="1.625320259">
        <ele>410.00000</ele>
        <time>2019-10-07T15:30:13Z</time>
      </trkpt>
      <trkpt lat="41.55218057" lon="1.625301316">
        <ele>411.00000</ele>
        <time>2019-10-07T15:30:15Z</time>
      </trkpt>
      <trkpt lat="41.55210731" lon="1.625274410">
        <ele>413.00000</ele>
        <time>2019-10-07T15:30:17Z</time>
      </trkpt>
      <trkpt lat="41.55207680" lon="1.625265441">
        <ele>413.00000</ele>
        <time>2019-10-07T15:30:18Z</time>
      </trkpt>
      <trkpt lat="41.55205300" lon="1.625251444">
        <ele>414.00000</ele>
        <time>2019-10-07T15:30:19Z</time>
      </trkpt>
      <trkpt lat="41.55199885" lon="1.625240296">
        <ele>415.00000</ele>
        <time>2019-10-07T15:30:21Z</time>
      </trkpt>
      <trkpt lat="41.55194537" lon="1.625221353">
        <ele>416.00000</ele>
        <time>2019-10-07T15:30:23Z</time>
      </trkpt>
      <trkpt lat="41.55191528" lon="1.625208863">
        <ele>416.00000</ele>
        <time>2019-10-07T15:30:24Z</time>
      </trkpt>
      <trkpt lat="41.55181176" lon="1.625165697">
        <ele>417.00000</ele>
        <time>2019-10-07T15:30:28Z</time>
      </trkpt>
      <trkpt lat="41.55177472" lon="1.625137785">
        <ele>417.00000</ele>
        <time>2019-10-07T15:30:30Z</time>
      </trkpt>
      <trkpt lat="41.55166366" lon="1.625065533">
        <ele>442.00000</ele>
        <time>2019-10-07T15:57:43Z</time>
      </trkpt>
      <trkpt lat="41.55168922" lon="1.625021193">
        <ele>442.00000</ele>
        <time>2019-10-07T15:57:45Z</time>
      </trkpt>
      <trkpt lat="41.55173004" lon="1.624978864">
        <ele>442.00000</ele>
        <time>2019-10-07T15:57:47Z</time>
      </trkpt>
      <trkpt lat="41.55184177" lon="1.624880880">
        <ele>442.00000</ele>
        <time>2019-10-07T15:57:50Z</time>
      </trkpt>
      <trkpt lat="41.55187731" lon="1.624824386">
        <ele>441.00000</ele>
        <time>2019-10-07T15:57:51Z</time>
      </trkpt>
      <trkpt lat="41.55196214" lon="1.624735537">
        <ele>439.00000</ele>
        <time>2019-10-07T15:57:53Z</time>
      </trkpt>
      <trkpt lat="41.55200916" lon="1.624694215">
        <ele>437.00000</ele>
        <time>2019-10-07T15:57:54Z</time>
      </trkpt>
      <trkpt lat="41.55206247" lon="1.624673930">
        <ele>436.00000</ele>
        <time>2019-10-07T15:57:55Z</time>
      </trkpt>
      <trkpt lat="41.55211754" lon="1.624670829">
        <ele>435.00000</ele>
        <time>2019-10-07T15:57:56Z</time>
      </trkpt>
      <trkpt lat="41.55219457" lon="1.624632943">
        <ele>434.00000</ele>
        <time>2019-10-07T15:57:58Z</time>
      </trkpt>
      <trkpt lat="41.55222298" lon="1.624519368">
        <ele>433.00000</ele>
        <time>2019-10-07T15:58:01Z</time>
      </trkpt>
      <trkpt lat="41.55222306" lon="1.624309150">
        <ele>433.00000</ele>
        <time>2019-10-07T15:58:05Z</time>
      </trkpt>
      <trkpt lat="41.55225240" lon="1.624001618">
        <ele>434.00000</ele>
        <time>2019-10-07T15:58:10Z</time>
      </trkpt>
      <trkpt lat="41.55224536" lon="1.623915787">
        <ele>435.00000</ele>
        <time>2019-10-07T15:58:12Z</time>
      </trkpt>
      <trkpt lat="41.55222424" lon="1.623839093">
        <ele>436.00000</ele>
        <time>2019-10-07T15:58:14Z</time>
      </trkpt>
      <trkpt lat="41.55220068" lon="1.623815875">
        <ele>436.00000</ele>
        <time>2019-10-07T15:58:15Z</time>
      </trkpt>
      <trkpt lat="41.55218308" lon="1.623784191">
        <ele>436.00000</ele>
        <time>2019-10-07T15:58:16Z</time>
      </trkpt>
      <trkpt lat="41.55214075" lon="1.623734654">
        <ele>437.00000</ele>
        <time>2019-10-07T15:58:18Z</time>
      </trkpt>
      <trkpt lat="41.55212139" lon="1.623710347">
        <ele>438.00000</ele>
        <time>2019-10-07T15:58:19Z</time>
      </trkpt>
      <trkpt lat="41.55208996" lon="1.623667683">
        <ele>439.00000</ele>
        <time>2019-10-07T15:58:21Z</time>
      </trkpt>
      <trkpt lat="41.55202249" lon="1.623616218">
        <ele>440.00000</ele>
        <time>2019-10-07T15:58:24Z</time>
      </trkpt>
      <trkpt lat="41.55196834" lon="1.623580930">
        <ele>442.00000</ele>
        <time>2019-10-07T15:58:27Z</time>
      </trkpt>
      <trkpt lat="41.55193615" lon="1.623560730">
        <ele>443.00000</ele>
        <time>2019-10-07T15:58:29Z</time>
      </trkpt>
      <trkpt lat="41.55191796" lon="1.623550420">
        <ele>443.00000</ele>
        <time>2019-10-07T15:58:30Z</time>
      </trkpt>
      <trkpt lat="41.55188770" lon="1.623529046">
        <ele>444.00000</ele>
        <time>2019-10-07T15:58:32Z</time>
      </trkpt>
      <trkpt lat="41.55182752" lon="1.623501805">
        <ele>445.00000</ele>
        <time>2019-10-07T15:58:35Z</time>
      </trkpt>
      <trkpt lat="41.55181059" lon="1.623490992">
        <ele>446.00000</ele>
        <time>2019-10-07T15:58:36Z</time>
      </trkpt>
      <trkpt lat="41.55175854" lon="1.623441958">
        <ele>446.00000</ele>
        <time>2019-10-07T15:58:39Z</time>
      </trkpt>
      <trkpt lat="41.55170389" lon="1.623381609">
        <ele>447.00000</ele>
        <time>2019-10-07T15:58:42Z</time>
      </trkpt>
      <trkpt lat="41.55166843" lon="1.623333999">
        <ele>448.00000</ele>
        <time>2019-10-07T15:58:44Z</time>
      </trkpt>
      <trkpt lat="41.55165578" lon="1.623284798">
        <ele>448.00000</ele>
        <time>2019-10-07T15:58:46Z</time>
      </trkpt>
      <trkpt lat="41.55166508" lon="1.623253785">
        <ele>448.00000</ele>
        <time>2019-10-07T15:58:47Z</time>
      </trkpt>
      <trkpt lat="41.55167749" lon="1.623221766">
        <ele>449.00000</ele>
        <time>2019-10-07T15:58:48Z</time>
      </trkpt>
      <trkpt lat="41.55173968" lon="1.623153872">
        <ele>450.00000</ele>
        <time>2019-10-07T15:58:52Z</time>
      </trkpt>
      <trkpt lat="41.55176089" lon="1.623139204">
        <ele>450.00000</ele>
        <time>2019-10-07T15:58:53Z</time>
      </trkpt>
      <trkpt lat="41.55189114" lon="1.623082123">
        <ele>451.00000</ele>
        <time>2019-10-07T15:58:58Z</time>
      </trkpt>
      <trkpt lat="41.55191620" lon="1.623075334">
        <ele>451.00000</ele>
        <time>2019-10-07T15:58:59Z</time>
      </trkpt>
      <trkpt lat="41.55204889" lon="1.623079441">
        <ele>452.00000</ele>
        <time>2019-10-07T15:59:04Z</time>
      </trkpt>
      <trkpt lat="41.55216959" lon="1.623089164">
        <ele>452.00000</ele>
        <time>2019-10-07T15:59:08Z</time>
      </trkpt>
      <trkpt lat="41.55226388" lon="1.623081034">
        <ele>452.00000</ele>
        <time>2019-10-07T15:59:11Z</time>
      </trkpt>
      <trkpt lat="41.55235315" lon="1.623063096">
        <ele>453.00000</ele>
        <time>2019-10-07T15:59:14Z</time>
      </trkpt>
      <trkpt lat="41.55238836" lon="1.622999897">
        <ele>452.00000</ele>
        <time>2019-10-07T15:59:16Z</time>
      </trkpt>
      <trkpt lat="41.55240520" lon="1.622899398">
        <ele>451.00000</ele>
        <time>2019-10-07T15:59:18Z</time>
      </trkpt>
      <trkpt lat="41.55239632" lon="1.622779704">
        <ele>449.00000</ele>
        <time>2019-10-07T15:59:20Z</time>
      </trkpt>
      <trkpt lat="41.55238576" lon="1.622735364">
        <ele>448.00000</ele>
        <time>2019-10-07T15:59:21Z</time>
      </trkpt>
      <trkpt lat="41.55238232" lon="1.622678618">
        <ele>447.00000</ele>
        <time>2019-10-07T15:59:22Z</time>
      </trkpt>
      <trkpt lat="41.55238777" lon="1.622620280">
        <ele>446.00000</ele>
        <time>2019-10-07T15:59:23Z</time>
      </trkpt>
      <trkpt lat="41.55239271" lon="1.622559595">
        <ele>445.00000</ele>
        <time>2019-10-07T15:59:24Z</time>
      </trkpt>
      <trkpt lat="41.55240353" lon="1.622505532">
        <ele>445.00000</ele>
        <time>2019-10-07T15:59:25Z</time>
      </trkpt>
      <trkpt lat="41.55240931" lon="1.622388856">
        <ele>444.00000</ele>
        <time>2019-10-07T15:59:28Z</time>
      </trkpt>
      <trkpt lat="41.55238450" lon="1.622359016">
        <ele>443.00000</ele>
        <time>2019-10-07T15:59:29Z</time>
      </trkpt>
      <trkpt lat="41.55231485" lon="1.622316939">
        <ele>442.00000</ele>
        <time>2019-10-07T15:59:31Z</time>
      </trkpt>
      <trkpt lat="41.55226782" lon="1.622290788">
        <ele>442.00000</ele>
        <time>2019-10-07T15:59:32Z</time>
      </trkpt>
      <trkpt lat="41.55215626" lon="1.622217027">
        <ele>440.00000</ele>
        <time>2019-10-07T15:59:34Z</time>
      </trkpt>
      <trkpt lat="41.55208795" lon="1.622164305">
        <ele>439.00000</ele>
        <time>2019-10-07T15:59:35Z</time>
      </trkpt>
      <trkpt lat="41.55203782" lon="1.622106386">
        <ele>438.00000</ele>
        <time>2019-10-07T15:59:36Z</time>
      </trkpt>
      <trkpt lat="41.55195250" lon="1.621952075">
        <ele>437.00000</ele>
        <time>2019-10-07T15:59:38Z</time>
      </trkpt>
      <trkpt lat="41.55190397" lon="1.621774546">
        <ele>435.00000</ele>
        <time>2019-10-07T15:59:40Z</time>
      </trkpt>
      <trkpt lat="41.55185736" lon="1.621591988">
        <ele>434.00000</ele>
        <time>2019-10-07T15:59:42Z</time>
      </trkpt>
      <trkpt lat="41.55184764" lon="1.621503559">
        <ele>433.00000</ele>
        <time>2019-10-07T15:59:43Z</time>
      </trkpt>
      <trkpt lat="41.55183683" lon="1.621307171">
        <ele>430.00000</ele>
        <time>2019-10-07T15:59:45Z</time>
      </trkpt>
      <trkpt lat="41.55183741" lon="1.621199380">
        <ele>430.00000</ele>
        <time>2019-10-07T15:59:46Z</time>
      </trkpt>
      <trkpt lat="41.55183741" lon="1.621084967">
        <ele>428.00000</ele>
        <time>2019-10-07T15:59:47Z</time>
      </trkpt>
      <trkpt lat="41.55183993" lon="1.620975835">
        <ele>427.00000</ele>
        <time>2019-10-07T15:59:48Z</time>
      </trkpt>
      <trkpt lat="41.55185158" lon="1.620885478">
        <ele>426.00000</ele>
        <time>2019-10-07T15:59:49Z</time>
      </trkpt>
      <trkpt lat="41.55184789" lon="1.620797133">
        <ele>425.00000</ele>
        <time>2019-10-07T15:59:50Z</time>
      </trkpt>
      <trkpt lat="41.55183716" lon="1.620711805">
        <ele>424.00000</ele>
        <time>2019-10-07T15:59:51Z</time>
      </trkpt>
      <trkpt lat="41.55181587" lon="1.620530923">
        <ele>423.00000</ele>
        <time>2019-10-07T15:59:53Z</time>
      </trkpt>
      <trkpt lat="41.55182040" lon="1.620440986">
        <ele>422.00000</ele>
        <time>2019-10-07T15:59:54Z</time>
      </trkpt>
      <trkpt lat="41.55184580" lon="1.620356747">
        <ele>421.00000</ele>
        <time>2019-10-07T15:59:55Z</time>
      </trkpt>
      <trkpt lat="41.55192861" lon="1.620238060">
        <ele>420.00000</ele>
        <time>2019-10-07T15:59:57Z</time>
      </trkpt>
      <trkpt lat="41.55196071" lon="1.620190031">
        <ele>419.00000</ele>
        <time>2019-10-07T15:59:58Z</time>
      </trkpt>
      <trkpt lat="41.55197018" lon="1.620132699">
        <ele>419.00000</ele>
        <time>2019-10-07T15:59:59Z</time>
      </trkpt>
      <trkpt lat="41.55193590" lon="1.620009317">
        <ele>417.00000</ele>
        <time>2019-10-07T16:00:01Z</time>
      </trkpt>
      <trkpt lat="41.55187907" lon="1.619884176">
        <ele>416.00000</ele>
        <time>2019-10-07T16:00:03Z</time>
      </trkpt>
      <trkpt lat="41.55184512" lon="1.619807397">
        <ele>416.00000</ele>
        <time>2019-10-07T16:00:04Z</time>
      </trkpt>
      <trkpt lat="41.55182593" lon="1.619719471">
        <ele>415.00000</ele>
        <time>2019-10-07T16:00:05Z</time>
      </trkpt>
      <trkpt lat="41.55181160" lon="1.619575470">
        <ele>413.00000</ele>
        <time>2019-10-07T16:00:07Z</time>
      </trkpt>
      <trkpt lat="41.55179894" lon="1.619531717">
        <ele>412.00000</ele>
        <time>2019-10-07T16:00:08Z</time>
      </trkpt>
      <trkpt lat="41.55177991" lon="1.619490562">
        <ele>412.00000</ele>
        <time>2019-10-07T16:00:09Z</time>
      </trkpt>
      <trkpt lat="41.55169794" lon="1.619453430">
        <ele>410.00000</ele>
        <time>2019-10-07T16:00:11Z</time>
      </trkpt>
      <trkpt lat="41.55164924" lon="1.619435409">
        <ele>409.00000</ele>
        <time>2019-10-07T16:00:12Z</time>
      </trkpt>
      <trkpt lat="41.55158721" lon="1.619398109">
        <ele>408.00000</ele>
        <time>2019-10-07T16:00:13Z</time>
      </trkpt>
      <trkpt lat="41.55152460" lon="1.619351422">
        <ele>407.00000</ele>
        <time>2019-10-07T16:00:14Z</time>
      </trkpt>
      <trkpt lat="41.55147347" lon="1.619300208">
        <ele>407.00000</ele>
        <time>2019-10-07T16:00:15Z</time>
      </trkpt>
      <trkpt lat="41.55139862" lon="1.619183281">
        <ele>404.00000</ele>
        <time>2019-10-07T16:00:17Z</time>
      </trkpt>
      <trkpt lat="41.55139007" lon="1.619115555">
        <ele>404.00000</ele>
        <time>2019-10-07T16:00:18Z</time>
      </trkpt>
      <trkpt lat="41.55139485" lon="1.619033580">
        <ele>403.00000</ele>
        <time>2019-10-07T16:00:19Z</time>
      </trkpt>
      <trkpt lat="41.55140985" lon="1.618880610">
        <ele>402.00000</ele>
        <time>2019-10-07T16:00:21Z</time>
      </trkpt>
      <trkpt lat="41.55140826" lon="1.618758486">
        <ele>400.00000</ele>
        <time>2019-10-07T16:00:23Z</time>
      </trkpt>
      <trkpt lat="41.55135218" lon="1.618646420">
        <ele>398.00000</ele>
        <time>2019-10-07T16:00:25Z</time>
      </trkpt>
      <trkpt lat="41.55131170" lon="1.618577605">
        <ele>397.00000</ele>
        <time>2019-10-07T16:00:26Z</time>
      </trkpt>
      <trkpt lat="41.55127122" lon="1.618437962">
        <ele>395.00000</ele>
        <time>2019-10-07T16:00:28Z</time>
      </trkpt>
      <trkpt lat="41.55126493" lon="1.618363363">
        <ele>394.00000</ele>
        <time>2019-10-07T16:00:29Z</time>
      </trkpt>
      <trkpt lat="41.55126971" lon="1.618290692">
        <ele>394.00000</ele>
        <time>2019-10-07T16:00:30Z</time>
      </trkpt>
      <trkpt lat="41.55133383" lon="1.618179464">
        <ele>392.00000</ele>
        <time>2019-10-07T16:00:32Z</time>
      </trkpt>
      <trkpt lat="41.55139057" lon="1.618140405">
        <ele>391.00000</ele>
        <time>2019-10-07T16:00:33Z</time>
      </trkpt>
      <trkpt lat="41.55146165" lon="1.618112409">
        <ele>389.00000</ele>
        <time>2019-10-07T16:00:34Z</time>
      </trkpt>
      <trkpt lat="41.55153441" lon="1.618080055">
        <ele>388.00000</ele>
        <time>2019-10-07T16:00:35Z</time>
      </trkpt>
      <trkpt lat="41.55160699" lon="1.618026327">
        <ele>387.00000</ele>
        <time>2019-10-07T16:00:36Z</time>
      </trkpt>
      <trkpt lat="41.55166978" lon="1.617966480">
        <ele>385.00000</ele>
        <time>2019-10-07T16:00:37Z</time>
      </trkpt>
      <trkpt lat="41.55174647" lon="1.617903281">
        <ele>384.00000</ele>
        <time>2019-10-07T16:00:38Z</time>
      </trkpt>
      <trkpt lat="41.55182501" lon="1.617837902">
        <ele>383.00000</ele>
        <time>2019-10-07T16:00:39Z</time>
      </trkpt>
      <trkpt lat="41.55199298" lon="1.617709910">
        <ele>381.00000</ele>
        <time>2019-10-07T16:00:41Z</time>
      </trkpt>
      <trkpt lat="41.55208393" lon="1.617663810">
        <ele>381.00000</ele>
        <time>2019-10-07T16:00:42Z</time>
      </trkpt>
      <trkpt lat="41.55216540" lon="1.617626007">
        <ele>381.00000</ele>
        <time>2019-10-07T16:00:43Z</time>
      </trkpt>
      <trkpt lat="41.55229507" lon="1.617551157">
        <ele>382.00000</ele>
        <time>2019-10-07T16:00:45Z</time>
      </trkpt>
      <trkpt lat="41.55239942" lon="1.617482844">
        <ele>383.00000</ele>
        <time>2019-10-07T16:00:47Z</time>
      </trkpt>
      <trkpt lat="41.55255675" lon="1.617309339">
        <ele>381.00000</ele>
        <time>2019-10-07T16:00:50Z</time>
      </trkpt>
      <trkpt lat="41.55258424" lon="1.617254186">
        <ele>381.00000</ele>
        <time>2019-10-07T16:00:51Z</time>
      </trkpt>
      <trkpt lat="41.55260402" lon="1.617199117">
        <ele>381.00000</ele>
        <time>2019-10-07T16:00:52Z</time>
      </trkpt>
      <trkpt lat="41.55263286" lon="1.617047488">
        <ele>380.00000</ele>
        <time>2019-10-07T16:00:54Z</time>
      </trkpt>
      <trkpt lat="41.55264023" lon="1.616980852">
        <ele>379.00000</ele>
        <time>2019-10-07T16:00:55Z</time>
      </trkpt>
      <trkpt lat="41.55260788" lon="1.616823859">
        <ele>378.00000</ele>
        <time>2019-10-07T16:00:57Z</time>
      </trkpt>
      <trkpt lat="41.55257904" lon="1.616747165">
        <ele>377.00000</ele>
        <time>2019-10-07T16:00:58Z</time>
      </trkpt>
      <trkpt lat="41.55254468" lon="1.616666363">
        <ele>376.00000</ele>
        <time>2019-10-07T16:00:59Z</time>
      </trkpt>
      <trkpt lat="41.55247620" lon="1.616515908">
        <ele>376.00000</ele>
        <time>2019-10-07T16:01:02Z</time>
      </trkpt>
      <trkpt lat="41.55237654" lon="1.616403842">
        <ele>378.00000</ele>
        <time>2019-10-07T16:01:07Z</time>
      </trkpt>
      <trkpt lat="41.55230211" lon="1.616377020">
        <ele>379.00000</ele>
        <time>2019-10-07T16:01:10Z</time>
      </trkpt>
      <trkpt lat="41.55224964" lon="1.616350198">
        <ele>380.00000</ele>
        <time>2019-10-07T16:01:12Z</time>
      </trkpt>
      <trkpt lat="41.55218107" lon="1.616300996">
        <ele>381.00000</ele>
        <time>2019-10-07T16:01:15Z</time>
      </trkpt>
      <trkpt lat="41.55213237" lon="1.616279119">
        <ele>382.00000</ele>
        <time>2019-10-07T16:01:17Z</time>
      </trkpt>
      <trkpt lat="41.55208309" lon="1.616252129">
        <ele>383.00000</ele>
        <time>2019-10-07T16:01:19Z</time>
      </trkpt>
      <trkpt lat="41.55201394" lon="1.616201503">
        <ele>384.00000</ele>
        <time>2019-10-07T16:01:22Z</time>
      </trkpt>
      <trkpt lat="41.55197571" lon="1.616159928">
        <ele>385.00000</ele>
        <time>2019-10-07T16:01:24Z</time>
      </trkpt>
      <trkpt lat="41.55195459" lon="1.616138303">
        <ele>385.00000</ele>
        <time>2019-10-07T16:01:25Z</time>
      </trkpt>
      <trkpt lat="41.55185761" lon="1.616071332">
        <ele>387.00000</ele>
        <time>2019-10-07T16:01:29Z</time>
      </trkpt>
      <trkpt lat="41.55180162" lon="1.616043504">
        <ele>387.00000</ele>
        <time>2019-10-07T16:01:31Z</time>
      </trkpt>
      <trkpt lat="41.55170741" lon="1.616011317">
        <ele>388.00000</ele>
        <time>2019-10-07T16:01:34Z</time>
      </trkpt>
      <trkpt lat="41.55159677" lon="1.615968989">
        <ele>389.00000</ele>
        <time>2019-10-07T16:01:38Z</time>
      </trkpt>
      <trkpt lat="41.55157539" lon="1.615968821">
        <ele>389.00000</ele>
        <time>2019-10-07T16:01:39Z</time>
      </trkpt>
      <trkpt lat="41.55150205" lon="1.615955997">
        <ele>390.00000</ele>
        <time>2019-10-07T16:01:42Z</time>
      </trkpt>
      <trkpt lat="41.55145864" lon="1.615960691">
        <ele>391.00000</ele>
        <time>2019-10-07T16:01:44Z</time>
      </trkpt>
      <trkpt lat="41.55141379" lon="1.615970917">
        <ele>392.00000</ele>
        <time>2019-10-07T16:01:46Z</time>
      </trkpt>
      <trkpt lat="41.55137121" lon="1.615973096">
        <ele>393.00000</ele>
        <time>2019-10-07T16:01:48Z</time>
      </trkpt>
      <trkpt lat="41.55131413" lon="1.615964965">
        <ele>394.00000</ele>
        <time>2019-10-07T16:01:51Z</time>
      </trkpt>
      <trkpt lat="41.55122159" lon="1.615935880">
        <ele>395.00000</ele>
        <time>2019-10-07T16:01:55Z</time>
      </trkpt>
      <trkpt lat="41.55117432" lon="1.615915764">
        <ele>395.00000</ele>
        <time>2019-10-07T16:01:57Z</time>
      </trkpt>
      <trkpt lat="41.55113576" lon="1.615901933">
        <ele>396.00000</ele>
        <time>2019-10-07T16:01:59Z</time>
      </trkpt>
      <trkpt lat="41.55100911" lon="1.615920122">
        <ele>396.00000</ele>
        <time>2019-10-07T16:02:03Z</time>
      </trkpt>
      <trkpt lat="41.55087308" lon="1.615965049">
        <ele>397.00000</ele>
        <time>2019-10-07T16:02:07Z</time>
      </trkpt>
      <trkpt lat="41.55077056" lon="1.615962870">
        <ele>397.00000</ele>
        <time>2019-10-07T16:02:10Z</time>
      </trkpt>
      <trkpt lat="41.55059362" lon="1.615951135">
        <ele>398.00000</ele>
        <time>2019-10-07T16:02:15Z</time>
      </trkpt>
      <trkpt lat="41.55053981" lon="1.615975107">
        <ele>398.00000</ele>
        <time>2019-10-07T16:02:17Z</time>
      </trkpt>
      <trkpt lat="41.55043940" lon="1.616012910">
        <ele>399.00000</ele>
        <time>2019-10-07T16:02:20Z</time>
      </trkpt>
      <trkpt lat="41.55027410" lon="1.616007126">
        <ele>399.00000</ele>
        <time>2019-10-07T16:02:25Z</time>
      </trkpt>
      <trkpt lat="41.55016606" lon="1.616024225">
        <ele>400.00000</ele>
        <time>2019-10-07T16:02:28Z</time>
      </trkpt>
      <trkpt lat="41.55012382" lon="1.616033026">
        <ele>401.00000</ele>
        <time>2019-10-07T16:02:30Z</time>
      </trkpt>
      <trkpt lat="41.55009331" lon="1.616009306">
        <ele>401.00000</ele>
        <time>2019-10-07T16:02:31Z</time>
      </trkpt>
      <trkpt lat="41.55006213" lon="1.615917775">
        <ele>401.00000</ele>
        <time>2019-10-07T16:02:33Z</time>
      </trkpt>
      <trkpt lat="41.55011200" lon="1.615803362">
        <ele>401.00000</ele>
        <time>2019-10-07T16:02:36Z</time>
      </trkpt>
      <trkpt lat="41.55028768" lon="1.615727087">
        <ele>401.00000</ele>
        <time>2019-10-07T16:02:40Z</time>
      </trkpt>
      <trkpt lat="41.55033739" lon="1.615709234">
        <ele>400.00000</ele>
        <time>2019-10-07T16:02:41Z</time>
      </trkpt>
      <trkpt lat="41.55039271" lon="1.615687524">
        <ele>400.00000</ele>
        <time>2019-10-07T16:02:42Z</time>
      </trkpt>
      <trkpt lat="41.55043780" lon="1.615662714">
        <ele>399.00000</ele>
        <time>2019-10-07T16:02:43Z</time>
      </trkpt>
      <trkpt lat="41.55052967" lon="1.615577302">
        <ele>398.00000</ele>
        <time>2019-10-07T16:02:45Z</time>
      </trkpt>
      <trkpt lat="41.55063293" lon="1.615503877">
        <ele>399.00000</ele>
        <time>2019-10-07T16:02:47Z</time>
      </trkpt>
      <trkpt lat="41.55077098" lon="1.615402707">
        <ele>399.00000</ele>
        <time>2019-10-07T16:02:50Z</time>
      </trkpt>
      <trkpt lat="41.55093250" lon="1.615316541">
        <ele>399.00000</ele>
        <time>2019-10-07T16:02:54Z</time>
      </trkpt>
      <trkpt lat="41.55098481" lon="1.615291815">
        <ele>398.00000</ele>
        <time>2019-10-07T16:02:55Z</time>
      </trkpt>
      <trkpt lat="41.55104063" lon="1.615260383">
        <ele>397.00000</ele>
        <time>2019-10-07T16:02:56Z</time>
      </trkpt>
      <trkpt lat="41.55112931" lon="1.615164997">
        <ele>396.00000</ele>
        <time>2019-10-07T16:02:58Z</time>
      </trkpt>
      <trkpt lat="41.55116024" lon="1.615108838">
        <ele>395.00000</ele>
        <time>2019-10-07T16:02:59Z</time>
      </trkpt>
      <trkpt lat="41.55117977" lon="1.615045471">
        <ele>395.00000</ele>
        <time>2019-10-07T16:03:00Z</time>
      </trkpt>
      <trkpt lat="41.55122034" lon="1.614821506">
        <ele>394.00000</ele>
        <time>2019-10-07T16:03:03Z</time>
      </trkpt>
      <trkpt lat="41.55115689" lon="1.614685300">
        <ele>392.00000</ele>
        <time>2019-10-07T16:03:05Z</time>
      </trkpt>
      <trkpt lat="41.55112805" lon="1.614630566">
        <ele>392.00000</ele>
        <time>2019-10-07T16:03:06Z</time>
      </trkpt>
      <trkpt lat="41.55109603" lon="1.614587148">
        <ele>393.00000</ele>
        <time>2019-10-07T16:03:07Z</time>
      </trkpt>
      <trkpt lat="41.55103493" lon="1.614542054">
        <ele>394.00000</ele>
        <time>2019-10-07T16:03:09Z</time>
      </trkpt>
      <trkpt lat="41.55100417" lon="1.614526798">
        <ele>394.00000</ele>
        <time>2019-10-07T16:03:10Z</time>
      </trkpt>
      <trkpt lat="41.55097433" lon="1.614507604">
        <ele>394.00000</ele>
        <time>2019-10-07T16:03:11Z</time>
      </trkpt>
      <trkpt lat="41.55094097" lon="1.614485392">
        <ele>395.00000</ele>
        <time>2019-10-07T16:03:12Z</time>
      </trkpt>
      <trkpt lat="41.55081792" lon="1.614385647">
        <ele>396.00000</ele>
        <time>2019-10-07T16:03:16Z</time>
      </trkpt>
      <trkpt lat="41.55073570" lon="1.614297637">
        <ele>398.00000</ele>
        <time>2019-10-07T16:03:19Z</time>
      </trkpt>
      <trkpt lat="41.55064106" lon="1.614178447">
        <ele>399.00000</ele>
        <time>2019-10-07T16:03:23Z</time>
      </trkpt>
      <trkpt lat="41.55052003" lon="1.614048779">
        <ele>399.00000</ele>
        <time>2019-10-07T16:03:27Z</time>
      </trkpt>
      <trkpt lat="41.55043135" lon="1.614005779">
        <ele>400.00000</ele>
        <time>2019-10-07T16:03:30Z</time>
      </trkpt>
      <trkpt lat="41.55036932" lon="1.614012150">
        <ele>400.00000</ele>
        <time>2019-10-07T16:03:32Z</time>
      </trkpt>
      <trkpt lat="41.55030051" lon="1.614016843">
        <ele>400.00000</ele>
        <time>2019-10-07T16:03:34Z</time>
      </trkpt>
      <trkpt lat="41.55013203" lon="1.614025225">
        <ele>401.00000</ele>
        <time>2019-10-07T16:03:38Z</time>
      </trkpt>
      <trkpt lat="41.55009649" lon="1.614023633">
        <ele>401.00000</ele>
        <time>2019-10-07T16:03:39Z</time>
      </trkpt>
      <trkpt lat="41.54978846" lon="1.613957332">
        <ele>399.00000</ele>
        <time>2019-10-07T16:03:45Z</time>
      </trkpt>
      <trkpt lat="41.54967949" lon="1.613904945">
        <ele>397.00000</ele>
        <time>2019-10-07T16:03:47Z</time>
      </trkpt>
      <trkpt lat="41.54967421" lon="1.613807128">
        <ele>396.00000</ele>
        <time>2019-10-07T16:03:49Z</time>
      </trkpt>
      <trkpt lat="41.54975728" lon="1.613711407">
        <ele>396.00000</ele>
        <time>2019-10-07T16:03:51Z</time>
      </trkpt>
      <trkpt lat="41.54984654" lon="1.613607220">
        <ele>394.00000</ele>
        <time>2019-10-07T16:03:53Z</time>
      </trkpt>
      <trkpt lat="41.54994419" lon="1.613494902">
        <ele>393.00000</ele>
        <time>2019-10-07T16:03:55Z</time>
      </trkpt>
      <trkpt lat="41.55000094" lon="1.613452238">
        <ele>392.00000</ele>
        <time>2019-10-07T16:03:56Z</time>
      </trkpt>
      <trkpt lat="41.55007135" lon="1.613442935">
        <ele>392.00000</ele>
        <time>2019-10-07T16:03:57Z</time>
      </trkpt>
      <trkpt lat="41.55020914" lon="1.613428937">
        <ele>391.00000</ele>
        <time>2019-10-07T16:03:59Z</time>
      </trkpt>
      <trkpt lat="41.55033982" lon="1.613323995">
        <ele>389.00000</ele>
        <time>2019-10-07T16:04:01Z</time>
      </trkpt>
      <trkpt lat="41.55040604" lon="1.613284852">
        <ele>388.00000</ele>
        <time>2019-10-07T16:04:02Z</time>
      </trkpt>
      <trkpt lat="41.55051819" lon="1.613259371">
        <ele>387.00000</ele>
        <time>2019-10-07T16:04:04Z</time>
      </trkpt>
      <trkpt lat="41.55055741" lon="1.613242020">
        <ele>386.00000</ele>
        <time>2019-10-07T16:04:05Z</time>
      </trkpt>
      <trkpt lat="41.55059169" lon="1.613203547">
        <ele>386.00000</ele>
        <time>2019-10-07T16:04:06Z</time>
      </trkpt>
      <trkpt lat="41.55062941" lon="1.613074382">
        <ele>385.00000</ele>
        <time>2019-10-07T16:04:08Z</time>
      </trkpt>
      <trkpt lat="41.55063495" lon="1.612997772">
        <ele>384.00000</ele>
        <time>2019-10-07T16:04:09Z</time>
      </trkpt>
      <trkpt lat="41.55062933" lon="1.612917389">
        <ele>383.00000</ele>
        <time>2019-10-07T16:04:10Z</time>
      </trkpt>
      <trkpt lat="41.55061734" lon="1.612837761">
        <ele>383.00000</ele>
        <time>2019-10-07T16:04:11Z</time>
      </trkpt>
      <trkpt lat="41.55058750" lon="1.612752769">
        <ele>383.00000</ele>
        <time>2019-10-07T16:04:12Z</time>
      </trkpt>
      <trkpt lat="41.55055473" lon="1.612695856">
        <ele>383.00000</ele>
        <time>2019-10-07T16:04:13Z</time>
      </trkpt>
      <trkpt lat="41.55045658" lon="1.612601811">
        <ele>383.00000</ele>
        <time>2019-10-07T16:04:16Z</time>
      </trkpt>
      <trkpt lat="41.55042892" lon="1.612536767">
        <ele>384.00000</ele>
        <time>2019-10-07T16:04:18Z</time>
      </trkpt>
      <trkpt lat="41.55044417" lon="1.612494103">
        <ele>384.00000</ele>
        <time>2019-10-07T16:04:19Z</time>
      </trkpt>
      <trkpt lat="41.55054819" lon="1.612397041">
        <ele>384.00000</ele>
        <time>2019-10-07T16:04:22Z</time>
      </trkpt>
      <trkpt lat="41.55059723" lon="1.612365776">
        <ele>384.00000</ele>
        <time>2019-10-07T16:04:23Z</time>
      </trkpt>
      <trkpt lat="41.55067250" lon="1.612303080">
        <ele>383.00000</ele>
        <time>2019-10-07T16:04:25Z</time>
      </trkpt>
      <trkpt lat="41.55069638" lon="1.612251698">
        <ele>383.00000</ele>
        <time>2019-10-07T16:04:26Z</time>
      </trkpt>
      <trkpt lat="41.55071122" lon="1.612197216">
        <ele>382.00000</ele>
        <time>2019-10-07T16:04:27Z</time>
      </trkpt>
      <trkpt lat="41.55069898" lon="1.612135609">
        <ele>381.00000</ele>
        <time>2019-10-07T16:04:28Z</time>
      </trkpt>
      <trkpt lat="41.55069362" lon="1.612078612">
        <ele>381.00000</ele>
        <time>2019-10-07T16:04:29Z</time>
      </trkpt>
      <trkpt lat="41.55069110" lon="1.612006528">
        <ele>380.00000</ele>
        <time>2019-10-07T16:04:30Z</time>
      </trkpt>
      <trkpt lat="41.55067342" lon="1.611769655">
        <ele>380.00000</ele>
        <time>2019-10-07T16:04:33Z</time>
      </trkpt>
      <trkpt lat="41.55067451" lon="1.611702768">
        <ele>380.00000</ele>
        <time>2019-10-07T16:04:34Z</time>
      </trkpt>
      <trkpt lat="41.55062589" lon="1.611537309">
        <ele>381.00000</ele>
        <time>2019-10-07T16:04:37Z</time>
      </trkpt>
      <trkpt lat="41.55061097" lon="1.611481066">
        <ele>380.00000</ele>
        <time>2019-10-07T16:04:38Z</time>
      </trkpt>
      <trkpt lat="41.55060083" lon="1.611410658">
        <ele>380.00000</ele>
        <time>2019-10-07T16:04:39Z</time>
      </trkpt>
      <trkpt lat="41.55056563" lon="1.611135480">
        <ele>380.00000</ele>
        <time>2019-10-07T16:04:43Z</time>
      </trkpt>
      <trkpt lat="41.55053755" lon="1.610797438">
        <ele>380.00000</ele>
        <time>2019-10-07T16:04:48Z</time>
      </trkpt>
      <trkpt lat="41.55054886" lon="1.610731305">
        <ele>381.00000</ele>
        <time>2019-10-07T16:04:49Z</time>
      </trkpt>
      <trkpt lat="41.55058306" lon="1.610424863">
        <ele>380.00000</ele>
        <time>2019-10-07T16:04:53Z</time>
      </trkpt>
      <trkpt lat="41.55059563" lon="1.610336098">
        <ele>379.00000</ele>
        <time>2019-10-07T16:04:54Z</time>
      </trkpt>
      <trkpt lat="41.55064450" lon="1.610073577">
        <ele>379.00000</ele>
        <time>2019-10-07T16:04:58Z</time>
      </trkpt>
      <trkpt lat="41.55064769" lon="1.609831592">
        <ele>380.00000</ele>
        <time>2019-10-07T16:05:02Z</time>
      </trkpt>
      <trkpt lat="41.55064517" lon="1.609771912">
        <ele>380.00000</ele>
        <time>2019-10-07T16:05:03Z</time>
      </trkpt>
      <trkpt lat="41.55069152" lon="1.609658421">
        <ele>379.00000</ele>
        <time>2019-10-07T16:05:06Z</time>
      </trkpt>
      <trkpt lat="41.55072287" lon="1.609637802">
        <ele>379.00000</ele>
        <time>2019-10-07T16:05:07Z</time>
      </trkpt>
      <trkpt lat="41.55079093" lon="1.609591534">
        <ele>378.00000</ele>
        <time>2019-10-07T16:05:09Z</time>
      </trkpt>
      <trkpt lat="41.55088573" lon="1.609458178">
        <ele>377.00000</ele>
        <time>2019-10-07T16:05:12Z</time>
      </trkpt>
      <trkpt lat="41.55095991" lon="1.609305627">
        <ele>376.00000</ele>
        <time>2019-10-07T16:05:15Z</time>
      </trkpt>
      <trkpt lat="41.55102521" lon="1.609268160">
        <ele>374.00000</ele>
        <time>2019-10-07T16:05:17Z</time>
      </trkpt>
      <trkpt lat="41.55109226" lon="1.609279224">
        <ele>373.00000</ele>
        <time>2019-10-07T16:05:19Z</time>
      </trkpt>
      <trkpt lat="41.55112931" lon="1.609305543">
        <ele>372.00000</ele>
        <time>2019-10-07T16:05:20Z</time>
      </trkpt>
      <trkpt lat="41.55117399" lon="1.609326079">
        <ele>371.00000</ele>
        <time>2019-10-07T16:05:21Z</time>
      </trkpt>
      <trkpt lat="41.55129108" lon="1.609346531">
        <ele>369.00000</ele>
        <time>2019-10-07T16:05:23Z</time>
      </trkpt>
      <trkpt lat="41.55143072" lon="1.609337227">
        <ele>367.00000</ele>
        <time>2019-10-07T16:05:25Z</time>
      </trkpt>
      <trkpt lat="41.55150272" lon="1.609323732">
        <ele>365.00000</ele>
        <time>2019-10-07T16:05:26Z</time>
      </trkpt>
      <trkpt lat="41.55156919" lon="1.609319122">
        <ele>364.00000</ele>
        <time>2019-10-07T16:05:27Z</time>
      </trkpt>
      <trkpt lat="41.55161102" lon="1.609330018">
        <ele>363.00000</ele>
        <time>2019-10-07T16:05:28Z</time>
      </trkpt>
      <trkpt lat="41.55165452" lon="1.609338317">
        <ele>363.00000</ele>
        <time>2019-10-07T16:05:29Z</time>
      </trkpt>
      <trkpt lat="41.55169685" lon="1.609345944">
        <ele>362.00000</ele>
        <time>2019-10-07T16:05:30Z</time>
      </trkpt>
      <trkpt lat="41.55173675" lon="1.609292719">
        <ele>361.00000</ele>
        <time>2019-10-07T16:05:31Z</time>
      </trkpt>
      <trkpt lat="41.55179173" lon="1.609174869">
        <ele>360.00000</ele>
        <time>2019-10-07T16:05:33Z</time>
      </trkpt>
      <trkpt lat="41.55180682" lon="1.609107311">
        <ele>359.00000</ele>
        <time>2019-10-07T16:05:34Z</time>
      </trkpt>
      <trkpt lat="41.55181176" lon="1.609029443">
        <ele>358.00000</ele>
        <time>2019-10-07T16:05:35Z</time>
      </trkpt>
      <trkpt lat="41.55181017" lon="1.608940344">
        <ele>357.00000</ele>
        <time>2019-10-07T16:05:36Z</time>
      </trkpt>
      <trkpt lat="41.55180690" lon="1.608843030">
        <ele>356.00000</ele>
        <time>2019-10-07T16:05:37Z</time>
      </trkpt>
      <trkpt lat="41.55180280" lon="1.608744543">
        <ele>355.00000</ele>
        <time>2019-10-07T16:05:38Z</time>
      </trkpt>
      <trkpt lat="41.55180229" lon="1.608657203">
        <ele>353.00000</ele>
        <time>2019-10-07T16:05:39Z</time>
      </trkpt>
      <trkpt lat="41.55180707" lon="1.608582437">
        <ele>353.00000</ele>
        <time>2019-10-07T16:05:40Z</time>
      </trkpt>
      <trkpt lat="41.55181629" lon="1.608519321">
        <ele>352.00000</ele>
        <time>2019-10-07T16:05:41Z</time>
      </trkpt>
      <trkpt lat="41.55182559" lon="1.608458133">
        <ele>351.00000</ele>
        <time>2019-10-07T16:05:42Z</time>
      </trkpt>
      <trkpt lat="41.55182166" lon="1.608396526">
        <ele>350.00000</ele>
        <time>2019-10-07T16:05:43Z</time>
      </trkpt>
      <trkpt lat="41.55182266" lon="1.608346486">
        <ele>350.00000</ele>
        <time>2019-10-07T16:05:44Z</time>
      </trkpt>
      <trkpt lat="41.55181302" lon="1.608251016">
        <ele>350.00000</ele>
        <time>2019-10-07T16:05:46Z</time>
      </trkpt>
      <trkpt lat="41.55172711" lon="1.608079858">
        <ele>350.00000</ele>
        <time>2019-10-07T16:05:50Z</time>
      </trkpt>
      <trkpt lat="41.55165133" lon="1.607841812">
        <ele>350.00000</ele>
        <time>2019-10-07T16:05:55Z</time>
      </trkpt>
      <trkpt lat="41.55164681" lon="1.607640394">
        <ele>351.00000</ele>
        <time>2019-10-07T16:05:59Z</time>
      </trkpt>
      <trkpt lat="41.55166072" lon="1.607596641">
        <ele>351.00000</ele>
        <time>2019-10-07T16:06:00Z</time>
      </trkpt>
      <trkpt lat="41.55168159" lon="1.607516007">
        <ele>350.00000</ele>
        <time>2019-10-07T16:06:02Z</time>
      </trkpt>
      <trkpt lat="41.55166064" lon="1.607434116">
        <ele>351.00000</ele>
        <time>2019-10-07T16:06:04Z</time>
      </trkpt>
      <trkpt lat="41.55159803" lon="1.607335293">
        <ele>351.00000</ele>
        <time>2019-10-07T16:06:07Z</time>
      </trkpt>
      <trkpt lat="41.55156190" lon="1.607264550">
        <ele>351.00000</ele>
        <time>2019-10-07T16:06:09Z</time>
      </trkpt>
      <trkpt lat="41.55154874" lon="1.607224568">
        <ele>351.00000</ele>
        <time>2019-10-07T16:06:10Z</time>
      </trkpt>
      <trkpt lat="41.55150298" lon="1.607049470">
        <ele>351.00000</ele>
        <time>2019-10-07T16:06:15Z</time>
      </trkpt>
      <trkpt lat="41.55144296" lon="1.606909576">
        <ele>352.00000</ele>
        <time>2019-10-07T16:06:19Z</time>
      </trkpt>
      <trkpt lat="41.55143558" lon="1.606872361">
        <ele>352.00000</ele>
        <time>2019-10-07T16:06:20Z</time>
      </trkpt>
      <trkpt lat="41.55147632" lon="1.606803545">
        <ele>353.00000</ele>
        <time>2019-10-07T16:06:23Z</time>
      </trkpt>
      <trkpt lat="41.55150415" lon="1.606800025">
        <ele>353.00000</ele>
        <time>2019-10-07T16:06:24Z</time>
      </trkpt>
      <trkpt lat="41.55155126" lon="1.606828691">
        <ele>354.00000</ele>
        <time>2019-10-07T16:06:26Z</time>
      </trkpt>
      <trkpt lat="41.55156936" lon="1.606852579">
        <ele>354.00000</ele>
        <time>2019-10-07T16:06:27Z</time>
      </trkpt>
      <trkpt lat="41.55162946" lon="1.606892980">
        <ele>356.00000</ele>
        <time>2019-10-07T16:06:30Z</time>
      </trkpt>
      <trkpt lat="41.55164849" lon="1.606903206">
        <ele>356.00000</ele>
        <time>2019-10-07T16:06:31Z</time>
      </trkpt>
      <trkpt lat="41.55166801" lon="1.606911420">
        <ele>357.00000</ele>
        <time>2019-10-07T16:06:32Z</time>
      </trkpt>
      <trkpt lat="41.55168981" lon="1.606919299">
        <ele>357.00000</ele>
        <time>2019-10-07T16:06:33Z</time>
      </trkpt>
      <trkpt lat="41.55180850" lon="1.606942936">
        <ele>358.00000</ele>
        <time>2019-10-07T16:06:38Z</time>
      </trkpt>
      <trkpt lat="41.55183498" lon="1.606942601">
        <ele>358.00000</ele>
        <time>2019-10-07T16:06:39Z</time>
      </trkpt>
      <trkpt lat="41.55188812" lon="1.606947714">
        <ele>359.00000</ele>
        <time>2019-10-07T16:06:41Z</time>
      </trkpt>
      <trkpt lat="41.55196088" lon="1.606960203">
        <ele>360.00000</ele>
        <time>2019-10-07T16:06:44Z</time>
      </trkpt>
      <trkpt lat="41.55208644" lon="1.607043351">
        <ele>362.00000</ele>
        <time>2019-10-07T16:06:49Z</time>
      </trkpt>
      <trkpt lat="41.55212877" lon="1.607069671">
        <ele>362.00000</ele>
        <time>2019-10-07T16:06:51Z</time>
      </trkpt>
      <trkpt lat="41.55214738" lon="1.607084674">
        <ele>363.00000</ele>
        <time>2019-10-07T16:06:52Z</time>
      </trkpt>
      <trkpt lat="41.55220999" lon="1.607104204">
        <ele>364.00000</ele>
        <time>2019-10-07T16:06:55Z</time>
      </trkpt>
      <trkpt lat="41.55225324" lon="1.607117112">
        <ele>365.00000</ele>
        <time>2019-10-07T16:06:57Z</time>
      </trkpt>
      <trkpt lat="41.55227436" lon="1.607123063">
        <ele>365.00000</ele>
        <time>2019-10-07T16:06:58Z</time>
      </trkpt>
      <trkpt lat="41.55234024" lon="1.607134295">
        <ele>366.00000</ele>
        <time>2019-10-07T16:07:01Z</time>
      </trkpt>
      <trkpt lat="41.55238475" lon="1.607140833">
        <ele>367.00000</ele>
        <time>2019-10-07T16:07:03Z</time>
      </trkpt>
      <trkpt lat="41.55242515" lon="1.607154328">
        <ele>367.00000</ele>
        <time>2019-10-07T16:07:05Z</time>
      </trkpt>
      <trkpt lat="41.55246639" lon="1.607168493">
        <ele>369.00000</ele>
        <time>2019-10-07T16:07:07Z</time>
      </trkpt>
      <trkpt lat="41.55250134" lon="1.607176456">
        <ele>369.00000</ele>
        <time>2019-10-07T16:07:09Z</time>
      </trkpt>
      <trkpt lat="41.55252297" lon="1.607180144">
        <ele>370.00000</ele>
        <time>2019-10-07T16:07:10Z</time>
      </trkpt>
      <trkpt lat="41.55259740" lon="1.607153993">
        <ele>371.00000</ele>
        <time>2019-10-07T16:07:14Z</time>
      </trkpt>
      <trkpt lat="41.55261190" lon="1.607141755">
        <ele>371.00000</ele>
        <time>2019-10-07T16:07:15Z</time>
      </trkpt>
      <trkpt lat="41.55266596" lon="1.607071598">
        <ele>372.00000</ele>
        <time>2019-10-07T16:07:19Z</time>
      </trkpt>
      <trkpt lat="41.55267678" lon="1.607050644">
        <ele>372.00000</ele>
        <time>2019-10-07T16:07:20Z</time>
      </trkpt>
      <trkpt lat="41.55270678" lon="1.606981912">
        <ele>373.00000</ele>
        <time>2019-10-07T16:07:23Z</time>
      </trkpt>
      <trkpt lat="41.55274559" lon="1.606893148">
        <ele>374.00000</ele>
        <time>2019-10-07T16:07:27Z</time>
      </trkpt>
      <trkpt lat="41.55276780" lon="1.606849897">
        <ele>374.00000</ele>
        <time>2019-10-07T16:07:29Z</time>
      </trkpt>
      <trkpt lat="41.55281399" lon="1.606763228">
        <ele>376.00000</ele>
        <time>2019-10-07T16:07:33Z</time>
      </trkpt>
      <trkpt lat="41.55285933" lon="1.606699610">
        <ele>377.00000</ele>
        <time>2019-10-07T16:07:36Z</time>
      </trkpt>
      <trkpt lat="41.55291633" lon="1.606625849">
        <ele>377.00000</ele>
        <time>2019-10-07T16:07:39Z</time>
      </trkpt>
      <trkpt lat="41.55298012" lon="1.606527026">
        <ele>378.00000</ele>
        <time>2019-10-07T16:07:43Z</time>
      </trkpt>
      <trkpt lat="41.55303393" lon="1.606431053">
        <ele>379.00000</ele>
        <time>2019-10-07T16:07:47Z</time>
      </trkpt>
      <trkpt lat="41.55306033" lon="1.606367435">
        <ele>379.00000</ele>
        <time>2019-10-07T16:07:49Z</time>
      </trkpt>
      <trkpt lat="41.55312244" lon="1.606200467">
        <ele>380.00000</ele>
        <time>2019-10-07T16:07:54Z</time>
      </trkpt>
      <trkpt lat="41.55313108" lon="1.606167694">
        <ele>381.00000</ele>
        <time>2019-10-07T16:07:55Z</time>
      </trkpt>
      <trkpt lat="41.55317005" lon="1.605988740">
        <ele>382.00000</ele>
        <time>2019-10-07T16:08:00Z</time>
      </trkpt>
      <trkpt lat="41.55317550" lon="1.605955129">
        <ele>382.00000</ele>
        <time>2019-10-07T16:08:01Z</time>
      </trkpt>
      <trkpt lat="41.55319243" lon="1.605852283">
        <ele>383.00000</ele>
        <time>2019-10-07T16:08:04Z</time>
      </trkpt>
      <trkpt lat="41.55321473" lon="1.605759998">
        <ele>385.00000</ele>
        <time>2019-10-07T16:08:07Z</time>
      </trkpt>
      <trkpt lat="41.55322378" lon="1.605733511">
        <ele>385.00000</ele>
        <time>2019-10-07T16:08:08Z</time>
      </trkpt>
      <trkpt lat="41.55323526" lon="1.605713814">
        <ele>386.00000</ele>
        <time>2019-10-07T16:08:09Z</time>
      </trkpt>
      <trkpt lat="41.55326737" lon="1.605628486">
        <ele>387.00000</ele>
        <time>2019-10-07T16:08:12Z</time>
      </trkpt>
      <trkpt lat="41.55328882" lon="1.605555564">
        <ele>387.00000</ele>
        <time>2019-10-07T16:08:14Z</time>
      </trkpt>
      <trkpt lat="41.55333065" lon="1.605407455">
        <ele>388.00000</ele>
        <time>2019-10-07T16:08:18Z</time>
      </trkpt>
      <trkpt lat="41.55336887" lon="1.605315506">
        <ele>388.00000</ele>
        <time>2019-10-07T16:08:21Z</time>
      </trkpt>
      <trkpt lat="41.55342838" lon="1.605246271">
        <ele>389.00000</ele>
        <time>2019-10-07T16:08:24Z</time>
      </trkpt>
      <trkpt lat="41.55351807" lon="1.605178462">
        <ele>390.00000</ele>
        <time>2019-10-07T16:08:28Z</time>
      </trkpt>
      <trkpt lat="41.55357750" lon="1.605135211">
        <ele>391.00000</ele>
        <time>2019-10-07T16:08:31Z</time>
      </trkpt>
      <trkpt lat="41.55359057" lon="1.605117609">
        <ele>391.00000</ele>
        <time>2019-10-07T16:08:32Z</time>
      </trkpt>
      <trkpt lat="41.55358990" lon="1.605100091">
        <ele>392.00000</ele>
        <time>2019-10-07T16:08:33Z</time>
      </trkpt>
      <trkpt lat="41.55353827" lon="1.605081148">
        <ele>392.00000</ele>
        <time>2019-10-07T16:08:35Z</time>
      </trkpt>
      <trkpt lat="41.55350550" lon="1.605076622">
        <ele>392.00000</ele>
        <time>2019-10-07T16:08:36Z</time>
      </trkpt>
      <trkpt lat="41.55332227" lon="1.605078466">
        <ele>392.00000</ele>
        <time>2019-10-07T16:08:41Z</time>
      </trkpt>
      <trkpt lat="41.55328136" lon="1.605086931">
        <ele>392.00000</ele>
        <time>2019-10-07T16:08:42Z</time>
      </trkpt>
      <trkpt lat="41.55318631" lon="1.605084333">
        <ele>392.00000</ele>
        <time>2019-10-07T16:08:44Z</time>
      </trkpt>
      <trkpt lat="41.55308422" lon="1.605032533">
        <ele>391.00000</ele>
        <time>2019-10-07T16:08:46Z</time>
      </trkpt>
      <trkpt lat="41.55298523" lon="1.604958353">
        <ele>391.00000</ele>
        <time>2019-10-07T16:08:48Z</time>
      </trkpt>
      <trkpt lat="41.55276563" lon="1.604814352">
        <ele>390.00000</ele>
        <time>2019-10-07T16:08:52Z</time>
      </trkpt>
      <trkpt lat="41.55256287" lon="1.604677056">
        <ele>389.00000</ele>
        <time>2019-10-07T16:08:55Z</time>
      </trkpt>
      <trkpt lat="41.55248642" lon="1.604616707">
        <ele>388.00000</ele>
        <time>2019-10-07T16:08:56Z</time>
      </trkpt>
      <trkpt lat="41.55241032" lon="1.604548646">
        <ele>387.00000</ele>
        <time>2019-10-07T16:08:57Z</time>
      </trkpt>
      <trkpt lat="41.55233798" lon="1.604468934">
        <ele>386.00000</ele>
        <time>2019-10-07T16:08:58Z</time>
      </trkpt>
      <trkpt lat="41.55219515" lon="1.604300793">
        <ele>384.00000</ele>
        <time>2019-10-07T16:09:00Z</time>
      </trkpt>
      <trkpt lat="41.55203975" lon="1.604124018">
        <ele>382.00000</ele>
        <time>2019-10-07T16:09:02Z</time>
      </trkpt>
      <trkpt lat="41.55197831" lon="1.604016982">
        <ele>381.00000</ele>
        <time>2019-10-07T16:09:03Z</time>
      </trkpt>
      <trkpt lat="41.55193121" lon="1.603905670">
        <ele>381.00000</ele>
        <time>2019-10-07T16:09:04Z</time>
      </trkpt>
      <trkpt lat="41.55185317" lon="1.603700146">
        <ele>381.00000</ele>
        <time>2019-10-07T16:09:06Z</time>
      </trkpt>
      <trkpt lat="41.55160155" lon="1.603148113">
        <ele>382.00000</ele>
        <time>2019-10-07T16:09:12Z</time>
      </trkpt>
      <trkpt lat="41.55155142" lon="1.603068066">
        <ele>381.00000</ele>
        <time>2019-10-07T16:09:13Z</time>
      </trkpt>
      <trkpt lat="41.55137666" lon="1.602839911">
        <ele>380.00000</ele>
        <time>2019-10-07T16:09:16Z</time>
      </trkpt>
      <trkpt lat="41.55122277" lon="1.602575713">
        <ele>380.00000</ele>
        <time>2019-10-07T16:09:19Z</time>
      </trkpt>
      <trkpt lat="41.55116502" lon="1.602494576">
        <ele>380.00000</ele>
        <time>2019-10-07T16:09:20Z</time>
      </trkpt>
      <trkpt lat="41.55100107" lon="1.602268349">
        <ele>379.00000</ele>
        <time>2019-10-07T16:09:23Z</time>
      </trkpt>
      <trkpt lat="41.55096377" lon="1.602198192">
        <ele>380.00000</ele>
        <time>2019-10-07T16:09:24Z</time>
      </trkpt>
      <trkpt lat="41.55093410" lon="1.602126779">
        <ele>381.00000</ele>
        <time>2019-10-07T16:09:25Z</time>
      </trkpt>
      <trkpt lat="41.55088565" lon="1.601985460">
        <ele>382.00000</ele>
        <time>2019-10-07T16:09:27Z</time>
      </trkpt>
      <trkpt lat="41.55086855" lon="1.601916225">
        <ele>382.00000</ele>
        <time>2019-10-07T16:09:28Z</time>
      </trkpt>
      <trkpt lat="41.55085824" lon="1.601849086">
        <ele>382.00000</ele>
        <time>2019-10-07T16:09:29Z</time>
      </trkpt>
      <trkpt lat="41.55085304" lon="1.601786054">
        <ele>383.00000</ele>
        <time>2019-10-07T16:09:30Z</time>
      </trkpt>
      <trkpt lat="41.55083024" lon="1.601699385">
        <ele>384.00000</ele>
        <time>2019-10-07T16:09:32Z</time>
      </trkpt>
      <trkpt lat="41.55081256" lon="1.601662253">
        <ele>385.00000</ele>
        <time>2019-10-07T16:09:33Z</time>
      </trkpt>
      <trkpt lat="41.55075221" lon="1.601541806">
        <ele>386.00000</ele>
        <time>2019-10-07T16:09:36Z</time>
      </trkpt>
      <trkpt lat="41.55073042" lon="1.601494615">
        <ele>386.00000</ele>
        <time>2019-10-07T16:09:37Z</time>
      </trkpt>
      <trkpt lat="41.55065682" lon="1.601366875">
        <ele>387.00000</ele>
        <time>2019-10-07T16:09:40Z</time>
      </trkpt>
      <trkpt lat="41.55062522" lon="1.601275177">
        <ele>388.00000</ele>
        <time>2019-10-07T16:09:42Z</time>
      </trkpt>
      <trkpt lat="41.55061525" lon="1.601227400">
        <ele>388.00000</ele>
        <time>2019-10-07T16:09:43Z</time>
      </trkpt>
      <trkpt lat="41.55062112" lon="1.601087925">
        <ele>389.00000</ele>
        <time>2019-10-07T16:09:46Z</time>
      </trkpt>
      <trkpt lat="41.55068088" lon="1.600982900">
        <ele>390.00000</ele>
        <time>2019-10-07T16:09:49Z</time>
      </trkpt>
      <trkpt lat="41.55073301" lon="1.600893549">
        <ele>392.00000</ele>
        <time>2019-10-07T16:09:52Z</time>
      </trkpt>
      <trkpt lat="41.55075497" lon="1.600837558">
        <ele>393.00000</ele>
        <time>2019-10-07T16:09:54Z</time>
      </trkpt>
      <trkpt lat="41.55077232" lon="1.600736472">
        <ele>394.00000</ele>
        <time>2019-10-07T16:09:57Z</time>
      </trkpt>
      <trkpt lat="41.55077719" lon="1.600706549">
        <ele>395.00000</ele>
        <time>2019-10-07T16:09:58Z</time>
      </trkpt>
      <trkpt lat="41.55078968" lon="1.600648546">
        <ele>395.00000</ele>
        <time>2019-10-07T16:10:00Z</time>
      </trkpt>
      <trkpt lat="41.55081264" lon="1.600557602">
        <ele>397.00000</ele>
        <time>2019-10-07T16:10:03Z</time>
      </trkpt>
      <trkpt lat="41.55081767" lon="1.600529775">
        <ele>397.00000</ele>
        <time>2019-10-07T16:10:04Z</time>
      </trkpt>
      <trkpt lat="41.55081608" lon="1.600474622">
        <ele>398.00000</ele>
        <time>2019-10-07T16:10:06Z</time>
      </trkpt>
      <trkpt lat="41.55079621" lon="1.600377056">
        <ele>399.00000</ele>
        <time>2019-10-07T16:10:09Z</time>
      </trkpt>
      <trkpt lat="41.55078909" lon="1.600341014">
        <ele>399.00000</ele>
        <time>2019-10-07T16:10:10Z</time>
      </trkpt>
      <trkpt lat="41.55072631" lon="1.600136496">
        <ele>400.00000</ele>
        <time>2019-10-07T16:10:15Z</time>
      </trkpt>
      <trkpt lat="41.55062413" lon="1.599822426">
        <ele>401.00000</ele>
        <time>2019-10-07T16:10:22Z</time>
      </trkpt>
      <trkpt lat="41.55055490" lon="1.599637353">
        <ele>401.00000</ele>
        <time>2019-10-07T16:10:26Z</time>
      </trkpt>
      <trkpt lat="41.55050285" lon="1.599506428">
        <ele>402.00000</ele>
        <time>2019-10-07T16:10:29Z</time>
      </trkpt>
      <trkpt lat="41.55043495" lon="1.599384136">
        <ele>402.00000</ele>
        <time>2019-10-07T16:10:32Z</time>
      </trkpt>
      <trkpt lat="41.55039899" lon="1.599301239">
        <ele>403.00000</ele>
        <time>2019-10-07T16:10:34Z</time>
      </trkpt>
      <trkpt lat="41.55038240" lon="1.599262431">
        <ele>403.00000</ele>
        <time>2019-10-07T16:10:35Z</time>
      </trkpt>
      <trkpt lat="41.55028534" lon="1.599004101">
        <ele>404.00000</ele>
        <time>2019-10-07T16:10:41Z</time>
      </trkpt>
      <trkpt lat="41.55029850" lon="1.598868984">
        <ele>404.00000</ele>
        <time>2019-10-07T16:10:44Z</time>
      </trkpt>
      <trkpt lat="41.55031677" lon="1.598829841">
        <ele>404.00000</ele>
        <time>2019-10-07T16:10:45Z</time>
      </trkpt>
      <trkpt lat="41.55031358" lon="1.598775526">
        <ele>405.00000</ele>
        <time>2019-10-07T16:10:47Z</time>
      </trkpt>
      <trkpt lat="41.55029883" lon="1.598759684">
        <ele>405.00000</ele>
        <time>2019-10-07T16:10:48Z</time>
      </trkpt>
      <trkpt lat="41.55021451" lon="1.598674524">
        <ele>406.00000</ele>
        <time>2019-10-07T16:10:51Z</time>
      </trkpt>
      <trkpt lat="41.55018341" lon="1.598638147">
        <ele>406.00000</ele>
        <time>2019-10-07T16:10:52Z</time>
      </trkpt>
      <trkpt lat="41.55012910" lon="1.598560195">
        <ele>406.00000</ele>
        <time>2019-10-07T16:10:54Z</time>
      </trkpt>
      <trkpt lat="41.55010437" lon="1.598526583">
        <ele>407.00000</ele>
        <time>2019-10-07T16:10:55Z</time>
      </trkpt>
      <trkpt lat="41.55003229" lon="1.598421055">
        <ele>408.00000</ele>
        <time>2019-10-07T16:10:58Z</time>
      </trkpt>
      <trkpt lat="41.54986373" lon="1.598198516">
        <ele>407.00000</ele>
        <time>2019-10-07T16:11:03Z</time>
      </trkpt>
      <trkpt lat="41.54962417" lon="1.597826527">
        <ele>406.00000</ele>
        <time>2019-10-07T16:11:09Z</time>
      </trkpt>
      <trkpt lat="41.54959232" lon="1.597752934">
        <ele>406.00000</ele>
        <time>2019-10-07T16:11:10Z</time>
      </trkpt>
      <trkpt lat="41.54952912" lon="1.597517319">
        <ele>406.00000</ele>
        <time>2019-10-07T16:11:13Z</time>
      </trkpt>
      <trkpt lat="41.54952007" lon="1.597452107">
        <ele>407.00000</ele>
        <time>2019-10-07T16:11:14Z</time>
      </trkpt>
      <trkpt lat="41.54951747" lon="1.597395613">
        <ele>407.00000</ele>
        <time>2019-10-07T16:11:15Z</time>
      </trkpt>
      <trkpt lat="41.54951294" lon="1.597339371">
        <ele>407.00000</ele>
        <time>2019-10-07T16:11:16Z</time>
      </trkpt>
      <trkpt lat="41.54949266" lon="1.597226383">
        <ele>407.00000</ele>
        <time>2019-10-07T16:11:18Z</time>
      </trkpt>
      <trkpt lat="41.54943969" lon="1.597137199">
        <ele>408.00000</ele>
        <time>2019-10-07T16:11:20Z</time>
      </trkpt>
      <trkpt lat="41.54936651" lon="1.597073748">
        <ele>408.00000</ele>
        <time>2019-10-07T16:11:22Z</time>
      </trkpt>
      <trkpt lat="41.54933030" lon="1.597029240">
        <ele>408.00000</ele>
        <time>2019-10-07T16:11:23Z</time>
      </trkpt>
      <trkpt lat="41.54929627" lon="1.596982050">
        <ele>409.00000</ele>
        <time>2019-10-07T16:11:24Z</time>
      </trkpt>
      <trkpt lat="41.54926543" lon="1.596931340">
        <ele>409.00000</ele>
        <time>2019-10-07T16:11:25Z</time>
      </trkpt>
      <trkpt lat="41.54923835" lon="1.596882725">
        <ele>409.00000</ele>
        <time>2019-10-07T16:11:26Z</time>
      </trkpt>
      <trkpt lat="41.54916987" lon="1.596740400">
        <ele>410.00000</ele>
        <time>2019-10-07T16:11:29Z</time>
      </trkpt>
      <trkpt lat="41.54914783" lon="1.596692120">
        <ele>410.00000</ele>
        <time>2019-10-07T16:11:30Z</time>
      </trkpt>
      <trkpt lat="41.54906761" lon="1.596498163">
        <ele>412.00000</ele>
        <time>2019-10-07T16:11:34Z</time>
      </trkpt>
      <trkpt lat="41.54901900" lon="1.596352569">
        <ele>412.00000</ele>
        <time>2019-10-07T16:11:37Z</time>
      </trkpt>
      <trkpt lat="41.54900492" lon="1.596311666">
        <ele>413.00000</ele>
        <time>2019-10-07T16:11:38Z</time>
      </trkpt>
      <trkpt lat="41.54897047" lon="1.596191888">
        <ele>414.00000</ele>
        <time>2019-10-07T16:11:41Z</time>
      </trkpt>
      <trkpt lat="41.54895312" lon="1.596107734">
        <ele>414.00000</ele>
        <time>2019-10-07T16:11:43Z</time>
      </trkpt>
      <trkpt lat="41.54893216" lon="1.596025088">
        <ele>415.00000</ele>
        <time>2019-10-07T16:11:45Z</time>
      </trkpt>
      <trkpt lat="41.54887114" lon="1.595872957">
        <ele>416.00000</ele>
        <time>2019-10-07T16:11:49Z</time>
      </trkpt>
      <trkpt lat="41.54877793" lon="1.595671540">
        <ele>418.00000</ele>
        <time>2019-10-07T16:11:54Z</time>
      </trkpt>
      <trkpt lat="41.54872739" lon="1.595590822">
        <ele>418.00000</ele>
        <time>2019-10-07T16:11:56Z</time>
      </trkpt>
      <trkpt lat="41.54857174" lon="1.595301227">
        <ele>417.00000</ele>
        <time>2019-10-07T16:12:01Z</time>
      </trkpt>
      <trkpt lat="41.54843604" lon="1.595018673">
        <ele>416.00000</ele>
        <time>2019-10-07T16:12:05Z</time>
      </trkpt>
      <trkpt lat="41.54831794" lon="1.594809377">
        <ele>416.00000</ele>
        <time>2019-10-07T16:12:08Z</time>
      </trkpt>
      <trkpt lat="41.54818492" lon="1.594572253">
        <ele>418.00000</ele>
        <time>2019-10-07T16:12:12Z</time>
      </trkpt>
      <trkpt lat="41.54815558" lon="1.594514921">
        <ele>418.00000</ele>
        <time>2019-10-07T16:12:13Z</time>
      </trkpt>
      <trkpt lat="41.54810453" lon="1.594404531">
        <ele>419.00000</ele>
        <time>2019-10-07T16:12:15Z</time>
      </trkpt>
      <trkpt lat="41.54805944" lon="1.594305457">
        <ele>420.00000</ele>
        <time>2019-10-07T16:12:17Z</time>
      </trkpt>
      <trkpt lat="41.54803664" lon="1.594260111">
        <ele>421.00000</ele>
        <time>2019-10-07T16:12:18Z</time>
      </trkpt>
      <trkpt lat="41.54801644" lon="1.594216693">
        <ele>421.00000</ele>
        <time>2019-10-07T16:12:19Z</time>
      </trkpt>
      <trkpt lat="41.54797646" lon="1.594124995">
        <ele>422.00000</ele>
        <time>2019-10-07T16:12:21Z</time>
      </trkpt>
      <trkpt lat="41.54790404" lon="1.593964649">
        <ele>424.00000</ele>
        <time>2019-10-07T16:12:24Z</time>
      </trkpt>
      <trkpt lat="41.54783514" lon="1.593805141">
        <ele>425.00000</ele>
        <time>2019-10-07T16:12:27Z</time>
      </trkpt>
      <trkpt lat="41.54776456" lon="1.593662649">
        <ele>425.00000</ele>
        <time>2019-10-07T16:12:30Z</time>
      </trkpt>
      <trkpt lat="41.54760883" lon="1.593359308">
        <ele>425.00000</ele>
        <time>2019-10-07T16:12:35Z</time>
      </trkpt>
      <trkpt lat="41.54756382" lon="1.593283703">
        <ele>425.00000</ele>
        <time>2019-10-07T16:12:36Z</time>
      </trkpt>
      <trkpt lat="41.54740347" lon="1.593071473">
        <ele>425.00000</ele>
        <time>2019-10-07T16:12:39Z</time>
      </trkpt>
      <trkpt lat="41.54732753" lon="1.592956893">
        <ele>426.00000</ele>
        <time>2019-10-07T16:12:41Z</time>
      </trkpt>
      <trkpt lat="41.54729459" lon="1.592909703">
        <ele>428.00000</ele>
        <time>2019-10-07T16:12:42Z</time>
      </trkpt>
      <trkpt lat="41.54726534" lon="1.592865865">
        <ele>428.00000</ele>
        <time>2019-10-07T16:12:43Z</time>
      </trkpt>
      <trkpt lat="41.54723441" lon="1.592818927">
        <ele>429.00000</ele>
        <time>2019-10-07T16:12:44Z</time>
      </trkpt>
      <trkpt lat="41.54717456" lon="1.592728570">
        <ele>429.00000</ele>
        <time>2019-10-07T16:12:46Z</time>
      </trkpt>
      <trkpt lat="41.54709912" lon="1.592646343">
        <ele>430.00000</ele>
        <time>2019-10-07T16:12:48Z</time>
      </trkpt>
      <trkpt lat="41.54705931" lon="1.592596136">
        <ele>429.00000</ele>
        <time>2019-10-07T16:12:49Z</time>
      </trkpt>
      <trkpt lat="41.54694917" lon="1.592387510">
        <ele>428.00000</ele>
        <time>2019-10-07T16:12:52Z</time>
      </trkpt>
      <trkpt lat="41.54691346" lon="1.592305032">
        <ele>428.00000</ele>
        <time>2019-10-07T16:12:53Z</time>
      </trkpt>
      <trkpt lat="41.54683107" lon="1.592139657">
        <ele>428.00000</ele>
        <time>2019-10-07T16:12:55Z</time>
      </trkpt>
      <trkpt lat="41.54675203" lon="1.591999763">
        <ele>428.00000</ele>
        <time>2019-10-07T16:12:57Z</time>
      </trkpt>
      <trkpt lat="41.54671733" lon="1.591930110">
        <ele>428.00000</ele>
        <time>2019-10-07T16:12:58Z</time>
      </trkpt>
      <trkpt lat="41.54663049" lon="1.591730536">
        <ele>429.00000</ele>
        <time>2019-10-07T16:13:01Z</time>
      </trkpt>
      <trkpt lat="41.54660057" lon="1.591674629">
        <ele>429.00000</ele>
        <time>2019-10-07T16:13:02Z</time>
      </trkpt>
      <trkpt lat="41.54653402" lon="1.591588295">
        <ele>430.00000</ele>
        <time>2019-10-07T16:13:04Z</time>
      </trkpt>
      <trkpt lat="41.54650283" lon="1.591547224">
        <ele>430.00000</ele>
        <time>2019-10-07T16:13:05Z</time>
      </trkpt>
      <trkpt lat="41.54646872" lon="1.591510931">
        <ele>431.00000</ele>
        <time>2019-10-07T16:13:06Z</time>
      </trkpt>
      <trkpt lat="41.54639731" lon="1.591387968">
        <ele>433.00000</ele>
        <time>2019-10-07T16:13:09Z</time>
      </trkpt>
      <trkpt lat="41.54635095" lon="1.591272884">
        <ele>434.00000</ele>
        <time>2019-10-07T16:13:12Z</time>
      </trkpt>
      <trkpt lat="41.54631667" lon="1.591211864">
        <ele>434.00000</ele>
        <time>2019-10-07T16:13:14Z</time>
      </trkpt>
      <trkpt lat="41.54630100" lon="1.591183114">
        <ele>435.00000</ele>
        <time>2019-10-07T16:13:15Z</time>
      </trkpt>
      <trkpt lat="41.54626596" lon="1.591110695">
        <ele>436.00000</ele>
        <time>2019-10-07T16:13:18Z</time>
      </trkpt>
      <trkpt lat="41.54625431" lon="1.591082867">
        <ele>437.00000</ele>
        <time>2019-10-07T16:13:19Z</time>
      </trkpt>
      <trkpt lat="41.54622850" lon="1.591022349">
        <ele>437.00000</ele>
        <time>2019-10-07T16:13:21Z</time>
      </trkpt>
      <trkpt lat="41.54617141" lon="1.590918498">
        <ele>438.00000</ele>
        <time>2019-10-07T16:13:25Z</time>
      </trkpt>
      <trkpt lat="41.54615666" lon="1.590890586">
        <ele>439.00000</ele>
        <time>2019-10-07T16:13:26Z</time>
      </trkpt>
      <trkpt lat="41.54610293" lon="1.590808695">
        <ele>439.00000</ele>
        <time>2019-10-07T16:13:29Z</time>
      </trkpt>
      <trkpt lat="41.54604862" lon="1.590745830">
        <ele>441.00000</ele>
        <time>2019-10-07T16:13:32Z</time>
      </trkpt>
      <trkpt lat="41.54596354" lon="1.590680200">
        <ele>442.00000</ele>
        <time>2019-10-07T16:13:36Z</time>
      </trkpt>
      <trkpt lat="41.54592641" lon="1.590647092">
        <ele>442.00000</ele>
        <time>2019-10-07T16:13:38Z</time>
      </trkpt>
      <trkpt lat="41.54587805" lon="1.590609289">
        <ele>443.00000</ele>
        <time>2019-10-07T16:13:41Z</time>
      </trkpt>
      <trkpt lat="41.54581879" lon="1.590570565">
        <ele>444.00000</ele>
        <time>2019-10-07T16:13:44Z</time>
      </trkpt>
      <trkpt lat="41.54579808" lon="1.590555813">
        <ele>444.00000</ele>
        <time>2019-10-07T16:13:45Z</time>
      </trkpt>
      <trkpt lat="41.54572131" lon="1.590471072">
        <ele>445.00000</ele>
        <time>2019-10-07T16:13:49Z</time>
      </trkpt>
      <trkpt lat="41.54569096" lon="1.590420696">
        <ele>446.00000</ele>
        <time>2019-10-07T16:13:51Z</time>
      </trkpt>
      <trkpt lat="41.54561192" lon="1.590227326">
        <ele>446.00000</ele>
        <time>2019-10-07T16:13:57Z</time>
      </trkpt>
      <trkpt lat="41.54559147" lon="1.590190865">
        <ele>446.00000</ele>
        <time>2019-10-07T16:13:58Z</time>
      </trkpt>
      <trkpt lat="41.54541838" lon="1.589922895">
        <ele>447.00000</ele>
        <time>2019-10-07T16:14:05Z</time>
      </trkpt>
      <trkpt lat="41.54534085" lon="1.589835388">
        <ele>448.00000</ele>
        <time>2019-10-07T16:14:08Z</time>
      </trkpt>
      <trkpt lat="41.54527044" lon="1.589738745">
        <ele>448.00000</ele>
        <time>2019-10-07T16:14:11Z</time>
      </trkpt>
      <trkpt lat="41.54522744" lon="1.589679569">
        <ele>449.00000</ele>
        <time>2019-10-07T16:14:13Z</time>
      </trkpt>
      <trkpt lat="41.54516089" lon="1.589503297">
        <ele>450.00000</ele>
        <time>2019-10-07T16:14:18Z</time>
      </trkpt>
      <trkpt lat="41.54502335" lon="1.589279752">
        <ele>451.00000</ele>
        <time>2019-10-07T16:14:24Z</time>
      </trkpt>
      <trkpt lat="41.54496953" lon="1.589218899">
        <ele>451.00000</ele>
        <time>2019-10-07T16:14:26Z</time>
      </trkpt>
      <trkpt lat="41.54485948" lon="1.589048160">
        <ele>452.00000</ele>
        <time>2019-10-07T16:14:31Z</time>
      </trkpt>
      <trkpt lat="41.54479561" lon="1.588913379">
        <ele>453.00000</ele>
        <time>2019-10-07T16:14:34Z</time>
      </trkpt>
      <trkpt lat="41.54476242" lon="1.588874571">
        <ele>453.00000</ele>
        <time>2019-10-07T16:14:35Z</time>
      </trkpt>
      <trkpt lat="41.54457575" lon="1.588761163">
        <ele>452.00000</ele>
        <time>2019-10-07T16:14:39Z</time>
      </trkpt>
      <trkpt lat="41.54435061" lon="1.588669717">
        <ele>451.00000</ele>
        <time>2019-10-07T16:14:43Z</time>
      </trkpt>
      <trkpt lat="41.54418222" lon="1.588580869">
        <ele>452.00000</ele>
        <time>2019-10-07T16:14:46Z</time>
      </trkpt>
      <trkpt lat="41.54407954" lon="1.588514149">
        <ele>452.00000</ele>
        <time>2019-10-07T16:14:48Z</time>
      </trkpt>
      <trkpt lat="41.54402053" lon="1.588488835">
        <ele>452.00000</ele>
        <time>2019-10-07T16:14:49Z</time>
      </trkpt>
      <trkpt lat="41.54391266" lon="1.588442316">
        <ele>452.00000</ele>
        <time>2019-10-07T16:14:51Z</time>
      </trkpt>
      <trkpt lat="41.54386782" lon="1.588409962">
        <ele>453.00000</ele>
        <time>2019-10-07T16:14:52Z</time>
      </trkpt>
      <trkpt lat="41.54376178" lon="1.588286329">
        <ele>453.00000</ele>
        <time>2019-10-07T16:14:55Z</time>
      </trkpt>
      <trkpt lat="41.54368291" lon="1.588156912">
        <ele>454.00000</ele>
        <time>2019-10-07T16:14:58Z</time>
      </trkpt>
      <trkpt lat="41.54366087" lon="1.588108213">
        <ele>455.00000</ele>
        <time>2019-10-07T16:14:59Z</time>
      </trkpt>
      <trkpt lat="41.54363555" lon="1.588061023">
        <ele>455.00000</ele>
        <time>2019-10-07T16:15:00Z</time>
      </trkpt>
      <trkpt lat="41.54360798" lon="1.588014839">
        <ele>455.00000</ele>
        <time>2019-10-07T16:15:01Z</time>
      </trkpt>
      <trkpt lat="41.54355819" lon="1.587936719">
        <ele>456.00000</ele>
        <time>2019-10-07T16:15:03Z</time>
      </trkpt>
      <trkpt lat="41.54349390" lon="1.587837310">
        <ele>457.00000</ele>
        <time>2019-10-07T16:15:06Z</time>
      </trkpt>
      <trkpt lat="41.54344017" lon="1.587736643">
        <ele>459.00000</ele>
        <time>2019-10-07T16:15:09Z</time>
      </trkpt>
      <trkpt lat="41.54341318" lon="1.587659781">
        <ele>459.00000</ele>
        <time>2019-10-07T16:15:11Z</time>
      </trkpt>
      <trkpt lat="41.54338703" lon="1.587585853">
        <ele>460.00000</ele>
        <time>2019-10-07T16:15:13Z</time>
      </trkpt>
      <trkpt lat="41.54334219" lon="1.587444283">
        <ele>461.00000</ele>
        <time>2019-10-07T16:15:17Z</time>
      </trkpt>
      <trkpt lat="41.54324177" lon="1.587203722">
        <ele>462.00000</ele>
        <time>2019-10-07T16:15:24Z</time>
      </trkpt>
      <trkpt lat="41.54312417" lon="1.587032647">
        <ele>463.00000</ele>
        <time>2019-10-07T16:15:29Z</time>
      </trkpt>
      <trkpt lat="41.54307648" lon="1.586979841">
        <ele>463.00000</ele>
        <time>2019-10-07T16:15:31Z</time>
      </trkpt>
      <trkpt lat="41.54300733" lon="1.586907841">
        <ele>464.00000</ele>
        <time>2019-10-07T16:15:34Z</time>
      </trkpt>
      <trkpt lat="41.54295201" lon="1.586865428">
        <ele>464.00000</ele>
        <time>2019-10-07T16:15:36Z</time>
      </trkpt>
      <trkpt lat="41.54283542" lon="1.586793931">
        <ele>465.00000</ele>
        <time>2019-10-07T16:15:40Z</time>
      </trkpt>
      <trkpt lat="41.54268186" lon="1.586651690">
        <ele>465.00000</ele>
        <time>2019-10-07T16:15:45Z</time>
      </trkpt>
      <trkpt lat="41.54265596" lon="1.586609948">
        <ele>465.00000</ele>
        <time>2019-10-07T16:15:46Z</time>
      </trkpt>
      <trkpt lat="41.54258505" lon="1.586479526">
        <ele>466.00000</ele>
        <time>2019-10-07T16:15:49Z</time>
      </trkpt>
      <trkpt lat="41.54256342" lon="1.586433928">
        <ele>466.00000</ele>
        <time>2019-10-07T16:15:50Z</time>
      </trkpt>
      <trkpt lat="41.54251866" lon="1.586338374">
        <ele>467.00000</ele>
        <time>2019-10-07T16:15:52Z</time>
      </trkpt>
      <trkpt lat="41.54242479" lon="1.586139975">
        <ele>467.00000</ele>
        <time>2019-10-07T16:15:56Z</time>
      </trkpt>
      <trkpt lat="41.54238564" lon="1.586038470">
        <ele>467.00000</ele>
        <time>2019-10-07T16:15:58Z</time>
      </trkpt>
      <trkpt lat="41.54236377" lon="1.585995890">
        <ele>468.00000</ele>
        <time>2019-10-07T16:15:59Z</time>
      </trkpt>
      <trkpt lat="41.54223410" lon="1.585786426">
        <ele>468.00000</ele>
        <time>2019-10-07T16:16:04Z</time>
      </trkpt>
      <trkpt lat="41.54221566" lon="1.585746863">
        <ele>469.00000</ele>
        <time>2019-10-07T16:16:05Z</time>
      </trkpt>
      <trkpt lat="41.54211432" lon="1.585554415">
        <ele>470.00000</ele>
        <time>2019-10-07T16:16:10Z</time>
      </trkpt>
      <trkpt lat="41.54204802" lon="1.585369091">
        <ele>470.00000</ele>
        <time>2019-10-07T16:16:14Z</time>
      </trkpt>
      <trkpt lat="41.54206562" lon="1.585325254">
        <ele>470.00000</ele>
        <time>2019-10-07T16:16:15Z</time>
      </trkpt>
      <trkpt lat="41.54216109" lon="1.585258785">
        <ele>471.00000</ele>
        <time>2019-10-07T16:16:18Z</time>
      </trkpt>
      <trkpt lat="41.54224793" lon="1.585242021">
        <ele>470.00000</ele>
        <time>2019-10-07T16:16:20Z</time>
      </trkpt>
      <trkpt lat="41.54239931" lon="1.585237327">
        <ele>469.00000</ele>
        <time>2019-10-07T16:16:23Z</time>
      </trkpt>
      <trkpt lat="41.54244809" lon="1.585227604">
        <ele>469.00000</ele>
        <time>2019-10-07T16:16:24Z</time>
      </trkpt>
      <trkpt lat="41.54251548" lon="1.585203129">
        <ele>468.00000</ele>
        <time>2019-10-07T16:16:26Z</time>
      </trkpt>
      <trkpt lat="41.54253149" lon="1.585199022">
        <ele>467.00000</ele>
        <time>2019-10-07T16:16:27Z</time>
      </trkpt>
      <trkpt lat="41.54254809" lon="1.585193909">
        <ele>466.00000</ele>
        <time>2019-10-07T16:16:28Z</time>
      </trkpt>
      <trkpt lat="41.54260056" lon="1.585161387">
        <ele>465.00000</ele>
        <time>2019-10-07T16:16:31Z</time>
      </trkpt>
      <trkpt lat="41.54266116" lon="1.585114700">
        <ele>464.00000</ele>
        <time>2019-10-07T16:16:34Z</time>
      </trkpt>
      <trkpt lat="41.54268186" lon="1.585097853">
        <ele>464.00000</ele>
        <time>2019-10-07T16:16:35Z</time>
      </trkpt>
      <trkpt lat="41.54279711" lon="1.585038257">
        <ele>463.00000</ele>
        <time>2019-10-07T16:16:38Z</time>
      </trkpt>
      <trkpt lat="41.54284455" lon="1.585013279">
        <ele>463.00000</ele>
        <time>2019-10-07T16:16:39Z</time>
      </trkpt>
      <trkpt lat="41.54299870" lon="1.584938513">
        <ele>462.00000</ele>
        <time>2019-10-07T16:16:42Z</time>
      </trkpt>
      <trkpt lat="41.54309375" lon="1.584894256">
        <ele>462.00000</ele>
        <time>2019-10-07T16:16:44Z</time>
      </trkpt>
      <trkpt lat="41.54323708" lon="1.584827033">
        <ele>461.00000</ele>
        <time>2019-10-07T16:16:47Z</time>
      </trkpt>
      <trkpt lat="41.54327815" lon="1.584784872">
        <ele>461.00000</ele>
        <time>2019-10-07T16:16:48Z</time>
      </trkpt>
      <trkpt lat="41.54341125" lon="1.584637770">
        <ele>459.00000</ele>
        <time>2019-10-07T16:16:51Z</time>
      </trkpt>
      <trkpt lat="41.54348644" lon="1.584547413">
        <ele>459.00000</ele>
        <time>2019-10-07T16:16:53Z</time>
      </trkpt>
      <trkpt lat="41.54352491" lon="1.584506677">
        <ele>459.00000</ele>
        <time>2019-10-07T16:16:54Z</time>
      </trkpt>
      <trkpt lat="41.54359683" lon="1.584456134">
        <ele>458.00000</ele>
        <time>2019-10-07T16:16:56Z</time>
      </trkpt>
      <trkpt lat="41.54363614" lon="1.584448758">
        <ele>458.00000</ele>
        <time>2019-10-07T16:16:57Z</time>
      </trkpt>
      <trkpt lat="41.54367646" lon="1.584442220">
        <ele>457.00000</ele>
        <time>2019-10-07T16:16:58Z</time>
      </trkpt>
      <trkpt lat="41.54381409" lon="1.584425289">
        <ele>455.00000</ele>
        <time>2019-10-07T16:17:01Z</time>
      </trkpt>
      <trkpt lat="41.54388081" lon="1.584414979">
        <ele>454.00000</ele>
        <time>2019-10-07T16:17:03Z</time>
      </trkpt>
      <trkpt lat="41.54393152" lon="1.584416320">
        <ele>454.00000</ele>
        <time>2019-10-07T16:17:06Z</time>
      </trkpt>
      <trkpt lat="41.54395549" lon="1.584420092">
        <ele>453.00000</ele>
        <time>2019-10-07T16:17:07Z</time>
      </trkpt>
      <trkpt lat="41.54400821" lon="1.584432413">
        <ele>453.00000</ele>
        <time>2019-10-07T16:17:09Z</time>
      </trkpt>
      <trkpt lat="41.54409865" lon="1.584434257">
        <ele>452.00000</ele>
        <time>2019-10-07T16:17:12Z</time>
      </trkpt>
      <trkpt lat="41.54411475" lon="1.584418416">
        <ele>451.00000</ele>
        <time>2019-10-07T16:17:13Z</time>
      </trkpt>
      <trkpt lat="41.54412623" lon="1.584376841">
        <ele>451.00000</ele>
        <time>2019-10-07T16:17:15Z</time>
      </trkpt>
      <trkpt lat="41.54411458" lon="1.584363011">
        <ele>450.00000</ele>
        <time>2019-10-07T16:17:16Z</time>
      </trkpt>
      <trkpt lat="41.54410963" lon="1.584313726">
        <ele>449.00000</ele>
        <time>2019-10-07T16:17:18Z</time>
      </trkpt>
      <trkpt lat="41.54410662" lon="1.584289502">
        <ele>449.00000</ele>
        <time>2019-10-07T16:17:19Z</time>
      </trkpt>
      <trkpt lat="41.54410276" lon="1.584263266">
        <ele>449.00000</ele>
        <time>2019-10-07T16:17:20Z</time>
      </trkpt>
      <trkpt lat="41.54410486" lon="1.584191853">
        <ele>447.00000</ele>
        <time>2019-10-07T16:17:22Z</time>
      </trkpt>
      <trkpt lat="41.54411651" lon="1.584154721">
        <ele>447.00000</ele>
        <time>2019-10-07T16:17:23Z</time>
      </trkpt>
      <trkpt lat="41.54413151" lon="1.584122283">
        <ele>446.00000</ele>
        <time>2019-10-07T16:17:24Z</time>
      </trkpt>
      <trkpt lat="41.54414936" lon="1.584078110">
        <ele>445.00000</ele>
        <time>2019-10-07T16:17:26Z</time>
      </trkpt>
      <trkpt lat="41.54415842" lon="1.584067046">
        <ele>444.00000</ele>
        <time>2019-10-07T16:17:27Z</time>
      </trkpt>
      <trkpt lat="41.54423645" lon="1.584080960">
        <ele>443.00000</ele>
        <time>2019-10-07T16:17:31Z</time>
      </trkpt>
      <trkpt lat="41.54428767" lon="1.584125468">
        <ele>443.00000</ele>
        <time>2019-10-07T16:17:33Z</time>
      </trkpt>
      <trkpt lat="41.54433293" lon="1.584157571">
        <ele>442.00000</ele>
        <time>2019-10-07T16:17:35Z</time>
      </trkpt>
      <trkpt lat="41.54439168" lon="1.584250107">
        <ele>441.00000</ele>
        <time>2019-10-07T16:17:38Z</time>
      </trkpt>
      <trkpt lat="41.54441482" lon="1.584287239">
        <ele>441.00000</ele>
        <time>2019-10-07T16:17:39Z</time>
      </trkpt>
      <trkpt lat="41.54446804" lon="1.584370471">
        <ele>440.00000</ele>
        <time>2019-10-07T16:17:41Z</time>
      </trkpt>
      <trkpt lat="41.54448808" lon="1.584416152">
        <ele>440.00000</ele>
        <time>2019-10-07T16:17:42Z</time>
      </trkpt>
      <trkpt lat="41.54450643" lon="1.584451775">
        <ele>440.00000</ele>
        <time>2019-10-07T16:17:43Z</time>
      </trkpt>
      <trkpt lat="41.54455496" lon="1.584445405">
        <ele>439.00000</ele>
        <time>2019-10-07T16:17:46Z</time>
      </trkpt>
      <trkpt lat="41.54455052" lon="1.584343817">
        <ele>438.00000</ele>
        <time>2019-10-07T16:17:49Z</time>
      </trkpt>
      <trkpt lat="41.54453686" lon="1.584307858">
        <ele>437.00000</ele>
        <time>2019-10-07T16:17:50Z</time>
      </trkpt>
      <trkpt lat="41.54448464" lon="1.584139131">
        <ele>436.00000</ele>
        <time>2019-10-07T16:17:54Z</time>
      </trkpt>
      <trkpt lat="41.54446628" lon="1.584099652">
        <ele>436.00000</ele>
        <time>2019-10-07T16:17:55Z</time>
      </trkpt>
      <trkpt lat="41.54449612" lon="1.584044331">
        <ele>436.00000</ele>
        <time>2019-10-07T16:17:58Z</time>
      </trkpt>
      <trkpt lat="41.54453493" lon="1.584067130">
        <ele>435.00000</ele>
        <time>2019-10-07T16:18:00Z</time>
      </trkpt>
      <trkpt lat="41.54456653" lon="1.584124043">
        <ele>434.00000</ele>
        <time>2019-10-07T16:18:02Z</time>
      </trkpt>
      <trkpt lat="41.54458355" lon="1.584160085">
        <ele>434.00000</ele>
        <time>2019-10-07T16:18:03Z</time>
      </trkpt>
      <trkpt lat="41.54464691" lon="1.584245245">
        <ele>433.00000</ele>
        <time>2019-10-07T16:18:06Z</time>
      </trkpt>
      <trkpt lat="41.54466703" lon="1.584277097">
        <ele>433.00000</ele>
        <time>2019-10-07T16:18:07Z</time>
      </trkpt>
      <trkpt lat="41.54471657" lon="1.584368962">
        <ele>432.00000</ele>
        <time>2019-10-07T16:18:10Z</time>
      </trkpt>
      <trkpt lat="41.54476057" lon="1.584412883">
        <ele>431.00000</ele>
        <time>2019-10-07T16:18:12Z</time>
      </trkpt>
      <trkpt lat="41.54485051" lon="1.584474490">
        <ele>430.00000</ele>
        <time>2019-10-07T16:18:15Z</time>
      </trkpt>
      <trkpt lat="41.54489125" lon="1.584485387">
        <ele>429.00000</ele>
        <time>2019-10-07T16:18:17Z</time>
      </trkpt>
      <trkpt lat="41.54490005" lon="1.584480945">
        <ele>428.00000</ele>
        <time>2019-10-07T16:18:18Z</time>
      </trkpt>
      <trkpt lat="41.54494925" lon="1.584531236">
        <ele>427.00000</ele>
        <time>2019-10-07T16:18:23Z</time>
      </trkpt>
      <trkpt lat="41.54496157" lon="1.584558561">
        <ele>426.00000</ele>
        <time>2019-10-07T16:18:24Z</time>
      </trkpt>
      <trkpt lat="41.54503986" lon="1.584700299">
        <ele>425.00000</ele>
        <time>2019-10-07T16:18:28Z</time>
      </trkpt>
      <trkpt lat="41.54510758" lon="1.584786633">
        <ele>423.00000</ele>
        <time>2019-10-07T16:18:30Z</time>
      </trkpt>
      <trkpt lat="41.54517296" lon="1.584876151">
        <ele>422.00000</ele>
        <time>2019-10-07T16:18:32Z</time>
      </trkpt>
      <trkpt lat="41.54520750" lon="1.584914037">
        <ele>422.00000</ele>
        <time>2019-10-07T16:18:33Z</time>
      </trkpt>
      <trkpt lat="41.54528888" lon="1.584980757">
        <ele>421.00000</ele>
        <time>2019-10-07T16:18:35Z</time>
      </trkpt>
      <trkpt lat="41.54532685" lon="1.585022415">
        <ele>420.00000</ele>
        <time>2019-10-07T16:18:36Z</time>
      </trkpt>
      <trkpt lat="41.54540179" lon="1.585104726">
        <ele>419.00000</ele>
        <time>2019-10-07T16:18:38Z</time>
      </trkpt>
      <trkpt lat="41.54547798" lon="1.585206147">
        <ele>419.00000</ele>
        <time>2019-10-07T16:18:40Z</time>
      </trkpt>
      <trkpt lat="41.54552006" lon="1.585261467">
        <ele>418.00000</ele>
        <time>2019-10-07T16:18:41Z</time>
      </trkpt>
      <trkpt lat="41.54556683" lon="1.585319554">
        <ele>417.00000</ele>
        <time>2019-10-07T16:18:42Z</time>
      </trkpt>
      <trkpt lat="41.54571309" lon="1.585512589">
        <ele>416.00000</ele>
        <time>2019-10-07T16:18:45Z</time>
      </trkpt>
      <trkpt lat="41.54580077" lon="1.585673270">
        <ele>415.00000</ele>
        <time>2019-10-07T16:18:47Z</time>
      </trkpt>
      <trkpt lat="41.54601509" lon="1.586141400">
        <ele>415.00000</ele>
        <time>2019-10-07T16:18:53Z</time>
      </trkpt>
      <trkpt lat="41.54620922" lon="1.586431162">
        <ele>414.00000</ele>
        <time>2019-10-07T16:18:57Z</time>
      </trkpt>
      <trkpt lat="41.54626060" lon="1.586503498">
        <ele>414.00000</ele>
        <time>2019-10-07T16:18:58Z</time>
      </trkpt>
      <trkpt lat="41.54655522" lon="1.586938267">
        <ele>414.00000</ele>
        <time>2019-10-07T16:19:04Z</time>
      </trkpt>
      <trkpt lat="41.54678028" lon="1.587294247">
        <ele>414.00000</ele>
        <time>2019-10-07T16:19:09Z</time>
      </trkpt>
      <trkpt lat="41.54682269" lon="1.587375300">
        <ele>414.00000</ele>
        <time>2019-10-07T16:19:10Z</time>
      </trkpt>
      <trkpt lat="41.54690667" lon="1.587534807">
        <ele>413.00000</ele>
        <time>2019-10-07T16:19:12Z</time>
      </trkpt>
      <trkpt lat="41.54699175" lon="1.587691297">
        <ele>412.00000</ele>
        <time>2019-10-07T16:19:14Z</time>
      </trkpt>
      <trkpt lat="41.54712351" lon="1.587930265">
        <ele>412.00000</ele>
        <time>2019-10-07T16:19:17Z</time>
      </trkpt>
      <trkpt lat="41.54731965" lon="1.588264871">
        <ele>411.00000</ele>
        <time>2019-10-07T16:19:21Z</time>
      </trkpt>
      <trkpt lat="41.54746809" lon="1.588536612">
        <ele>409.00000</ele>
        <time>2019-10-07T16:19:24Z</time>
      </trkpt>
      <trkpt lat="41.54761268" lon="1.588810114">
        <ele>409.00000</ele>
        <time>2019-10-07T16:19:27Z</time>
      </trkpt>
      <trkpt lat="41.54766918" lon="1.588899213">
        <ele>408.00000</ele>
        <time>2019-10-07T16:19:28Z</time>
      </trkpt>
      <trkpt lat="41.54778074" lon="1.589084034">
        <ele>407.00000</ele>
        <time>2019-10-07T16:19:30Z</time>
      </trkpt>
      <trkpt lat="41.54793128" lon="1.589370025">
        <ele>406.00000</ele>
        <time>2019-10-07T16:19:33Z</time>
      </trkpt>
      <trkpt lat="41.54812289" lon="1.589760538">
        <ele>405.00000</ele>
        <time>2019-10-07T16:19:37Z</time>
      </trkpt>
      <trkpt lat="41.54821475" lon="1.589962122">
        <ele>404.00000</ele>
        <time>2019-10-07T16:19:39Z</time>
      </trkpt>
      <trkpt lat="41.54826052" lon="1.590067483">
        <ele>403.00000</ele>
        <time>2019-10-07T16:19:40Z</time>
      </trkpt>
      <trkpt lat="41.54839245" lon="1.590384989">
        <ele>402.00000</ele>
        <time>2019-10-07T16:19:43Z</time>
      </trkpt>
      <trkpt lat="41.54855271" lon="1.590795787">
        <ele>401.00000</ele>
        <time>2019-10-07T16:19:47Z</time>
      </trkpt>
      <trkpt lat="41.54870996" lon="1.591176828">
        <ele>401.00000</ele>
        <time>2019-10-07T16:19:51Z</time>
      </trkpt>
      <trkpt lat="41.54877450" lon="1.591362655">
        <ele>400.00000</ele>
        <time>2019-10-07T16:19:53Z</time>
      </trkpt>
      <trkpt lat="41.54884826" lon="1.591639593">
        <ele>401.00000</ele>
        <time>2019-10-07T16:19:56Z</time>
      </trkpt>
      <trkpt lat="41.54889863" lon="1.591820055">
        <ele>401.00000</ele>
        <time>2019-10-07T16:19:58Z</time>
      </trkpt>
      <trkpt lat="41.54895806" lon="1.592108812">
        <ele>401.00000</ele>
        <time>2019-10-07T16:20:01Z</time>
      </trkpt>
      <trkpt lat="41.54897348" lon="1.592300422">
        <ele>401.00000</ele>
        <time>2019-10-07T16:20:03Z</time>
      </trkpt>
      <trkpt lat="41.54899285" lon="1.592381978">
        <ele>401.00000</ele>
        <time>2019-10-07T16:20:04Z</time>
      </trkpt>
      <trkpt lat="41.54907667" lon="1.592522878">
        <ele>400.00000</ele>
        <time>2019-10-07T16:20:06Z</time>
      </trkpt>
      <trkpt lat="41.54912671" lon="1.592598818">
        <ele>400.00000</ele>
        <time>2019-10-07T16:20:07Z</time>
      </trkpt>
      <trkpt lat="41.54917599" lon="1.592687834">
        <ele>399.00000</ele>
        <time>2019-10-07T16:20:08Z</time>
      </trkpt>
      <trkpt lat="41.54922285" lon="1.592780034">
        <ele>398.00000</ele>
        <time>2019-10-07T16:20:09Z</time>
      </trkpt>
      <trkpt lat="41.54927347" lon="1.592874415">
        <ele>398.00000</ele>
        <time>2019-10-07T16:20:10Z</time>
      </trkpt>
      <trkpt lat="41.54932125" lon="1.592965861">
        <ele>397.00000</ele>
        <time>2019-10-07T16:20:11Z</time>
      </trkpt>
      <trkpt lat="41.54953943" lon="1.593401553">
        <ele>397.00000</ele>
        <time>2019-10-07T16:20:16Z</time>
      </trkpt>
      <trkpt lat="41.54958696" lon="1.593467686">
        <ele>397.00000</ele>
        <time>2019-10-07T16:20:17Z</time>
      </trkpt>
      <trkpt lat="41.54974445" lon="1.593606825">
        <ele>398.00000</ele>
        <time>2019-10-07T16:20:20Z</time>
      </trkpt>
      <trkpt lat="41.54979483" lon="1.593649070">
        <ele>398.00000</ele>
        <time>2019-10-07T16:20:21Z</time>
      </trkpt>
      <trkpt lat="41.54984512" lon="1.593698859">
        <ele>398.00000</ele>
        <time>2019-10-07T16:20:22Z</time>
      </trkpt>
      <trkpt lat="41.54997965" lon="1.593903377">
        <ele>397.00000</ele>
        <time>2019-10-07T16:20:25Z</time>
      </trkpt>
      <trkpt lat="41.55011644" lon="1.594136562">
        <ele>396.00000</ele>
        <time>2019-10-07T16:20:28Z</time>
      </trkpt>
      <trkpt lat="41.55022742" lon="1.594302607">
        <ele>394.00000</ele>
        <time>2019-10-07T16:20:30Z</time>
      </trkpt>
      <trkpt lat="41.55027670" lon="1.594400089">
        <ele>393.00000</ele>
        <time>2019-10-07T16:20:31Z</time>
      </trkpt>
      <trkpt lat="41.55038123" lon="1.594599410">
        <ele>392.00000</ele>
        <time>2019-10-07T16:20:33Z</time>
      </trkpt>
      <trkpt lat="41.55043571" lon="1.594699071">
        <ele>392.00000</ele>
        <time>2019-10-07T16:20:34Z</time>
      </trkpt>
      <trkpt lat="41.55058834" lon="1.595002161">
        <ele>390.00000</ele>
        <time>2019-10-07T16:20:37Z</time>
      </trkpt>
      <trkpt lat="41.55080560" lon="1.595353530">
        <ele>389.00000</ele>
        <time>2019-10-07T16:20:41Z</time>
      </trkpt>
      <trkpt lat="41.55086126" lon="1.595437768">
        <ele>389.00000</ele>
        <time>2019-10-07T16:20:42Z</time>
      </trkpt>
      <trkpt lat="41.55111783" lon="1.595827275">
        <ele>388.00000</ele>
        <time>2019-10-07T16:20:47Z</time>
      </trkpt>
      <trkpt lat="41.55121455" lon="1.595977563">
        <ele>388.00000</ele>
        <time>2019-10-07T16:20:49Z</time>
      </trkpt>
      <trkpt lat="41.55132846" lon="1.596217621">
        <ele>388.00000</ele>
        <time>2019-10-07T16:20:52Z</time>
      </trkpt>
      <trkpt lat="41.55135227" lon="1.596309570">
        <ele>388.00000</ele>
        <time>2019-10-07T16:20:53Z</time>
      </trkpt>
      <trkpt lat="41.55138974" lon="1.596597321">
        <ele>388.00000</ele>
        <time>2019-10-07T16:20:56Z</time>
      </trkpt>
      <trkpt lat="41.55139795" lon="1.596693880">
        <ele>388.00000</ele>
        <time>2019-10-07T16:20:57Z</time>
      </trkpt>
      <trkpt lat="41.55143416" lon="1.596881970">
        <ele>388.00000</ele>
        <time>2019-10-07T16:20:59Z</time>
      </trkpt>
      <trkpt lat="41.55148973" lon="1.597060924">
        <ele>388.00000</ele>
        <time>2019-10-07T16:21:01Z</time>
      </trkpt>
      <trkpt lat="41.55164119" lon="1.597370300">
        <ele>387.00000</ele>
        <time>2019-10-07T16:21:05Z</time>
      </trkpt>
      <trkpt lat="41.55168461" lon="1.597438361">
        <ele>387.00000</ele>
        <time>2019-10-07T16:21:06Z</time>
      </trkpt>
      <trkpt lat="41.55181269" lon="1.597658386">
        <ele>387.00000</ele>
        <time>2019-10-07T16:21:09Z</time>
      </trkpt>
      <trkpt lat="41.55187463" lon="1.597821163">
        <ele>387.00000</ele>
        <time>2019-10-07T16:21:11Z</time>
      </trkpt>
      <trkpt lat="41.55206238" lon="1.598294237">
        <ele>387.00000</ele>
        <time>2019-10-07T16:21:17Z</time>
      </trkpt>
      <trkpt lat="41.55211477" lon="1.598335392">
        <ele>387.00000</ele>
        <time>2019-10-07T16:21:18Z</time>
      </trkpt>
      <trkpt lat="41.55229087" lon="1.598415356">
        <ele>387.00000</ele>
        <time>2019-10-07T16:21:21Z</time>
      </trkpt>
      <trkpt lat="41.55241115" lon="1.598629513">
        <ele>388.00000</ele>
        <time>2019-10-07T16:21:25Z</time>
      </trkpt>
      <trkpt lat="41.55240914" lon="1.598891699">
        <ele>389.00000</ele>
        <time>2019-10-07T16:21:29Z</time>
      </trkpt>
      <trkpt lat="41.55242389" lon="1.599026480">
        <ele>390.00000</ele>
        <time>2019-10-07T16:21:31Z</time>
      </trkpt>
      <trkpt lat="41.55246924" lon="1.599143324">
        <ele>390.00000</ele>
        <time>2019-10-07T16:21:33Z</time>
      </trkpt>
      <trkpt lat="41.55253889" lon="1.599240219">
        <ele>391.00000</ele>
        <time>2019-10-07T16:21:35Z</time>
      </trkpt>
      <trkpt lat="41.55260168" lon="1.599333845">
        <ele>391.00000</ele>
        <time>2019-10-07T16:21:37Z</time>
      </trkpt>
      <trkpt lat="41.55263168" lon="1.599370138">
        <ele>391.00000</ele>
        <time>2019-10-07T16:21:38Z</time>
      </trkpt>
      <trkpt lat="41.55279412" lon="1.599467620">
        <ele>391.00000</ele>
        <time>2019-10-07T16:21:42Z</time>
      </trkpt>
      <trkpt lat="41.55284752" lon="1.599504919">
        <ele>391.00000</ele>
        <time>2019-10-07T16:21:43Z</time>
      </trkpt>
      <trkpt lat="41.55290694" lon="1.599553283">
        <ele>390.00000</ele>
        <time>2019-10-07T16:21:44Z</time>
      </trkpt>
      <trkpt lat="41.55303150" lon="1.599664008">
        <ele>389.00000</ele>
        <time>2019-10-07T16:21:46Z</time>
      </trkpt>
      <trkpt lat="41.55315522" lon="1.599790910">
        <ele>388.00000</ele>
        <time>2019-10-07T16:21:48Z</time>
      </trkpt>
      <trkpt lat="41.55321255" lon="1.599864168">
        <ele>387.00000</ele>
        <time>2019-10-07T16:21:49Z</time>
      </trkpt>
      <trkpt lat="41.55326569" lon="1.599947148">
        <ele>387.00000</ele>
        <time>2019-10-07T16:21:50Z</time>
      </trkpt>
      <trkpt lat="41.55331397" lon="1.600038763">
        <ele>386.00000</ele>
        <time>2019-10-07T16:21:51Z</time>
      </trkpt>
      <trkpt lat="41.55337616" lon="1.600252334">
        <ele>385.00000</ele>
        <time>2019-10-07T16:21:53Z</time>
      </trkpt>
      <trkpt lat="41.55340491" lon="1.600363226">
        <ele>385.00000</ele>
        <time>2019-10-07T16:21:54Z</time>
      </trkpt>
      <trkpt lat="41.55344909" lon="1.600462133">
        <ele>384.00000</ele>
        <time>2019-10-07T16:21:55Z</time>
      </trkpt>
      <trkpt lat="41.55356199" lon="1.600621556">
        <ele>384.00000</ele>
        <time>2019-10-07T16:21:57Z</time>
      </trkpt>
      <trkpt lat="41.55368168" lon="1.600861363">
        <ele>384.00000</ele>
        <time>2019-10-07T16:22:00Z</time>
      </trkpt>
      <trkpt lat="41.55371253" lon="1.600934956">
        <ele>384.00000</ele>
        <time>2019-10-07T16:22:01Z</time>
      </trkpt>
      <trkpt lat="41.55373365" lon="1.601003017">
        <ele>384.00000</ele>
        <time>2019-10-07T16:22:02Z</time>
      </trkpt>
      <trkpt lat="41.55380247" lon="1.601194376">
        <ele>385.00000</ele>
        <time>2019-10-07T16:22:05Z</time>
      </trkpt>
      <trkpt lat="41.55397220" lon="1.601483300">
        <ele>385.00000</ele>
        <time>2019-10-07T16:22:10Z</time>
      </trkpt>
      <trkpt lat="41.55408728" lon="1.601676084">
        <ele>384.00000</ele>
        <time>2019-10-07T16:22:13Z</time>
      </trkpt>
      <trkpt lat="41.55415509" lon="1.601831652">
        <ele>384.00000</ele>
        <time>2019-10-07T16:22:15Z</time>
      </trkpt>
      <trkpt lat="41.55423749" lon="1.602012282">
        <ele>383.00000</ele>
        <time>2019-10-07T16:22:17Z</time>
      </trkpt>
      <trkpt lat="41.55436548" lon="1.602298356">
        <ele>382.00000</ele>
        <time>2019-10-07T16:22:20Z</time>
      </trkpt>
      <trkpt lat="41.55446749" lon="1.602612258">
        <ele>381.00000</ele>
        <time>2019-10-07T16:22:23Z</time>
      </trkpt>
      <trkpt lat="41.55448836" lon="1.602717703">
        <ele>381.00000</ele>
        <time>2019-10-07T16:22:24Z</time>
      </trkpt>
      <trkpt lat="41.55456128" lon="1.603092122">
        <ele>383.00000</ele>
        <time>2019-10-07T16:22:28Z</time>
      </trkpt>
      <trkpt lat="41.55458911" lon="1.603172337">
        <ele>383.00000</ele>
        <time>2019-10-07T16:22:29Z</time>
      </trkpt>
      <trkpt lat="41.55462247" lon="1.603247439">
        <ele>384.00000</ele>
        <time>2019-10-07T16:22:30Z</time>
      </trkpt>
      <trkpt lat="41.55478625" lon="1.603553295">
        <ele>384.00000</ele>
        <time>2019-10-07T16:22:34Z</time>
      </trkpt>
      <trkpt lat="41.55505556" lon="1.603929726">
        <ele>382.00000</ele>
        <time>2019-10-07T16:22:39Z</time>
      </trkpt>
      <trkpt lat="41.55512178" lon="1.603989573">
        <ele>382.00000</ele>
        <time>2019-10-07T16:22:40Z</time>
      </trkpt>
      <trkpt lat="41.55525840" lon="1.604097951">
        <ele>381.00000</ele>
        <time>2019-10-07T16:22:42Z</time>
      </trkpt>
      <trkpt lat="41.55544096" lon="1.604281933">
        <ele>380.00000</ele>
        <time>2019-10-07T16:22:45Z</time>
      </trkpt>
      <trkpt lat="41.55549620" lon="1.604356365">
        <ele>380.00000</ele>
        <time>2019-10-07T16:22:46Z</time>
      </trkpt>
      <trkpt lat="41.55560106" lon="1.604517214">
        <ele>379.00000</ele>
        <time>2019-10-07T16:22:48Z</time>
      </trkpt>
      <trkpt lat="41.55568437" lon="1.604699855">
        <ele>378.00000</ele>
        <time>2019-10-07T16:22:50Z</time>
      </trkpt>
      <trkpt lat="41.55578571" lon="1.605089697">
        <ele>378.00000</ele>
        <time>2019-10-07T16:22:54Z</time>
      </trkpt>
      <trkpt lat="41.55580608" lon="1.605186341">
        <ele>378.00000</ele>
        <time>2019-10-07T16:22:55Z</time>
      </trkpt>
      <trkpt lat="41.55586282" lon="1.605361439">
        <ele>378.00000</ele>
        <time>2019-10-07T16:22:57Z</time>
      </trkpt>
      <trkpt lat="41.55592259" lon="1.605519186">
        <ele>378.00000</ele>
        <time>2019-10-07T16:22:59Z</time>
      </trkpt>
      <trkpt lat="41.55597246" lon="1.605681963">
        <ele>378.00000</ele>
        <time>2019-10-07T16:23:01Z</time>
      </trkpt>
      <trkpt lat="41.55599651" lon="1.605846416">
        <ele>378.00000</ele>
        <time>2019-10-07T16:23:03Z</time>
      </trkpt>
      <trkpt lat="41.55605636" lon="1.606375901">
        <ele>379.00000</ele>
        <time>2019-10-07T16:23:10Z</time>
      </trkpt>
      <trkpt lat="41.55608939" lon="1.606593243">
        <ele>380.00000</ele>
        <time>2019-10-07T16:23:13Z</time>
      </trkpt>
      <trkpt lat="41.55613540" lon="1.606752667">
        <ele>379.00000</ele>
        <time>2019-10-07T16:23:15Z</time>
      </trkpt>
      <trkpt lat="41.55617279" lon="1.606841934">
        <ele>378.00000</ele>
        <time>2019-10-07T16:23:16Z</time>
      </trkpt>
      <trkpt lat="41.55627488" lon="1.607045363">
        <ele>377.00000</ele>
        <time>2019-10-07T16:23:18Z</time>
      </trkpt>
      <trkpt lat="41.55633003" lon="1.607157262">
        <ele>376.00000</ele>
        <time>2019-10-07T16:23:19Z</time>
      </trkpt>
      <trkpt lat="41.55639382" lon="1.607274189">
        <ele>375.00000</ele>
        <time>2019-10-07T16:23:20Z</time>
      </trkpt>
      <trkpt lat="41.55645375" lon="1.607394972">
        <ele>373.00000</ele>
        <time>2019-10-07T16:23:21Z</time>
      </trkpt>
      <trkpt lat="41.55654293" lon="1.607643915">
        <ele>372.00000</ele>
        <time>2019-10-07T16:23:23Z</time>
      </trkpt>
      <trkpt lat="41.55659968" lon="1.608015652">
        <ele>372.00000</ele>
        <time>2019-10-07T16:23:26Z</time>
      </trkpt>
      <trkpt lat="41.55661049" lon="1.608133250">
        <ele>372.00000</ele>
        <time>2019-10-07T16:23:27Z</time>
      </trkpt>
      <trkpt lat="41.55664360" lon="1.608351180">
        <ele>371.00000</ele>
        <time>2019-10-07T16:23:29Z</time>
      </trkpt>
      <trkpt lat="41.55670512" lon="1.608542203">
        <ele>372.00000</ele>
        <time>2019-10-07T16:23:31Z</time>
      </trkpt>
      <trkpt lat="41.55682263" lon="1.608811765">
        <ele>372.00000</ele>
        <time>2019-10-07T16:23:34Z</time>
      </trkpt>
      <trkpt lat="41.55692179" lon="1.608952246">
        <ele>372.00000</ele>
        <time>2019-10-07T16:23:36Z</time>
      </trkpt>
      <trkpt lat="41.55700217" lon="1.609088536">
        <ele>373.00000</ele>
        <time>2019-10-07T16:23:38Z</time>
      </trkpt>
      <trkpt lat="41.55712229" lon="1.609307806">
        <ele>373.00000</ele>
        <time>2019-10-07T16:23:41Z</time>
      </trkpt>
      <trkpt lat="41.55726243" lon="1.609630342">
        <ele>372.00000</ele>
        <time>2019-10-07T16:23:45Z</time>
      </trkpt>
      <trkpt lat="41.55734592" lon="1.609793538">
        <ele>371.00000</ele>
        <time>2019-10-07T16:23:47Z</time>
      </trkpt>
      <trkpt lat="41.55744516" lon="1.609969725">
        <ele>369.00000</ele>
        <time>2019-10-07T16:23:49Z</time>
      </trkpt>
      <trkpt lat="41.55757072" lon="1.610134765">
        <ele>368.00000</ele>
        <time>2019-10-07T16:23:51Z</time>
      </trkpt>
      <trkpt lat="41.55764180" lon="1.610212549">
        <ele>367.00000</ele>
        <time>2019-10-07T16:23:52Z</time>
      </trkpt>
      <trkpt lat="41.55771682" lon="1.610301062">
        <ele>366.00000</ele>
        <time>2019-10-07T16:23:53Z</time>
      </trkpt>
      <trkpt lat="41.55786626" lon="1.610487224">
        <ele>365.00000</ele>
        <time>2019-10-07T16:23:55Z</time>
      </trkpt>
      <trkpt lat="41.55794849" lon="1.610560985">
        <ele>364.00000</ele>
        <time>2019-10-07T16:23:56Z</time>
      </trkpt>
      <trkpt lat="41.55803835" lon="1.610605157">
        <ele>363.00000</ele>
        <time>2019-10-07T16:23:57Z</time>
      </trkpt>
      <trkpt lat="41.55819173" lon="1.610727785">
        <ele>362.00000</ele>
        <time>2019-10-07T16:23:59Z</time>
      </trkpt>
      <trkpt lat="41.55834789" lon="1.611014194">
        <ele>361.00000</ele>
        <time>2019-10-07T16:24:02Z</time>
      </trkpt>
      <trkpt lat="41.55840053" lon="1.611100947">
        <ele>361.00000</ele>
        <time>2019-10-07T16:24:03Z</time>
      </trkpt>
      <trkpt lat="41.55851821" lon="1.611239248">
        <ele>361.00000</ele>
        <time>2019-10-07T16:24:05Z</time>
      </trkpt>
      <trkpt lat="41.55888374" lon="1.611588355">
        <ele>360.00000</ele>
        <time>2019-10-07T16:24:11Z</time>
      </trkpt>
      <trkpt lat="41.55894409" lon="1.611655075">
        <ele>360.00000</ele>
        <time>2019-10-07T16:24:12Z</time>
      </trkpt>
      <trkpt lat="41.55900092" lon="1.611731518">
        <ele>359.00000</ele>
        <time>2019-10-07T16:24:13Z</time>
      </trkpt>
      <trkpt lat="41.55910746" lon="1.611888259">
        <ele>358.00000</ele>
        <time>2019-10-07T16:24:15Z</time>
      </trkpt>
      <trkpt lat="41.55931198" lon="1.612178608">
        <ele>358.00000</ele>
        <time>2019-10-07T16:24:19Z</time>
      </trkpt>
      <trkpt lat="41.55941633" lon="1.612325459">
        <ele>358.00000</ele>
        <time>2019-10-07T16:24:21Z</time>
      </trkpt>
      <trkpt lat="41.55963401" lon="1.612626286">
        <ele>357.00000</ele>
        <time>2019-10-07T16:24:25Z</time>
      </trkpt>
      <trkpt lat="41.55980584" lon="1.612858967">
        <ele>356.00000</ele>
        <time>2019-10-07T16:24:28Z</time>
      </trkpt>
      <trkpt lat="41.56011907" lon="1.613296084">
        <ele>356.00000</ele>
        <time>2019-10-07T16:24:34Z</time>
      </trkpt>
      <trkpt lat="41.56027774" lon="1.613529520">
        <ele>355.00000</ele>
        <time>2019-10-07T16:24:37Z</time>
      </trkpt>
      <trkpt lat="41.56041696" lon="1.613752730">
        <ele>356.00000</ele>
        <time>2019-10-07T16:24:40Z</time>
      </trkpt>
      <trkpt lat="41.56046625" lon="1.613817270">
        <ele>356.00000</ele>
        <time>2019-10-07T16:24:41Z</time>
      </trkpt>
      <trkpt lat="41.56067672" lon="1.614058669">
        <ele>355.00000</ele>
        <time>2019-10-07T16:24:45Z</time>
      </trkpt>
      <trkpt lat="41.56086321" lon="1.614207448">
        <ele>354.00000</ele>
        <time>2019-10-07T16:24:48Z</time>
      </trkpt>
      <trkpt lat="41.56094888" lon="1.614235611">
        <ele>353.00000</ele>
        <time>2019-10-07T16:24:49Z</time>
      </trkpt>
      <trkpt lat="41.56103001" lon="1.614260505">
        <ele>353.00000</ele>
        <time>2019-10-07T16:24:50Z</time>
      </trkpt>
      <trkpt lat="41.56110201" lon="1.614283556">
        <ele>352.00000</ele>
        <time>2019-10-07T16:24:51Z</time>
      </trkpt>
      <trkpt lat="41.56116127" lon="1.614315574">
        <ele>351.00000</ele>
        <time>2019-10-07T16:24:52Z</time>
      </trkpt>
      <trkpt lat="41.56121039" lon="1.614367878">
        <ele>350.00000</ele>
        <time>2019-10-07T16:24:53Z</time>
      </trkpt>
      <trkpt lat="41.56125239" lon="1.614433424">
        <ele>350.00000</ele>
        <time>2019-10-07T16:24:54Z</time>
      </trkpt>
      <trkpt lat="41.56143050" lon="1.614694101">
        <ele>349.00000</ele>
        <time>2019-10-07T16:24:58Z</time>
      </trkpt>
      <trkpt lat="41.56157928" lon="1.614880179">
        <ele>348.00000</ele>
        <time>2019-10-07T16:25:01Z</time>
      </trkpt>
      <trkpt lat="41.56167785" lon="1.615019487">
        <ele>348.00000</ele>
        <time>2019-10-07T16:25:03Z</time>
      </trkpt>
      <trkpt lat="41.56178212" lon="1.615153346">
        <ele>348.00000</ele>
        <time>2019-10-07T16:25:05Z</time>
      </trkpt>
      <trkpt lat="41.56189461" lon="1.615247223">
        <ele>347.00000</ele>
        <time>2019-10-07T16:25:07Z</time>
      </trkpt>
      <trkpt lat="41.56203551" lon="1.615331545">
        <ele>346.00000</ele>
        <time>2019-10-07T16:25:09Z</time>
      </trkpt>
      <trkpt lat="41.56210868" lon="1.615376723">
        <ele>346.00000</ele>
        <time>2019-10-07T16:25:10Z</time>
      </trkpt>
      <trkpt lat="41.56218211" lon="1.615424836">
        <ele>345.00000</ele>
        <time>2019-10-07T16:25:11Z</time>
      </trkpt>
      <trkpt lat="41.56238361" lon="1.615582583">
        <ele>345.00000</ele>
        <time>2019-10-07T16:25:14Z</time>
      </trkpt>
      <trkpt lat="41.56247681" lon="1.615725494">
        <ele>345.00000</ele>
        <time>2019-10-07T16:25:16Z</time>
      </trkpt>
      <trkpt lat="41.56263481" lon="1.615769080">
        <ele>345.00000</ele>
        <time>2019-10-07T16:25:19Z</time>
      </trkpt>
      <trkpt lat="41.56267873" lon="1.615721387">
        <ele>345.00000</ele>
        <time>2019-10-07T16:25:20Z</time>
      </trkpt>
      <trkpt lat="41.56275685" lon="1.615591384">
        <ele>344.00000</ele>
        <time>2019-10-07T16:25:22Z</time>
      </trkpt>
      <trkpt lat="41.56279684" lon="1.615511588">
        <ele>344.00000</ele>
        <time>2019-10-07T16:25:23Z</time>
      </trkpt>
      <trkpt lat="41.56284067" lon="1.615417711">
        <ele>342.00000</ele>
        <time>2019-10-07T16:25:24Z</time>
      </trkpt>
      <trkpt lat="41.56288300" lon="1.615321319">
        <ele>341.00000</ele>
        <time>2019-10-07T16:25:25Z</time>
      </trkpt>
      <trkpt lat="41.56292340" lon="1.615229872">
        <ele>340.00000</ele>
        <time>2019-10-07T16:25:26Z</time>
      </trkpt>
      <trkpt lat="41.56300823" lon="1.615080591">
        <ele>339.00000</ele>
        <time>2019-10-07T16:25:28Z</time>
      </trkpt>
      <trkpt lat="41.56312985" lon="1.614960394">
        <ele>337.00000</ele>
        <time>2019-10-07T16:25:30Z</time>
      </trkpt>
      <trkpt lat="41.56320344" lon="1.614903314">
        <ele>335.00000</ele>
        <time>2019-10-07T16:25:31Z</time>
      </trkpt>
      <trkpt lat="41.56327896" lon="1.614849586">
        <ele>334.00000</ele>
        <time>2019-10-07T16:25:32Z</time>
      </trkpt>
      <trkpt lat="41.56344945" lon="1.614752104">
        <ele>333.00000</ele>
        <time>2019-10-07T16:25:34Z</time>
      </trkpt>
      <trkpt lat="41.56353260" lon="1.614698376">
        <ele>332.00000</ele>
        <time>2019-10-07T16:25:35Z</time>
      </trkpt>
      <trkpt lat="41.56373167" lon="1.614549597">
        <ele>331.00000</ele>
        <time>2019-10-07T16:25:38Z</time>
      </trkpt>
      <trkpt lat="41.56386092" lon="1.614610534">
        <ele>332.00000</ele>
        <time>2019-10-07T16:25:41Z</time>
      </trkpt>
      <trkpt lat="41.56390249" lon="1.614733161">
        <ele>332.00000</ele>
        <time>2019-10-07T16:25:43Z</time>
      </trkpt>
      <trkpt lat="41.56393275" lon="1.614795271">
        <ele>332.00000</ele>
        <time>2019-10-07T16:25:44Z</time>
      </trkpt>
      <trkpt lat="41.56396645" lon="1.614865511">
        <ele>332.00000</ele>
        <time>2019-10-07T16:25:45Z</time>
      </trkpt>
      <trkpt lat="41.56406535" lon="1.615180587">
        <ele>332.00000</ele>
        <time>2019-10-07T16:25:49Z</time>
      </trkpt>
      <trkpt lat="41.56406150" lon="1.615408407">
        <ele>331.00000</ele>
        <time>2019-10-07T16:25:52Z</time>
      </trkpt>
      <trkpt lat="41.56409528" lon="1.615470349">
        <ele>331.00000</ele>
        <time>2019-10-07T16:25:53Z</time>
      </trkpt>
      <trkpt lat="41.56414423" lon="1.615502703">
        <ele>331.00000</ele>
        <time>2019-10-07T16:25:54Z</time>
      </trkpt>
      <trkpt lat="41.56431421" lon="1.615589959">
        <ele>331.00000</ele>
        <time>2019-10-07T16:25:57Z</time>
      </trkpt>
      <trkpt lat="41.56436869" lon="1.615625582">
        <ele>331.00000</ele>
        <time>2019-10-07T16:25:58Z</time>
      </trkpt>
      <trkpt lat="41.56448537" lon="1.615681489">
        <ele>332.00000</ele>
        <time>2019-10-07T16:26:00Z</time>
      </trkpt>
      <trkpt lat="41.56460263" lon="1.615705797">
        <ele>332.00000</ele>
        <time>2019-10-07T16:26:02Z</time>
      </trkpt>
      <trkpt lat="41.56476859" lon="1.615739911">
        <ele>332.00000</ele>
        <time>2019-10-07T16:26:05Z</time>
      </trkpt>
      <trkpt lat="41.56486867" lon="1.615790370">
        <ele>333.00000</ele>
        <time>2019-10-07T16:26:07Z</time>
      </trkpt>
      <trkpt lat="41.56502776" lon="1.615939065">
        <ele>333.00000</ele>
        <time>2019-10-07T16:26:11Z</time>
      </trkpt>
      <trkpt lat="41.56506950" lon="1.615990865">
        <ele>333.00000</ele>
        <time>2019-10-07T16:26:12Z</time>
      </trkpt>
      <trkpt lat="41.56524452" lon="1.616205107">
        <ele>332.00000</ele>
        <time>2019-10-07T16:26:16Z</time>
      </trkpt>
      <trkpt lat="41.56546790" lon="1.616406776">
        <ele>332.00000</ele>
        <time>2019-10-07T16:26:21Z</time>
      </trkpt>
      <trkpt lat="41.56551701" lon="1.616437369">
        <ele>332.00000</ele>
        <time>2019-10-07T16:26:22Z</time>
      </trkpt>
      <trkpt lat="41.56569806" lon="1.616498976">
        <ele>331.00000</ele>
        <time>2019-10-07T16:26:25Z</time>
      </trkpt>
      <trkpt lat="41.56576369" lon="1.616504257">
        <ele>331.00000</ele>
        <time>2019-10-07T16:26:26Z</time>
      </trkpt>
      <trkpt lat="41.56589613" lon="1.616532588">
        <ele>330.00000</ele>
        <time>2019-10-07T16:26:28Z</time>
      </trkpt>
      <trkpt lat="41.56610216" lon="1.616596207">
        <ele>329.00000</ele>
        <time>2019-10-07T16:26:31Z</time>
      </trkpt>
      <trkpt lat="41.56624456" lon="1.616623615">
        <ele>329.00000</ele>
        <time>2019-10-07T16:26:33Z</time>
      </trkpt>
      <trkpt lat="41.56646241" lon="1.616673907">
        <ele>327.00000</ele>
        <time>2019-10-07T16:26:36Z</time>
      </trkpt>
      <trkpt lat="41.56660398" lon="1.616705087">
        <ele>327.00000</ele>
        <time>2019-10-07T16:26:38Z</time>
      </trkpt>
      <trkpt lat="41.56667564" lon="1.616708775">
        <ele>326.00000</ele>
        <time>2019-10-07T16:26:39Z</time>
      </trkpt>
      <trkpt lat="41.56678679" lon="1.616739034">
        <ele>326.00000</ele>
        <time>2019-10-07T16:26:41Z</time>
      </trkpt>
      <trkpt lat="41.56680649" lon="1.616788990">
        <ele>326.00000</ele>
        <time>2019-10-07T16:26:42Z</time>
      </trkpt>
      <trkpt lat="41.56679919" lon="1.616991832">
        <ele>325.00000</ele>
        <time>2019-10-07T16:26:45Z</time>
      </trkpt>
      <trkpt lat="41.56678721" lon="1.617070203">
        <ele>325.00000</ele>
        <time>2019-10-07T16:26:46Z</time>
      </trkpt>
      <trkpt lat="41.56675645" lon="1.617233315">
        <ele>324.00000</ele>
        <time>2019-10-07T16:26:48Z</time>
      </trkpt>
      <trkpt lat="41.56674052" lon="1.617323672">
        <ele>323.00000</ele>
        <time>2019-10-07T16:26:49Z</time>
      </trkpt>
      <trkpt lat="41.56670926" lon="1.617513354">
        <ele>322.00000</ele>
        <time>2019-10-07T16:26:51Z</time>
      </trkpt>
      <trkpt lat="41.56670255" lon="1.617647968">
        <ele>322.00000</ele>
        <time>2019-10-07T16:26:53Z</time>
      </trkpt>
      <trkpt lat="41.56672384" lon="1.617696918">
        <ele>322.00000</ele>
        <time>2019-10-07T16:26:54Z</time>
      </trkpt>
      <trkpt lat="41.56680481" lon="1.617704881">
        <ele>321.00000</ele>
        <time>2019-10-07T16:26:56Z</time>
      </trkpt>
      <trkpt lat="41.56685166" lon="1.617701780">
        <ele>321.00000</ele>
        <time>2019-10-07T16:26:57Z</time>
      </trkpt>
      <trkpt lat="41.56696566" lon="1.617726590">
        <ele>320.00000</ele>
        <time>2019-10-07T16:26:59Z</time>
      </trkpt>
      <trkpt lat="41.56702542" lon="1.617744192">
        <ele>320.00000</ele>
        <time>2019-10-07T16:27:00Z</time>
      </trkpt>
      <trkpt lat="41.56708225" lon="1.617767745">
        <ele>319.00000</ele>
        <time>2019-10-07T16:27:01Z</time>
      </trkpt>
      <trkpt lat="41.56722550" lon="1.617837483">
        <ele>318.00000</ele>
        <time>2019-10-07T16:27:04Z</time>
      </trkpt>
      <trkpt lat="41.56726045" lon="1.617891965">
        <ele>317.00000</ele>
        <time>2019-10-07T16:27:05Z</time>
      </trkpt>
      <trkpt lat="41.56733287" lon="1.618036134">
        <ele>316.00000</ele>
        <time>2019-10-07T16:27:07Z</time>
      </trkpt>
      <trkpt lat="41.56743815" lon="1.618169574">
        <ele>314.00000</ele>
        <time>2019-10-07T16:27:09Z</time>
      </trkpt>
      <trkpt lat="41.56758734" lon="1.618241574">
        <ele>313.00000</ele>
        <time>2019-10-07T16:27:11Z</time>
      </trkpt>
      <trkpt lat="41.56765474" lon="1.618285411">
        <ele>313.00000</ele>
        <time>2019-10-07T16:27:12Z</time>
      </trkpt>
      <trkpt lat="41.56770821" lon="1.618352634">
        <ele>312.00000</ele>
        <time>2019-10-07T16:27:13Z</time>
      </trkpt>
      <trkpt lat="41.56774006" lon="1.618440980">
        <ele>311.00000</ele>
        <time>2019-10-07T16:27:14Z</time>
      </trkpt>
      <trkpt lat="41.56776730" lon="1.618530666">
        <ele>311.00000</ele>
        <time>2019-10-07T16:27:15Z</time>
      </trkpt>
      <trkpt lat="41.56790552" lon="1.618749937">
        <ele>311.00000</ele>
        <time>2019-10-07T16:27:18Z</time>
      </trkpt>
      <trkpt lat="41.56795850" lon="1.618815064">
        <ele>310.00000</ele>
        <time>2019-10-07T16:27:19Z</time>
      </trkpt>
      <trkpt lat="41.56800501" lon="1.618895363">
        <ele>310.00000</ele>
        <time>2019-10-07T16:27:20Z</time>
      </trkpt>
      <trkpt lat="41.56807106" lon="1.619092589">
        <ele>310.00000</ele>
        <time>2019-10-07T16:27:22Z</time>
      </trkpt>
      <trkpt lat="41.56807651" lon="1.619198117">
        <ele>309.00000</ele>
        <time>2019-10-07T16:27:23Z</time>
      </trkpt>
      <trkpt lat="41.56806696" lon="1.619415208">
        <ele>308.00000</ele>
        <time>2019-10-07T16:27:25Z</time>
      </trkpt>
      <trkpt lat="41.56805514" lon="1.619625091">
        <ele>308.00000</ele>
        <time>2019-10-07T16:27:27Z</time>
      </trkpt>
      <trkpt lat="41.56803133" lon="1.619954667">
        <ele>307.00000</ele>
        <time>2019-10-07T16:27:30Z</time>
      </trkpt>
      <trkpt lat="41.56800074" lon="1.620181649">
        <ele>306.00000</ele>
        <time>2019-10-07T16:27:32Z</time>
      </trkpt>
      <trkpt lat="41.56798725" lon="1.620297655">
        <ele>305.00000</ele>
        <time>2019-10-07T16:27:33Z</time>
      </trkpt>
      <trkpt lat="41.56796369" lon="1.620538886">
        <ele>304.00000</ele>
        <time>2019-10-07T16:27:35Z</time>
      </trkpt>
      <trkpt lat="41.56789957" lon="1.620879527">
        <ele>303.00000</ele>
        <time>2019-10-07T16:27:38Z</time>
      </trkpt>
      <trkpt lat="41.56778139" lon="1.621430385">
        <ele>302.00000</ele>
        <time>2019-10-07T16:27:43Z</time>
      </trkpt>
      <trkpt lat="41.56756186" lon="1.622160365">
        <ele>301.00000</ele>
        <time>2019-10-07T16:27:50Z</time>
      </trkpt>
      <trkpt lat="41.56752867" lon="1.622265139">
        <ele>301.00000</ele>
        <time>2019-10-07T16:27:51Z</time>
      </trkpt>
      <trkpt lat="41.56749498" lon="1.622367817">
        <ele>300.00000</ele>
        <time>2019-10-07T16:27:52Z</time>
      </trkpt>
      <trkpt lat="41.56736246" lon="1.622773753">
        <ele>300.00000</ele>
        <time>2019-10-07T16:27:56Z</time>
      </trkpt>
      <trkpt lat="41.56727135" lon="1.622949689">
        <ele>298.00000</ele>
        <time>2019-10-07T16:27:58Z</time>
      </trkpt>
      <trkpt lat="41.56703724" lon="1.623225454">
        <ele>297.00000</ele>
        <time>2019-10-07T16:28:02Z</time>
      </trkpt>
      <trkpt lat="41.56697647" lon="1.623289156">
        <ele>297.00000</ele>
        <time>2019-10-07T16:28:03Z</time>
      </trkpt>
      <trkpt lat="41.56674521" lon="1.623559137">
        <ele>297.00000</ele>
        <time>2019-10-07T16:28:07Z</time>
      </trkpt>
      <trkpt lat="41.56645989" lon="1.623877733">
        <ele>297.00000</ele>
        <time>2019-10-07T16:28:12Z</time>
      </trkpt>
      <trkpt lat="41.56635755" lon="1.624019471">
        <ele>297.00000</ele>
        <time>2019-10-07T16:28:14Z</time>
      </trkpt>
      <trkpt lat="41.56623325" lon="1.624265061">
        <ele>297.00000</ele>
        <time>2019-10-07T16:28:17Z</time>
      </trkpt>
      <trkpt lat="41.56604994" lon="1.624566726">
        <ele>296.00000</ele>
        <time>2019-10-07T16:28:21Z</time>
      </trkpt>
      <trkpt lat="41.56601943" lon="1.624659094">
        <ele>296.00000</ele>
        <time>2019-10-07T16:28:22Z</time>
      </trkpt>
      <trkpt lat="41.56600241" lon="1.624966794">
        <ele>295.00000</ele>
        <time>2019-10-07T16:28:25Z</time>
      </trkpt>
      <trkpt lat="41.56600400" lon="1.625069053">
        <ele>295.00000</ele>
        <time>2019-10-07T16:28:26Z</time>
      </trkpt>
      <trkpt lat="41.56602814" lon="1.625457219">
        <ele>297.00000</ele>
        <time>2019-10-07T16:28:30Z</time>
      </trkpt>
      <trkpt lat="41.56605522" lon="1.625543134">
        <ele>297.00000</ele>
        <time>2019-10-07T16:28:31Z</time>
      </trkpt>
      <trkpt lat="41.56620014" lon="1.625704402">
        <ele>298.00000</ele>
        <time>2019-10-07T16:28:34Z</time>
      </trkpt>
      <trkpt lat="41.56625295" lon="1.625733822">
        <ele>298.00000</ele>
        <time>2019-10-07T16:28:35Z</time>
      </trkpt>
      <trkpt lat="41.56634280" lon="1.625803811">
        <ele>298.00000</ele>
        <time>2019-10-07T16:28:37Z</time>
      </trkpt>
      <trkpt lat="41.56636744" lon="1.625839350">
        <ele>298.00000</ele>
        <time>2019-10-07T16:28:38Z</time>
      </trkpt>
      <trkpt lat="41.56640809" lon="1.625876734">
        <ele>298.00000</ele>
        <time>2019-10-07T16:28:41Z</time>
      </trkpt>
      <trkpt lat="41.56641069" lon="1.625875141">
        <ele>298.00000</ele>
        <time>2019-10-07T16:28:42Z</time>
      </trkpt>
      <trkpt lat="41.56642519" lon="1.625873632">
        <ele>298.00000</ele>
        <time>2019-10-07T16:28:43Z</time>
      </trkpt>
      <trkpt lat="41.56649870" lon="1.625892492">
        <ele>298.00000</ele>
        <time>2019-10-07T16:28:46Z</time>
      </trkpt>
      <trkpt lat="41.56664857" lon="1.625972623">
        <ele>297.00000</ele>
        <time>2019-10-07T16:28:50Z</time>
      </trkpt>
      <trkpt lat="41.56669409" lon="1.626002546">
        <ele>297.00000</ele>
        <time>2019-10-07T16:28:51Z</time>
      </trkpt>
      <trkpt lat="41.56678159" lon="1.626075049">
        <ele>297.00000</ele>
        <time>2019-10-07T16:28:53Z</time>
      </trkpt>
      <trkpt lat="41.56691067" lon="1.626227516">
        <ele>296.00000</ele>
        <time>2019-10-07T16:28:56Z</time>
      </trkpt>
      <trkpt lat="41.56695451" lon="1.626295242">
        <ele>296.00000</ele>
        <time>2019-10-07T16:28:57Z</time>
      </trkpt>
      <trkpt lat="41.56704721" lon="1.626442847">
        <ele>294.00000</ele>
        <time>2019-10-07T16:28:59Z</time>
      </trkpt>
      <trkpt lat="41.56714562" lon="1.626605791">
        <ele>293.00000</ele>
        <time>2019-10-07T16:29:01Z</time>
      </trkpt>
      <trkpt lat="41.56729565" lon="1.626879209">
        <ele>292.00000</ele>
        <time>2019-10-07T16:29:04Z</time>
      </trkpt>
      <trkpt lat="41.56745416" lon="1.627159081">
        <ele>290.00000</ele>
        <time>2019-10-07T16:29:07Z</time>
      </trkpt>
      <trkpt lat="41.56778633" lon="1.627661660">
        <ele>288.00000</ele>
        <time>2019-10-07T16:29:13Z</time>
      </trkpt>
      <trkpt lat="41.56784333" lon="1.627744305">
        <ele>288.00000</ele>
        <time>2019-10-07T16:29:14Z</time>
      </trkpt>
      <trkpt lat="41.56790225" lon="1.627825358">
        <ele>287.00000</ele>
        <time>2019-10-07T16:29:15Z</time>
      </trkpt>
      <trkpt lat="41.56795674" lon="1.627915883">
        <ele>287.00000</ele>
        <time>2019-10-07T16:29:16Z</time>
      </trkpt>
      <trkpt lat="41.56802983" lon="1.628131214">
        <ele>286.00000</ele>
        <time>2019-10-07T16:29:18Z</time>
      </trkpt>
      <trkpt lat="41.56804433" lon="1.628359705">
        <ele>285.00000</ele>
        <time>2019-10-07T16:29:20Z</time>
      </trkpt>
      <trkpt lat="41.56802563" lon="1.628472190">
        <ele>284.00000</ele>
        <time>2019-10-07T16:29:21Z</time>
      </trkpt>
      <trkpt lat="41.56797744" lon="1.628680648">
        <ele>284.00000</ele>
        <time>2019-10-07T16:29:23Z</time>
      </trkpt>
      <trkpt lat="41.56790133" lon="1.628872593">
        <ele>284.00000</ele>
        <time>2019-10-07T16:29:25Z</time>
      </trkpt>
      <trkpt lat="41.56783972" lon="1.628946354">
        <ele>283.00000</ele>
        <time>2019-10-07T16:29:26Z</time>
      </trkpt>
      <trkpt lat="41.56773034" lon="1.629107957">
        <ele>283.00000</ele>
        <time>2019-10-07T16:29:28Z</time>
      </trkpt>
      <trkpt lat="41.56761140" lon="1.629375759">
        <ele>282.00000</ele>
        <time>2019-10-07T16:29:31Z</time>
      </trkpt>
      <trkpt lat="41.56758776" lon="1.629472989">
        <ele>282.00000</ele>
        <time>2019-10-07T16:29:32Z</time>
      </trkpt>
      <trkpt lat="41.56756128" lon="1.629766859">
        <ele>281.00000</ele>
        <time>2019-10-07T16:29:35Z</time>
      </trkpt>
      <trkpt lat="41.56757578" lon="1.629866268">
        <ele>281.00000</ele>
        <time>2019-10-07T16:29:36Z</time>
      </trkpt>
      <trkpt lat="41.56761903" lon="1.630053604">
        <ele>281.00000</ele>
        <time>2019-10-07T16:29:38Z</time>
      </trkpt>
      <trkpt lat="41.56764258" lon="1.630150582">
        <ele>280.00000</ele>
        <time>2019-10-07T16:29:39Z</time>
      </trkpt>
      <trkpt lat="41.56770746" lon="1.630333894">
        <ele>280.00000</ele>
        <time>2019-10-07T16:29:41Z</time>
      </trkpt>
      <trkpt lat="41.56781005" lon="1.630463646">
        <ele>280.00000</ele>
        <time>2019-10-07T16:29:43Z</time>
      </trkpt>
      <trkpt lat="41.56789898" lon="1.630687443">
        <ele>279.00000</ele>
        <time>2019-10-07T16:29:46Z</time>
      </trkpt>
      <trkpt lat="41.56789136" lon="1.630851142">
        <ele>279.00000</ele>
        <time>2019-10-07T16:29:48Z</time>
      </trkpt>
      <trkpt lat="41.56789974" lon="1.630931692">
        <ele>280.00000</ele>
        <time>2019-10-07T16:29:49Z</time>
      </trkpt>
      <trkpt lat="41.56802597" lon="1.631083656">
        <ele>279.00000</ele>
        <time>2019-10-07T16:29:52Z</time>
      </trkpt>
      <trkpt lat="41.56813837" lon="1.631124895">
        <ele>279.00000</ele>
        <time>2019-10-07T16:29:54Z</time>
      </trkpt>
      <trkpt lat="41.56830048" lon="1.631175270">
        <ele>280.00000</ele>
        <time>2019-10-07T16:29:57Z</time>
      </trkpt>
      <trkpt lat="41.56835563" lon="1.631184825">
        <ele>280.00000</ele>
        <time>2019-10-07T16:29:58Z</time>
      </trkpt>
      <trkpt lat="41.56871404" lon="1.631314493">
        <ele>278.00000</ele>
        <time>2019-10-07T16:30:04Z</time>
      </trkpt>
      <trkpt lat="41.56877984" lon="1.631348775">
        <ele>278.00000</ele>
        <time>2019-10-07T16:30:05Z</time>
      </trkpt>
      <trkpt lat="41.56899617" lon="1.631416920">
        <ele>277.00000</ele>
        <time>2019-10-07T16:30:08Z</time>
      </trkpt>
      <trkpt lat="41.56907362" lon="1.631433349">
        <ele>276.00000</ele>
        <time>2019-10-07T16:30:09Z</time>
      </trkpt>
      <trkpt lat="41.56919969" lon="1.631495794">
        <ele>276.00000</ele>
        <time>2019-10-07T16:30:11Z</time>
      </trkpt>
      <trkpt lat="41.56924394" lon="1.631547091">
        <ele>275.00000</ele>
        <time>2019-10-07T16:30:12Z</time>
      </trkpt>
      <trkpt lat="41.56926146" lon="1.631763428">
        <ele>275.00000</ele>
        <time>2019-10-07T16:30:15Z</time>
      </trkpt>
      <trkpt lat="41.56922165" lon="1.631897874">
        <ele>276.00000</ele>
        <time>2019-10-07T16:30:17Z</time>
      </trkpt>
      <trkpt lat="41.56913892" lon="1.632206412">
        <ele>276.00000</ele>
        <time>2019-10-07T16:30:21Z</time>
      </trkpt>
      <trkpt lat="41.56905828" lon="1.632446302">
        <ele>276.00000</ele>
        <time>2019-10-07T16:30:24Z</time>
      </trkpt>
      <trkpt lat="41.56897170" lon="1.632584854">
        <ele>275.00000</ele>
        <time>2019-10-07T16:30:26Z</time>
      </trkpt>
      <trkpt lat="41.56888972" lon="1.632732879">
        <ele>275.00000</ele>
        <time>2019-10-07T16:30:28Z</time>
      </trkpt>
      <trkpt lat="41.56879702" lon="1.632874617">
        <ele>274.00000</ele>
        <time>2019-10-07T16:30:30Z</time>
      </trkpt>
      <trkpt lat="41.56874991" lon="1.632947456">
        <ele>274.00000</ele>
        <time>2019-10-07T16:30:31Z</time>
      </trkpt>
      <trkpt lat="41.56861840" lon="1.633193884">
        <ele>274.00000</ele>
        <time>2019-10-07T16:30:34Z</time>
      </trkpt>
      <trkpt lat="41.56861178" lon="1.633294718">
        <ele>273.00000</ele>
        <time>2019-10-07T16:30:35Z</time>
      </trkpt>
      <trkpt lat="41.56863978" lon="1.633390858">
        <ele>273.00000</ele>
        <time>2019-10-07T16:30:36Z</time>
      </trkpt>
      <trkpt lat="41.56868043" lon="1.633473085">
        <ele>273.00000</ele>
        <time>2019-10-07T16:30:37Z</time>
      </trkpt>
      <trkpt lat="41.56876928" lon="1.633632676">
        <ele>273.00000</ele>
        <time>2019-10-07T16:30:39Z</time>
      </trkpt>
      <trkpt lat="41.56891596" lon="1.633979100">
        <ele>272.00000</ele>
        <time>2019-10-07T16:30:43Z</time>
      </trkpt>
      <trkpt lat="41.56893951" lon="1.634074486">
        <ele>271.00000</ele>
        <time>2019-10-07T16:30:44Z</time>
      </trkpt>
      <trkpt lat="41.56894169" lon="1.634177500">
        <ele>271.00000</ele>
        <time>2019-10-07T16:30:45Z</time>
      </trkpt>
      <trkpt lat="41.56892300" lon="1.634278250">
        <ele>270.00000</ele>
        <time>2019-10-07T16:30:46Z</time>
      </trkpt>
      <trkpt lat="41.56884999" lon="1.634477572">
        <ele>270.00000</ele>
        <time>2019-10-07T16:30:48Z</time>
      </trkpt>
      <trkpt lat="41.56881462" lon="1.634584106">
        <ele>270.00000</ele>
        <time>2019-10-07T16:30:49Z</time>
      </trkpt>
      <trkpt lat="41.56873491" lon="1.634776303">
        <ele>268.00000</ele>
        <time>2019-10-07T16:30:51Z</time>
      </trkpt>
      <trkpt lat="41.56862259" lon="1.634890045">
        <ele>267.00000</ele>
        <time>2019-10-07T16:30:53Z</time>
      </trkpt>
      <trkpt lat="41.56857532" lon="1.634934889">
        <ele>267.00000</ele>
        <time>2019-10-07T16:30:54Z</time>
      </trkpt>
      <trkpt lat="41.56853366" lon="1.635060869">
        <ele>268.00000</ele>
        <time>2019-10-07T16:30:56Z</time>
      </trkpt>
      <trkpt lat="41.56856107" lon="1.635270249">
        <ele>268.00000</ele>
        <time>2019-10-07T16:30:59Z</time>
      </trkpt>
      <trkpt lat="41.56857951" lon="1.635343674">
        <ele>268.00000</ele>
        <time>2019-10-07T16:31:00Z</time>
      </trkpt>
      <trkpt lat="41.56866098" lon="1.635604435">
        <ele>269.00000</ele>
        <time>2019-10-07T16:31:04Z</time>
      </trkpt>
      <trkpt lat="41.56867557" lon="1.635654307">
        <ele>269.00000</ele>
        <time>2019-10-07T16:31:05Z</time>
      </trkpt>
      <trkpt lat="41.56869183" lon="1.635726979">
        <ele>269.00000</ele>
        <time>2019-10-07T16:31:08Z</time>
      </trkpt>
      <trkpt lat="41.56869526" lon="1.635729996">
        <ele>269.00000</ele>
        <time>2019-10-07T16:31:09Z</time>
      </trkpt>
      <trkpt lat="41.56867791" lon="1.635808032">
        <ele>269.00000</ele>
        <time>2019-10-07T16:33:00Z</time>
      </trkpt>
      <trkpt lat="41.56865889" lon="1.635852288">
        <ele>268.00000</ele>
        <time>2019-10-07T16:33:01Z</time>
      </trkpt>
      <trkpt lat="41.56853986" lon="1.636092765">
        <ele>267.00000</ele>
        <time>2019-10-07T16:33:05Z</time>
      </trkpt>
      <trkpt lat="41.56830869" lon="1.636522002">
        <ele>267.00000</ele>
        <time>2019-10-07T16:33:11Z</time>
      </trkpt>
      <trkpt lat="41.56822714" lon="1.636657956">
        <ele>266.00000</ele>
        <time>2019-10-07T16:33:13Z</time>
      </trkpt>
      <trkpt lat="41.56806436" lon="1.636933386">
        <ele>266.00000</ele>
        <time>2019-10-07T16:33:17Z</time>
      </trkpt>
      <trkpt lat="41.56777426" lon="1.637409813">
        <ele>266.00000</ele>
        <time>2019-10-07T16:33:24Z</time>
      </trkpt>
      <trkpt lat="41.56772229" lon="1.637464463">
        <ele>266.00000</ele>
        <time>2019-10-07T16:33:25Z</time>
      </trkpt>
      <trkpt lat="41.56755088" lon="1.637595891">
        <ele>266.00000</ele>
        <time>2019-10-07T16:33:28Z</time>
      </trkpt>
      <trkpt lat="41.56718518" lon="1.637939047">
        <ele>266.00000</ele>
        <time>2019-10-07T16:33:35Z</time>
      </trkpt>
      <trkpt lat="41.56687337" lon="1.638209028">
        <ele>266.00000</ele>
        <time>2019-10-07T16:33:41Z</time>
      </trkpt>
      <trkpt lat="41.56665762" lon="1.638393430">
        <ele>266.00000</ele>
        <time>2019-10-07T16:33:45Z</time>
      </trkpt>
      <trkpt lat="41.56648454" lon="1.638509770">
        <ele>266.00000</ele>
        <time>2019-10-07T16:33:48Z</time>
      </trkpt>
      <trkpt lat="41.56611280" lon="1.638659555">
        <ele>266.00000</ele>
        <time>2019-10-07T16:33:54Z</time>
      </trkpt>
      <trkpt lat="41.56558893" lon="1.638850411">
        <ele>266.00000</ele>
        <time>2019-10-07T16:34:02Z</time>
      </trkpt>
      <trkpt lat="41.56539254" lon="1.638942696">
        <ele>266.00000</ele>
        <time>2019-10-07T16:34:05Z</time>
      </trkpt>
      <trkpt lat="41.56513229" lon="1.639079991">
        <ele>266.00000</ele>
        <time>2019-10-07T16:34:09Z</time>
      </trkpt>
      <trkpt lat="41.56495224" lon="1.639208653">
        <ele>266.00000</ele>
        <time>2019-10-07T16:34:12Z</time>
      </trkpt>
      <trkpt lat="41.56485023" lon="1.639353409">
        <ele>266.00000</ele>
        <time>2019-10-07T16:34:14Z</time>
      </trkpt>
      <trkpt lat="41.56473800" lon="1.639503110">
        <ele>265.00000</ele>
        <time>2019-10-07T16:34:16Z</time>
      </trkpt>
      <trkpt lat="41.56456827" lon="1.639703940">
        <ele>264.00000</ele>
        <time>2019-10-07T16:34:19Z</time>
      </trkpt>
      <trkpt lat="41.56451152" lon="1.639763955">
        <ele>263.00000</ele>
        <time>2019-10-07T16:34:20Z</time>
      </trkpt>
      <trkpt lat="41.56420785" lon="1.640127394">
        <ele>264.00000</ele>
        <time>2019-10-07T16:34:26Z</time>
      </trkpt>
      <trkpt lat="41.56396293" lon="1.640451857">
        <ele>263.00000</ele>
        <time>2019-10-07T16:34:31Z</time>
      </trkpt>
      <trkpt lat="41.56392093" lon="1.640527714">
        <ele>262.00000</ele>
        <time>2019-10-07T16:34:32Z</time>
      </trkpt>
      <trkpt lat="41.56389084" lon="1.640631565">
        <ele>262.00000</ele>
        <time>2019-10-07T16:34:34Z</time>
      </trkpt>
      <trkpt lat="41.56390300" lon="1.640682360">
        <ele>262.00000</ele>
        <time>2019-10-07T16:34:35Z</time>
      </trkpt>
      <trkpt lat="41.56394138" lon="1.640709098">
        <ele>262.00000</ele>
        <time>2019-10-07T16:34:36Z</time>
      </trkpt>
      <trkpt lat="41.56398673" lon="1.640723012">
        <ele>261.00000</ele>
        <time>2019-10-07T16:34:37Z</time>
      </trkpt>
      <trkpt lat="41.56409871" lon="1.640707002">
        <ele>260.00000</ele>
        <time>2019-10-07T16:34:39Z</time>
      </trkpt>
      <trkpt lat="41.56415638" lon="1.640689400">
        <ele>260.00000</ele>
        <time>2019-10-07T16:34:40Z</time>
      </trkpt>
      <trkpt lat="41.56421581" lon="1.640666685">
        <ele>260.00000</ele>
        <time>2019-10-07T16:34:41Z</time>
      </trkpt>
      <trkpt lat="41.56427289" lon="1.640630559">
        <ele>260.00000</ele>
        <time>2019-10-07T16:34:42Z</time>
      </trkpt>
      <trkpt lat="41.56444421" lon="1.640529306">
        <ele>261.00000</ele>
        <time>2019-10-07T16:34:45Z</time>
      </trkpt>
      <trkpt lat="41.56450222" lon="1.640498964">
        <ele>261.00000</ele>
        <time>2019-10-07T16:34:46Z</time>
      </trkpt>
      <trkpt lat="41.56471981" lon="1.640377426">
        <ele>262.00000</ele>
        <time>2019-10-07T16:34:50Z</time>
      </trkpt>
      <trkpt lat="41.56477304" lon="1.640360327">
        <ele>262.00000</ele>
        <time>2019-10-07T16:34:51Z</time>
      </trkpt>
      <trkpt lat="41.56491469" lon="1.640413720">
        <ele>263.00000</ele>
        <time>2019-10-07T16:34:55Z</time>
      </trkpt>
      <trkpt lat="41.56495342" lon="1.640504496">
        <ele>264.00000</ele>
        <time>2019-10-07T16:34:57Z</time>
      </trkpt>
      <trkpt lat="41.56497772" lon="1.640559984">
        <ele>265.00000</ele>
        <time>2019-10-07T16:34:58Z</time>
      </trkpt>
      <trkpt lat="41.56498870" lon="1.640617065">
        <ele>265.00000</ele>
        <time>2019-10-07T16:34:59Z</time>
      </trkpt>
      <trkpt lat="41.56494604" lon="1.640720749">
        <ele>265.00000</ele>
        <time>2019-10-07T16:35:01Z</time>
      </trkpt>
      <trkpt lat="41.56490765" lon="1.640766682">
        <ele>266.00000</ele>
        <time>2019-10-07T16:35:02Z</time>
      </trkpt>
      <trkpt lat="41.56470020" lon="1.640934655">
        <ele>266.00000</ele>
        <time>2019-10-07T16:35:06Z</time>
      </trkpt>
      <trkpt lat="41.56432134" lon="1.641311924">
        <ele>265.00000</ele>
        <time>2019-10-07T16:35:13Z</time>
      </trkpt>
      <trkpt lat="41.56414037" lon="1.641592383">
        <ele>265.00000</ele>
        <time>2019-10-07T16:35:17Z</time>
      </trkpt>
      <trkpt lat="41.56394004" lon="1.641843253">
        <ele>264.00000</ele>
        <time>2019-10-07T16:35:21Z</time>
      </trkpt>
      <trkpt lat="41.56387726" lon="1.641880804">
        <ele>264.00000</ele>
        <time>2019-10-07T16:35:22Z</time>
      </trkpt>
      <trkpt lat="41.56375732" lon="1.641976023">
        <ele>264.00000</ele>
        <time>2019-10-07T16:35:24Z</time>
      </trkpt>
      <trkpt lat="41.56357468" lon="1.642100242">
        <ele>264.00000</ele>
        <time>2019-10-07T16:35:27Z</time>
      </trkpt>
      <trkpt lat="41.56337510" lon="1.642370056">
        <ele>264.00000</ele>
        <time>2019-10-07T16:35:31Z</time>
      </trkpt>
      <trkpt lat="41.56331676" lon="1.642427556">
        <ele>264.00000</ele>
        <time>2019-10-07T16:35:32Z</time>
      </trkpt>
      <trkpt lat="41.56312549" lon="1.642571557">
        <ele>263.00000</ele>
        <time>2019-10-07T16:35:35Z</time>
      </trkpt>
      <trkpt lat="41.56276741" lon="1.642905073">
        <ele>264.00000</ele>
        <time>2019-10-07T16:35:41Z</time>
      </trkpt>
      <trkpt lat="41.56263934" lon="1.643115123">
        <ele>263.00000</ele>
        <time>2019-10-07T16:35:44Z</time>
      </trkpt>
      <trkpt lat="41.56262274" lon="1.643206235">
        <ele>263.00000</ele>
        <time>2019-10-07T16:35:45Z</time>
      </trkpt>
      <trkpt lat="41.56263389" lon="1.643401533">
        <ele>263.00000</ele>
        <time>2019-10-07T16:35:47Z</time>
      </trkpt>
      <trkpt lat="41.56262434" lon="1.643497589">
        <ele>263.00000</ele>
        <time>2019-10-07T16:35:48Z</time>
      </trkpt>
      <trkpt lat="41.56261361" lon="1.643878212">
        <ele>263.00000</ele>
        <time>2019-10-07T16:35:52Z</time>
      </trkpt>
      <trkpt lat="41.56262610" lon="1.644254894">
        <ele>263.00000</ele>
        <time>2019-10-07T16:35:56Z</time>
      </trkpt>
      <trkpt lat="41.56265828" lon="1.644341982">
        <ele>263.00000</ele>
        <time>2019-10-07T16:35:57Z</time>
      </trkpt>
      <trkpt lat="41.56284604" lon="1.644771303">
        <ele>263.00000</ele>
        <time>2019-10-07T16:36:02Z</time>
      </trkpt>
      <trkpt lat="41.56289507" lon="1.644850512">
        <ele>263.00000</ele>
        <time>2019-10-07T16:36:03Z</time>
      </trkpt>
      <trkpt lat="41.56305944" lon="1.645069280">
        <ele>263.00000</ele>
        <time>2019-10-07T16:36:06Z</time>
      </trkpt>
      <trkpt lat="41.56310495" lon="1.645154440">
        <ele>263.00000</ele>
        <time>2019-10-07T16:36:07Z</time>
      </trkpt>
      <trkpt lat="41.56326195" lon="1.645370861">
        <ele>263.00000</ele>
        <time>2019-10-07T16:36:10Z</time>
      </trkpt>
      <trkpt lat="41.56361952" lon="1.645743940">
        <ele>263.00000</ele>
        <time>2019-10-07T16:36:16Z</time>
      </trkpt>
      <trkpt lat="41.56392093" lon="1.646093633">
        <ele>264.00000</ele>
        <time>2019-10-07T16:36:21Z</time>
      </trkpt>
      <trkpt lat="41.56420206" lon="1.646333020">
        <ele>263.00000</ele>
        <time>2019-10-07T16:36:25Z</time>
      </trkpt>
      <trkpt lat="41.56427758" lon="1.646385993">
        <ele>263.00000</ele>
        <time>2019-10-07T16:36:26Z</time>
      </trkpt>
      <trkpt lat="41.56470489" lon="1.646746415">
        <ele>263.00000</ele>
        <time>2019-10-07T16:36:32Z</time>
      </trkpt>
      <trkpt lat="41.56498183" lon="1.646985048">
        <ele>263.00000</ele>
        <time>2019-10-07T16:36:36Z</time>
      </trkpt>
      <trkpt lat="41.56508627" lon="1.647153021">
        <ele>263.00000</ele>
        <time>2019-10-07T16:36:38Z</time>
      </trkpt>
      <trkpt lat="41.56533563" lon="1.647409005">
        <ele>263.00000</ele>
        <time>2019-10-07T16:36:42Z</time>
      </trkpt>
      <trkpt lat="41.56547754" lon="1.647490141">
        <ele>263.00000</ele>
        <time>2019-10-07T16:36:44Z</time>
      </trkpt>
      <trkpt lat="41.56568700" lon="1.647631712">
        <ele>263.00000</ele>
        <time>2019-10-07T16:36:47Z</time>
      </trkpt>
      <trkpt lat="41.56583863" lon="1.647856933">
        <ele>263.00000</ele>
        <time>2019-10-07T16:36:50Z</time>
      </trkpt>
      <trkpt lat="41.56595581" lon="1.647973190">
        <ele>263.00000</ele>
        <time>2019-10-07T16:36:52Z</time>
      </trkpt>
      <trkpt lat="41.56606410" lon="1.648098081">
        <ele>263.00000</ele>
        <time>2019-10-07T16:36:54Z</time>
      </trkpt>
      <trkpt lat="41.56610827" lon="1.648178799">
        <ele>263.00000</ele>
        <time>2019-10-07T16:36:55Z</time>
      </trkpt>
      <trkpt lat="41.56623518" lon="1.648382898">
        <ele>263.00000</ele>
        <time>2019-10-07T16:36:58Z</time>
      </trkpt>
      <trkpt lat="41.56628404" lon="1.648435117">
        <ele>264.00000</ele>
        <time>2019-10-07T16:36:59Z</time>
      </trkpt>
      <trkpt lat="41.56639150" lon="1.648530839">
        <ele>264.00000</ele>
        <time>2019-10-07T16:37:01Z</time>
      </trkpt>
      <trkpt lat="41.56657146" lon="1.648646509">
        <ele>263.00000</ele>
        <time>2019-10-07T16:37:04Z</time>
      </trkpt>
      <trkpt lat="41.56675703" lon="1.648546010">
        <ele>262.00000</ele>
        <time>2019-10-07T16:37:07Z</time>
      </trkpt>
      <trkpt lat="41.56681872" lon="1.648509213">
        <ele>262.00000</ele>
        <time>2019-10-07T16:37:08Z</time>
      </trkpt>
      <trkpt lat="41.56687706" lon="1.648501669">
        <ele>262.00000</ele>
        <time>2019-10-07T16:37:09Z</time>
      </trkpt>
      <trkpt lat="41.56693993" lon="1.648540729">
        <ele>261.00000</ele>
        <time>2019-10-07T16:37:10Z</time>
      </trkpt>
      <trkpt lat="41.56707915" lon="1.648539556">
        <ele>262.00000</ele>
        <time>2019-10-07T16:37:13Z</time>
      </trkpt>
      <trkpt lat="41.56715584" lon="1.648396393">
        <ele>262.00000</ele>
        <time>2019-10-07T16:37:16Z</time>
      </trkpt>
      <trkpt lat="41.56719046" lon="1.648350795">
        <ele>262.00000</ele>
        <time>2019-10-07T16:37:17Z</time>
      </trkpt>
      <trkpt lat="41.56731627" lon="1.648235041">
        <ele>264.00000</ele>
        <time>2019-10-07T16:37:20Z</time>
      </trkpt>
      <trkpt lat="41.56739909" lon="1.648156000">
        <ele>265.00000</ele>
        <time>2019-10-07T16:37:22Z</time>
      </trkpt>
      <trkpt lat="41.56753060" lon="1.648037647">
        <ele>266.00000</ele>
        <time>2019-10-07T16:37:25Z</time>
      </trkpt>
      <trkpt lat="41.56758039" lon="1.648011077">
        <ele>266.00000</ele>
        <time>2019-10-07T16:37:26Z</time>
      </trkpt>
      <trkpt lat="41.56763562" lon="1.648002527">
        <ele>267.00000</ele>
        <time>2019-10-07T16:37:27Z</time>
      </trkpt>
      <trkpt lat="41.56768960" lon="1.648007975">
        <ele>267.00000</ele>
        <time>2019-10-07T16:37:28Z</time>
      </trkpt>
      <trkpt lat="41.56777845" lon="1.648082155">
        <ele>268.00000</ele>
        <time>2019-10-07T16:37:30Z</time>
      </trkpt>
      <trkpt lat="41.56781055" lon="1.648123562">
        <ele>269.00000</ele>
        <time>2019-10-07T16:37:31Z</time>
      </trkpt>
      <trkpt lat="41.56784526" lon="1.648158682">
        <ele>270.00000</ele>
        <time>2019-10-07T16:37:32Z</time>
      </trkpt>
      <trkpt lat="41.56795523" lon="1.648264881">
        <ele>271.00000</ele>
        <time>2019-10-07T16:37:35Z</time>
      </trkpt>
      <trkpt lat="41.56807366" lon="1.648380383">
        <ele>271.00000</ele>
        <time>2019-10-07T16:37:38Z</time>
      </trkpt>
      <trkpt lat="41.56824641" lon="1.648550955">
        <ele>272.00000</ele>
        <time>2019-10-07T16:37:42Z</time>
      </trkpt>
      <trkpt lat="41.56866366" lon="1.648912467">
        <ele>272.00000</ele>
        <time>2019-10-07T16:37:51Z</time>
      </trkpt>
      <trkpt lat="41.56879174" lon="1.649020090">
        <ele>272.00000</ele>
        <time>2019-10-07T16:37:54Z</time>
      </trkpt>
      <trkpt lat="41.56886634" lon="1.649016402">
        <ele>272.00000</ele>
        <time>2019-10-07T16:37:56Z</time>
      </trkpt>
      <trkpt lat="41.56888704" lon="1.648987317">
        <ele>272.00000</ele>
        <time>2019-10-07T16:37:57Z</time>
      </trkpt>
      <trkpt lat="41.56891076" lon="1.648966530">
        <ele>272.00000</ele>
        <time>2019-10-07T16:37:58Z</time>
      </trkpt>
      <trkpt lat="41.56894496" lon="1.648939456">
        <ele>272.00000</ele>
        <time>2019-10-07T16:37:59Z</time>
      </trkpt>
      <trkpt lat="41.56905367" lon="1.648822613">
        <ele>272.00000</ele>
        <time>2019-10-07T16:38:02Z</time>
      </trkpt>
      <trkpt lat="41.56911134" lon="1.648713396">
        <ele>272.00000</ele>
        <time>2019-10-07T16:38:04Z</time>
      </trkpt>
      <trkpt lat="41.56915300" lon="1.648589177">
        <ele>273.00000</ele>
        <time>2019-10-07T16:38:06Z</time>
      </trkpt>
      <trkpt lat="41.56912995" lon="1.648445343">
        <ele>273.00000</ele>
        <time>2019-10-07T16:38:08Z</time>
      </trkpt>
      <trkpt lat="41.56906600" lon="1.648240322">
        <ele>273.00000</ele>
        <time>2019-10-07T16:38:11Z</time>
      </trkpt>
      <trkpt lat="41.56905502" lon="1.648167567">
        <ele>273.00000</ele>
        <time>2019-10-07T16:38:12Z</time>
      </trkpt>
      <trkpt lat="41.56905652" lon="1.648093136">
        <ele>273.00000</ele>
        <time>2019-10-07T16:38:13Z</time>
      </trkpt>
      <trkpt lat="41.56909475" lon="1.647889958">
        <ele>273.00000</ele>
        <time>2019-10-07T16:38:16Z</time>
      </trkpt>
      <trkpt lat="41.56910908" lon="1.647821478">
        <ele>274.00000</ele>
        <time>2019-10-07T16:38:17Z</time>
      </trkpt>
      <trkpt lat="41.56915719" lon="1.647696588">
        <ele>274.00000</ele>
        <time>2019-10-07T16:38:19Z</time>
      </trkpt>
      <trkpt lat="41.56925325" lon="1.647521993">
        <ele>274.00000</ele>
        <time>2019-10-07T16:38:22Z</time>
      </trkpt>
      <trkpt lat="41.56931377" lon="1.647408250">
        <ele>274.00000</ele>
        <time>2019-10-07T16:38:24Z</time>
      </trkpt>
      <trkpt lat="41.56933422" lon="1.647346979">
        <ele>275.00000</ele>
        <time>2019-10-07T16:38:25Z</time>
      </trkpt>
      <trkpt lat="41.56938828" lon="1.647127624">
        <ele>275.00000</ele>
        <time>2019-10-07T16:38:28Z</time>
      </trkpt>
      <trkpt lat="41.56940253" lon="1.646976331">
        <ele>275.00000</ele>
        <time>2019-10-07T16:38:30Z</time>
      </trkpt>
      <trkpt lat="41.56940865" lon="1.646827133">
        <ele>275.00000</ele>
        <time>2019-10-07T16:38:32Z</time>
      </trkpt>
      <trkpt lat="41.56941938" lon="1.646680701">
        <ele>276.00000</ele>
        <time>2019-10-07T16:38:34Z</time>
      </trkpt>
      <trkpt lat="41.56948962" lon="1.646006628">
        <ele>276.00000</ele>
        <time>2019-10-07T16:38:43Z</time>
      </trkpt>
      <trkpt lat="41.56961669" lon="1.645569093">
        <ele>276.00000</ele>
        <time>2019-10-07T16:38:49Z</time>
      </trkpt>
      <trkpt lat="41.56973940" lon="1.645107585">
        <ele>276.00000</ele>
        <time>2019-10-07T16:38:55Z</time>
      </trkpt>
      <trkpt lat="41.56981425" lon="1.644712211">
        <ele>276.00000</ele>
        <time>2019-10-07T16:39:00Z</time>
      </trkpt>
      <trkpt lat="41.56984317" lon="1.644554883">
        <ele>276.00000</ele>
        <time>2019-10-07T16:39:02Z</time>
      </trkpt>
      <trkpt lat="41.57002413" lon="1.643862286">
        <ele>277.00000</ele>
        <time>2019-10-07T16:39:11Z</time>
      </trkpt>
      <trkpt lat="41.57005883" lon="1.643796823">
        <ele>277.00000</ele>
        <time>2019-10-07T16:39:12Z</time>
      </trkpt>
      <trkpt lat="41.57009270" lon="1.643738150">
        <ele>278.00000</ele>
        <time>2019-10-07T16:39:13Z</time>
      </trkpt>
      <trkpt lat="41.57021591" lon="1.643531452">
        <ele>278.00000</ele>
        <time>2019-10-07T16:39:17Z</time>
      </trkpt>
      <trkpt lat="41.57035279" lon="1.643307991">
        <ele>277.00000</ele>
        <time>2019-10-07T16:39:21Z</time>
      </trkpt>
      <trkpt lat="41.57051263" lon="1.642908845">
        <ele>278.00000</ele>
        <time>2019-10-07T16:39:26Z</time>
      </trkpt>
      <trkpt lat="41.57072042" lon="1.642280956">
        <ele>278.00000</ele>
        <time>2019-10-07T16:39:34Z</time>
      </trkpt>
      <trkpt lat="41.57076509" lon="1.642130920">
        <ele>279.00000</ele>
        <time>2019-10-07T16:39:36Z</time>
      </trkpt>
      <trkpt lat="41.57084799" lon="1.641825065">
        <ele>279.00000</ele>
        <time>2019-10-07T16:39:40Z</time>
      </trkpt>
      <trkpt lat="41.57097028" lon="1.641451148">
        <ele>279.00000</ele>
        <time>2019-10-07T16:39:45Z</time>
      </trkpt>
      <trkpt lat="41.57100984" lon="1.641302369">
        <ele>279.00000</ele>
        <time>2019-10-07T16:39:47Z</time>
      </trkpt>
      <trkpt lat="41.57106743" lon="1.641013864">
        <ele>279.00000</ele>
        <time>2019-10-07T16:39:51Z</time>
      </trkpt>
      <trkpt lat="41.57110431" lon="1.640689903">
        <ele>280.00000</ele>
        <time>2019-10-07T16:39:56Z</time>
      </trkpt>
      <trkpt lat="41.57111252" lon="1.640636092">
        <ele>280.00000</ele>
        <time>2019-10-07T16:39:57Z</time>
      </trkpt>
      <trkpt lat="41.57113985" lon="1.640507178">
        <ele>280.00000</ele>
        <time>2019-10-07T16:40:01Z</time>
      </trkpt>
      <trkpt lat="41.57117136" lon="1.640325542">
        <ele>280.00000</ele>
        <time>2019-10-07T16:40:07Z</time>
      </trkpt>
      <trkpt lat="41.57117321" lon="1.640073079">
        <ele>280.00000</ele>
        <time>2019-10-07T16:40:12Z</time>
      </trkpt>
      <trkpt lat="41.57122023" lon="1.639660857">
        <ele>281.00000</ele>
        <time>2019-10-07T16:40:18Z</time>
      </trkpt>
      <trkpt lat="41.57122920" lon="1.639590449">
        <ele>281.00000</ele>
        <time>2019-10-07T16:40:19Z</time>
      </trkpt>
      <trkpt lat="41.57123087" lon="1.639516605">
        <ele>281.00000</ele>
        <time>2019-10-07T16:40:20Z</time>
      </trkpt>
      <trkpt lat="41.57125040" lon="1.639240421">
        <ele>281.00000</ele>
        <time>2019-10-07T16:40:24Z</time>
      </trkpt>
      <trkpt lat="41.57129491" lon="1.638987790">
        <ele>282.00000</ele>
        <time>2019-10-07T16:40:28Z</time>
      </trkpt>
      <trkpt lat="41.57131126" lon="1.638928279">
        <ele>282.00000</ele>
        <time>2019-10-07T16:40:29Z</time>
      </trkpt>
      <trkpt lat="41.57133204" lon="1.638872539">
        <ele>282.00000</ele>
        <time>2019-10-07T16:40:30Z</time>
      </trkpt>
      <trkpt lat="41.57138451" lon="1.638765586">
        <ele>282.00000</ele>
        <time>2019-10-07T16:40:32Z</time>
      </trkpt>
      <trkpt lat="41.57144470" lon="1.638597026">
        <ele>282.00000</ele>
        <time>2019-10-07T16:40:35Z</time>
      </trkpt>
      <trkpt lat="41.57151888" lon="1.638312963">
        <ele>283.00000</ele>
        <time>2019-10-07T16:40:39Z</time>
      </trkpt>
      <trkpt lat="41.57153706" lon="1.638226546">
        <ele>283.00000</ele>
        <time>2019-10-07T16:40:40Z</time>
      </trkpt>
      <trkpt lat="41.57166740" lon="1.637753304">
        <ele>282.00000</ele>
        <time>2019-10-07T16:40:46Z</time>
      </trkpt>
      <trkpt lat="41.57169640" lon="1.637722626">
        <ele>282.00000</ele>
        <time>2019-10-07T16:40:47Z</time>
      </trkpt>
      <trkpt lat="41.57177075" lon="1.637720447">
        <ele>282.00000</ele>
        <time>2019-10-07T16:40:49Z</time>
      </trkpt>
      <trkpt lat="41.57187435" lon="1.637741569">
        <ele>283.00000</ele>
        <time>2019-10-07T16:40:51Z</time>
      </trkpt>
      <trkpt lat="41.57192381" lon="1.637757327">
        <ele>283.00000</ele>
        <time>2019-10-07T16:40:52Z</time>
      </trkpt>
      <trkpt lat="41.57197711" lon="1.637768894">
        <ele>284.00000</ele>
        <time>2019-10-07T16:40:53Z</time>
      </trkpt>
      <trkpt lat="41.57231784" lon="1.637829327">
        <ele>284.00000</ele>
        <time>2019-10-07T16:40:59Z</time>
      </trkpt>
      <trkpt lat="41.57242395" lon="1.637855395">
        <ele>285.00000</ele>
        <time>2019-10-07T16:41:01Z</time>
      </trkpt>
      <trkpt lat="41.57279863" lon="1.637950446">
        <ele>285.00000</ele>
        <time>2019-10-07T16:41:08Z</time>
      </trkpt>
      <trkpt lat="41.57319551" lon="1.638045664">
        <ele>285.00000</ele>
        <time>2019-10-07T16:41:16Z</time>
      </trkpt>
      <trkpt lat="41.57338050" lon="1.638123616">
        <ele>285.00000</ele>
        <time>2019-10-07T16:41:21Z</time>
      </trkpt>
      <trkpt lat="41.57344713" lon="1.638198131">
        <ele>285.00000</ele>
        <time>2019-10-07T16:41:23Z</time>
      </trkpt>
      <trkpt lat="41.57351084" lon="1.638301480">
        <ele>285.00000</ele>
        <time>2019-10-07T16:41:25Z</time>
      </trkpt>
      <trkpt lat="41.57360882" lon="1.638297708">
        <ele>285.00000</ele>
        <time>2019-10-07T16:41:27Z</time>
      </trkpt>
      <trkpt lat="41.57363866" lon="1.638173824">
        <ele>286.00000</ele>
        <time>2019-10-07T16:41:29Z</time>
      </trkpt>
      <trkpt lat="41.57365065" lon="1.638122778">
        <ele>286.00000</ele>
        <time>2019-10-07T16:41:30Z</time>
      </trkpt>
      <trkpt lat="41.57367261" lon="1.638072738">
        <ele>286.00000</ele>
        <time>2019-10-07T16:41:31Z</time>
      </trkpt>
      <trkpt lat="41.57375215" lon="1.637937035">
        <ele>286.00000</ele>
        <time>2019-10-07T16:41:34Z</time>
      </trkpt>
      <trkpt lat="41.57375643" lon="1.637763865">
        <ele>286.00000</ele>
        <time>2019-10-07T16:41:37Z</time>
      </trkpt>
      <trkpt lat="41.57361804" lon="1.637666802">
        <ele>286.00000</ele>
        <time>2019-10-07T16:41:40Z</time>
      </trkpt>
      <trkpt lat="41.57356725" lon="1.637639226">
        <ele>286.00000</ele>
        <time>2019-10-07T16:41:41Z</time>
      </trkpt>
      <trkpt lat="41.57340900" lon="1.637538392">
        <ele>285.00000</ele>
        <time>2019-10-07T16:41:44Z</time>
      </trkpt>
      <trkpt lat="41.57329022" lon="1.637462368">
        <ele>285.00000</ele>
        <time>2019-10-07T16:41:46Z</time>
      </trkpt>
      <trkpt lat="41.57320506" lon="1.637423895">
        <ele>284.00000</ele>
        <time>2019-10-07T16:41:47Z</time>
      </trkpt>
      <trkpt lat="41.57313239" lon="1.637373855">
        <ele>284.00000</ele>
        <time>2019-10-07T16:41:48Z</time>
      </trkpt>
      <trkpt lat="41.57309073" lon="1.637339238">
        <ele>284.00000</ele>
        <time>2019-10-07T16:41:49Z</time>
      </trkpt>
      <trkpt lat="41.57305452" lon="1.637260532">
        <ele>285.00000</ele>
        <time>2019-10-07T16:41:52Z</time>
      </trkpt>
      <trkpt lat="41.57308864" lon="1.637221556">
        <ele>285.00000</ele>
        <time>2019-10-07T16:41:53Z</time>
      </trkpt>
      <trkpt lat="41.57311278" lon="1.637189872">
        <ele>286.00000</ele>
        <time>2019-10-07T16:41:54Z</time>
      </trkpt>
      <trkpt lat="41.57313851" lon="1.637148382">
        <ele>286.00000</ele>
        <time>2019-10-07T16:41:56Z</time>
      </trkpt>
    </trkseg>
  </trk>
</gpx>
